[[[{"header":{"parameterUnit":"kt","parameterCategory":2,"dx":1,"dy":1,"la1":29.587661999999998,"la2":31.0,"lo1":-88.76705300000003,"lo2":-86.6583820000003,"nx":115,"ny":88,"refTime":"2022-10-26T12:00:00:Z","depth":0,"parameterNumber":1,"parameterNumberName":"U-component_of_WINDS"},"data":[6.4367,6.4367,6.4367,6.4367,6.4367,6.4367,6.4367,6.4367,6.4367,6.4367,6.4367,6.4367,6.4367,6.4367,6.4367,6.4367,6.4367,6.4367,6.4367,6.4367,6.4367,6.4367,6.4419,6.459,6.4935,6.5695,6.6671,6.753,6.7799,6.8607,6.9483,7.0329,7.0426,7.079,7.079,7.079,7.079,7.079,7.079,7.079,7.079,7.079,7.079,7.079,7.079,7.079,7.079,7.079,7.079,7.079,7.079,7.079,7.079,7.079,7.079,7.079,7.079,7.079,7.079,7.079,7.079,7.079,7.079,7.079,7.079,7.079,7.079,7.079,7.079,7.079,7.079,7.079,7.079,7.079,7.079,7.079,7.079,7.079,7.079,7.079,7.079,7.079,7.079,7.079,7.079,7.079,7.079,7.079,7.079,7.079,7.079,7.079,7.079,7.079,7.079,7.079,7.079,7.079,7.079,7.079,7.079,7.079,7.079,7.079,7.079,7.079,7.079,7.079,7.079,7.079,7.079,7.079,7.079,7.079,7.079,6.4367,6.4367,6.4367,6.4367,6.4367,6.4367,6.4367,6.4367,6.4367,6.4367,6.4367,6.4367,6.4367,6.4367,6.4367,6.4367,6.4367,6.4367,6.4367,6.4367,6.4367,6.4367,6.4367,6.4367,6.4492,6.503,6.5692,6.6183,6.6894,6.8045,6.8973,6.9384,7.0015,7.079,7.079,7.079,7.079,7.079,7.079,7.079,7.079,7.079,7.079,7.079,7.079,7.079,7.079,7.079,7.079,7.079,7.079,7.079,7.079,7.079,7.079,7.079,7.079,7.079,7.079,7.079,7.079,7.079,7.079,7.079,7.079,7.079,7.079,7.079,7.079,7.079,7.079,7.079,7.079,7.079,7.079,7.079,7.079,7.079,7.079,7.079,7.079,7.079,7.079,7.079,7.079,7.079,7.079,7.079,7.079,7.079,7.079,7.079,7.079,7.079,7.079,7.079,7.079,7.079,7.079,7.079,7.079,7.079,7.079,7.079,7.079,7.079,7.079,7.079,7.079,7.079,7.079,7.079,7.079,7.079,7.079,6.4367,6.4367,6.4367,6.4367,6.4367,6.4367,6.4367,6.4367,6.4367,6.4367,6.4367,6.4367,6.4367,6.4367,6.4367,6.4367,6.4367,6.4367,6.4367,6.4367,6.4367,6.4367,6.4367,6.4367,6.4367,6.4416,6.4935,6.5768,6.6942,6.7947,6.9042,7.0086,7.0402,7.079,7.079,7.079,7.079,7.079,7.079,7.079,7.079,7.079,7.079,7.079,7.079,7.079,7.079,7.079,7.079,7.079,7.079,7.079,7.079,7.079,7.079,7.079,7.079,7.079,7.079,7.079,7.079,7.079,7.079,7.079,7.079,7.079,7.079,7.079,7.079,7.079,7.079,7.079,7.079,7.079,7.079,7.079,7.079,7.079,7.079,7.079,7.079,7.079,7.079,7.079,7.079,7.079,7.079,7.079,7.079,7.079,7.079,7.079,7.079,7.079,7.079,7.079,7.079,7.079,7.079,7.079,7.079,7.079,7.079,7.079,7.079,7.079,7.079,7.079,7.079,7.079,7.079,7.079,7.079,7.079,7.079,6.4367,6.4367,6.4367,6.4367,6.4367,6.4367,6.4367,6.4367,6.4367,6.4367,6.4367,6.4367,6.4367,6.4367,6.4367,6.4367,6.4367,6.4367,6.4367,6.4367,6.4367,6.4367,6.4367,6.4367,6.4367,6.4367,6.4541,6.5155,6.6208,6.7211,6.8404,6.9718,7.0718,7.0742,7.079,7.079,7.079,7.079,7.079,7.079,7.079,7.079,7.079,7.079,7.079,7.079,7.079,7.079,7.079,7.079,7.079,7.079,7.079,7.079,7.079,7.079,7.079,7.079,7.079,7.079,7.079,7.079,7.079,7.079,7.079,7.079,7.079,7.079,7.079,7.079,7.079,7.079,7.079,7.079,7.079,7.079,7.079,7.079,7.079,7.079,7.079,7.079,7.079,7.079,7.079,7.079,7.079,7.079,7.079,7.079,7.079,7.079,7.079,7.079,7.079,7.079,7.079,7.079,7.079,7.079,7.079,7.079,7.079,7.079,7.079,7.079,7.079,7.079,7.079,7.079,7.079,7.079,7.079,7.079,7.079,6.4367,6.4367,6.4367,6.4367,6.4367,6.4367,6.4367,6.4367,6.4367,6.4367,6.4367,6.4367,6.4367,6.4367,6.4367,6.4367,6.4367,6.4367,6.4367,6.4367,6.4367,6.4367,6.4367,6.4367,6.4367,6.4367,6.4464,6.4639,6.5228,6.6525,6.765,6.7794,6.9694,7.0718,7.079,7.079,7.079,7.079,7.079,7.079,7.079,7.079,7.079,7.079,7.079,7.079,7.079,7.079,7.079,7.079,7.079,7.079,7.079,7.079,7.079,7.079,7.079,7.079,7.079,7.079,7.079,7.079,7.079,7.079,7.079,7.079,7.079,7.079,7.079,7.079,7.079,7.079,7.079,7.079,7.079,7.079,7.079,7.079,7.079,7.079,7.079,7.079,7.079,7.079,7.079,7.079,7.079,7.079,7.079,7.079,7.079,7.079,7.079,7.079,7.079,7.079,7.079,7.079,7.079,7.079,7.079,7.079,7.079,7.079,7.079,7.079,7.079,7.079,7.079,7.079,7.079,7.079,7.079,7.079,7.079,6.4367,6.4367,6.4367,6.4367,6.4367,6.4367,6.4367,6.4367,6.4367,6.4367,6.4367,6.4367,6.4367,6.4367,6.4367,6.4367,6.4367,6.4367,6.4367,6.4367,6.4367,6.4367,6.4367,6.4367,6.4367,6.4367,6.4367,6.4367,6.4956,6.6305,6.7825,6.8335,6.9865,7.0596,7.079,7.079,7.079,7.079,7.079,7.079,7.079,7.079,7.079,7.079,7.079,7.079,7.079,7.079,7.079,7.079,7.079,7.079,7.079,7.079,7.079,7.079,7.079,7.079,7.079,7.079,7.079,7.079,7.079,7.079,7.079,7.079,7.079,7.079,7.079,7.079,7.079,7.079,7.079,7.079,7.079,7.079,7.079,7.079,7.079,7.079,7.079,7.079,7.079,7.079,7.079,7.079,7.079,7.079,7.079,7.079,7.079,7.079,7.079,7.079,7.079,7.079,7.079,7.079,7.079,7.079,7.079,7.079,7.079,7.079,7.079,7.079,7.079,7.079,7.079,7.079,7.079,7.079,7.079,7.079,7.079,6.4594,6.437,6.4688,6.4594,6.4444,6.4984,6.5033,6.4758,6.4444,6.4367,6.4367,6.4367,6.4367,6.4367,6.4367,6.4367,6.4367,6.4367,6.4367,6.4367,6.4367,6.4367,6.4367,6.4367,6.4367,6.4367,6.4367,6.4391,6.4737,6.5448,6.6991,6.8679,6.9987,7.0571,7.079,7.079,7.079,7.079,7.079,7.079,7.079,7.079,7.079,7.079,7.079,7.079,7.079,7.079,7.079,7.079,7.079,7.079,7.079,7.079,7.079,7.079,7.079,7.079,7.079,7.079,7.079,7.079,7.079,7.079,7.079,7.079,7.079,7.079,7.079,7.079,7.079,7.079,7.079,7.079,7.079,7.079,7.079,7.079,7.079,7.079,7.079,7.079,7.079,7.079,7.079,7.079,7.079,7.079,7.079,7.079,7.079,7.079,7.079,7.079,7.079,7.079,7.079,7.079,7.079,7.079,7.079,7.079,7.079,7.079,7.079,7.079,7.079,7.079,7.079,7.079,7.079,7.079,7.079,7.079,7.079,6.5231,6.4566,6.5424,6.528,6.4834,6.6403,6.665,6.5793,6.4789,6.4419,6.4391,6.444,6.4367,6.4367,6.4367,6.4367,6.4367,6.4367,6.4367,6.4367,6.4367,6.4367,6.4367,6.4367,6.4367,6.4367,6.4367,6.4367,6.4391,6.4956,6.6012,6.7625,6.979,7.0547,7.079,7.079,7.079,7.079,7.079,7.079,7.079,7.079,7.079,7.079,7.079,7.079,7.079,7.079,7.079,7.079,7.079,7.079,7.079,7.079,7.079,7.079,7.079,7.079,7.079,7.079,7.079,7.079,7.079,7.079,7.079,7.079,7.079,7.079,7.079,7.079,7.079,7.079,7.079,7.079,7.079,7.079,7.079,7.079,7.079,7.079,7.079,7.079,7.079,7.079,7.079,7.079,7.079,7.079,7.079,7.079,7.079,7.079,7.079,7.079,7.079,7.079,7.079,7.079,7.079,7.079,7.079,7.079,7.079,7.079,7.079,7.079,7.079,7.079,7.079,7.079,7.079,7.079,7.079,7.079,7.079,6.5695,6.5475,6.65,6.6698,6.6528,6.714,6.7284,6.6796,6.5842,6.5375,6.5183,6.4639,6.4391,6.4391,6.4367,6.4367,6.4367,6.4367,6.4367,6.4367,6.4367,6.4367,6.4367,6.4367,6.4367,6.4367,6.4367,6.4367,6.4367,6.4367,6.5497,6.7428,6.9643,7.0352,7.0694,7.0742,7.079,7.079,7.079,7.079,7.079,7.079,7.079,7.079,7.079,7.079,7.079,7.079,7.079,7.079,7.079,7.079,7.079,7.079,7.079,7.079,7.079,7.079,7.079,7.079,7.079,7.079,7.079,7.079,7.079,7.079,7.079,7.079,7.079,7.079,7.079,7.079,7.079,7.079,7.079,7.079,7.079,7.079,7.079,7.079,7.079,7.079,7.079,7.079,7.079,7.079,7.079,7.079,7.079,7.079,7.079,7.079,7.079,7.079,7.079,7.079,7.079,7.079,7.079,7.079,7.079,7.079,7.079,7.079,7.079,7.079,7.079,7.079,7.079,7.079,7.079,7.079,7.079,7.079,7.079,6.6723,6.6503,6.7555,6.8189,6.855,6.8575,6.8311,6.7896,6.7286,6.6725,6.6259,6.5305,6.4862,6.4691,6.4618,6.4367,6.4367,6.4367,6.4367,6.4367,6.4367,6.4367,6.4367,6.4367,6.4367,6.4367,6.4367,6.4367,6.4367,6.4367,6.5472,6.6796,6.8451,6.9765,7.0158,7.0669,7.0767,7.079,7.079,7.079,7.079,7.079,7.079,7.079,7.079,7.079,7.079,7.079,7.079,7.079,7.079,7.079,7.079,7.079,7.079,7.079,7.079,7.079,7.079,7.079,7.079,7.079,7.079,7.079,7.079,7.079,7.079,7.079,7.079,7.079,7.079,7.079,7.079,7.079,7.079,7.079,7.079,7.079,7.079,7.079,7.079,7.079,7.079,7.079,7.079,7.079,7.079,7.079,7.079,7.079,7.079,7.079,7.079,7.079,7.079,7.079,7.079,7.079,7.079,7.079,7.079,7.079,7.079,7.079,7.079,7.079,7.079,7.079,7.079,7.079,7.079,7.079,7.079,7.079,7.079,6.8337,6.7652,6.8605,6.9675,7.0474,7.0718,7.0037,6.9093,6.8922,6.8386,6.7408,6.6406,6.5936,6.5594,6.4911,6.4541,6.444,6.4367,6.4367,6.4367,6.4367,6.4367,6.4367,6.4367,6.4367,6.4367,6.4367,6.4367,6.4367,6.4367,6.496,6.6162,6.7211,6.8138,6.9044,7.0135,7.0718,7.079,7.079,7.079,7.079,7.079,7.079,7.079,7.079,7.079,7.079,7.079,7.079,7.079,7.079,7.079,7.079,7.079,7.079,7.079,7.079,7.079,7.079,7.079,7.079,7.079,7.079,7.079,7.079,7.079,7.079,7.079,7.079,7.079,7.079,7.079,7.079,7.079,7.079,7.079,7.079,7.079,7.079,7.079,7.079,7.079,7.079,7.079,7.079,7.079,7.079,7.079,7.079,7.079,7.079,7.079,7.079,7.079,7.079,7.079,7.079,7.079,7.079,7.079,7.079,7.079,7.079,7.079,7.079,7.079,7.079,7.079,7.079,7.079,7.079,7.079,7.079,7.079,7.079,6.8827,6.8679,6.9748,7.0451,7.0742,7.079,7.0547,7.0257,7.0208,6.9577,6.8484,6.7457,6.6647,6.5988,6.5475,6.5155,6.4566,6.4444,6.4416,6.4367,6.4367,6.4367,6.4367,6.4367,6.4367,6.4367,6.4367,6.4367,6.4367,6.4367,6.4911,6.5598,6.6281,6.7016,6.8138,6.9669,7.0742,7.079,7.079,7.079,7.079,7.079,7.079,7.079,7.079,7.079,7.079,7.079,7.079,7.079,7.079,7.079,7.079,7.079,7.079,7.079,7.079,7.079,7.079,7.079,7.079,7.079,7.079,7.079,7.079,7.079,7.079,7.079,7.079,7.079,7.079,7.079,7.079,7.079,7.079,7.079,7.079,7.079,7.079,7.079,7.079,7.079,7.079,7.079,7.079,7.079,7.079,7.079,7.079,7.079,7.079,7.079,7.079,7.079,7.079,7.079,7.079,7.079,7.079,7.079,7.079,7.079,7.079,7.079,7.079,7.079,7.079,7.079,7.079,7.079,7.079,7.079,7.079,7.079,7.079,6.9675,6.9748,7.0451,7.079,7.079,7.079,7.079,7.079,7.0742,7.0304,6.9626,6.8579,6.7701,6.7138,6.6747,6.5915,6.5054,6.4935,6.4642,6.4517,6.4367,6.4367,6.4367,6.4367,6.4367,6.4367,6.4367,6.4367,6.4367,6.4367,6.4859,6.5253,6.5768,6.6308,6.7284,6.8819,7.0109,7.0547,7.079,7.079,7.079,7.079,7.079,7.079,7.079,7.079,7.079,7.079,7.079,7.079,7.079,7.079,7.079,7.079,7.079,7.079,7.079,7.079,7.079,7.079,7.079,7.079,7.079,7.079,7.079,7.079,7.079,7.079,7.079,7.079,7.079,7.079,7.079,7.079,7.079,7.079,7.079,7.079,7.079,7.079,7.079,7.079,7.079,7.079,7.079,7.079,7.079,7.079,7.079,7.079,7.079,7.079,7.079,7.079,7.079,7.079,7.079,7.079,7.079,7.079,7.079,7.079,7.079,7.079,7.079,7.079,7.079,7.079,7.079,7.079,7.079,7.079,7.079,7.079,7.079,7.0865,7.0863,7.0912,7.0865,7.079,7.079,7.079,7.079,7.079,7.0695,7.0451,6.965,6.9069,6.8679,6.7823,6.6991,6.6009,6.5915,6.535,6.4764,6.437,6.4367,6.4367,6.4367,6.4367,6.4367,6.4367,6.4367,6.4367,6.4367,6.4367,6.4464,6.5179,6.5646,6.6528,6.7772,6.9014,7.0208,7.0694,7.0742,7.079,7.079,7.079,7.079,7.079,7.079,7.079,7.079,7.079,7.079,7.079,7.079,7.079,7.079,7.079,7.079,7.079,7.079,7.079,7.079,7.079,7.079,7.079,7.079,7.079,7.079,7.079,7.079,7.079,7.079,7.079,7.079,7.079,7.079,7.079,7.079,7.079,7.079,7.079,7.079,7.079,7.079,7.079,7.079,7.079,7.079,7.079,7.079,7.079,7.079,7.079,7.079,7.079,7.079,7.079,7.079,7.079,7.079,7.079,7.079,7.079,7.079,7.079,7.079,7.079,7.079,7.079,7.079,7.079,7.079,7.079,7.079,7.079,7.079,7.079,7.194,7.1916,7.1917,7.1475,7.079,7.079,7.079,7.079,7.079,7.079,7.0669,7.0451,6.9772,6.9093,6.8727,6.8045,6.7043,6.621,6.5768,6.5301,6.4834,6.4464,6.4367,6.4367,6.4367,6.4367,6.4367,6.4367,6.4367,6.4367,6.4367,6.4391,6.4761,6.5106,6.5817,6.665,6.7677,6.9262,7.0159,7.0669,7.079,7.079,7.079,7.079,7.079,7.079,7.079,7.079,7.079,7.079,7.079,7.079,7.079,7.079,7.079,7.079,7.079,7.079,7.079,7.079,7.079,7.079,7.079,7.079,7.079,7.079,7.079,7.079,7.079,7.079,7.079,7.079,7.079,7.079,7.079,7.079,7.079,7.079,7.079,7.079,7.079,7.079,7.079,7.079,7.079,7.079,7.079,7.079,7.079,7.079,7.079,7.079,7.079,7.079,7.079,7.079,7.079,7.079,7.079,7.079,7.079,7.079,7.079,7.079,7.079,7.079,7.079,7.079,7.079,7.079,7.079,7.079,7.079,7.079,7.079,7.3431,7.2967,7.2479,7.1941,7.1402,7.0913,7.079,7.079,7.079,7.079,7.079,7.079,7.0426,6.9941,6.9772,6.914,6.8191,6.7603,6.6869,6.5866,6.5326,6.481,6.4513,6.4367,6.4367,6.4367,6.4367,6.4367,6.4367,6.4367,6.4367,6.4367,6.444,6.4737,6.5082,6.5646,6.6601,6.7701,6.9114,7.0159,7.0645,7.079,7.079,7.079,7.079,7.079,7.079,7.079,7.079,7.079,7.079,7.079,7.079,7.079,7.079,7.079,7.079,7.079,7.079,7.079,7.079,7.079,7.079,7.079,7.079,7.079,7.079,7.079,7.079,7.079,7.079,7.079,7.079,7.079,7.079,7.079,7.079,7.079,7.079,7.079,7.079,7.079,7.079,7.079,7.079,7.079,7.079,7.079,7.079,7.079,7.079,7.079,7.079,7.079,7.079,7.079,7.079,7.079,7.079,7.079,7.079,7.079,7.079,7.079,7.079,7.079,7.079,7.079,7.079,7.079,7.079,7.079,7.079,7.079,7.079,7.492,7.3773,7.2894,7.2429,7.2112,7.1159,7.079,7.079,7.079,7.079,7.079,7.0742,7.0742,7.0645,7.0669,7.0135,6.9384,6.8776,6.7898,6.6698,6.6012,6.5326,6.4712,6.4489,6.4367,6.4367,6.4367,6.4367,6.4367,6.4367,6.4367,6.4367,6.4367,6.4416,6.4639,6.5155,6.5744,6.621,6.7701,6.9211,7.0257,7.0669,7.0742,7.079,7.079,7.079,7.079,7.079,7.079,7.079,7.079,7.079,7.079,7.079,7.079,7.079,7.079,7.079,7.079,7.079,7.079,7.079,7.079,7.079,7.079,7.079,7.079,7.079,7.079,7.079,7.079,7.079,7.079,7.079,7.079,7.079,7.079,7.079,7.079,7.079,7.079,7.079,7.079,7.079,7.079,7.079,7.079,7.079,7.079,7.079,7.079,7.079,7.079,7.079,7.079,7.079,7.079,7.079,7.079,7.079,7.079,7.079,7.079,7.079,7.079,7.079,7.079,7.079,7.079,7.079,7.079,7.079,7.079,7.079,7.079,7.492,7.387,7.3651,7.3065,7.2186,7.1207,7.079,7.079,7.0767,7.079,7.079,7.079,7.079,7.079,7.0718,7.0645,7.0378,6.9384,6.8827,6.792,6.6772,6.5845,6.5329,6.4886,6.4367,6.4367,6.4367,6.4367,6.4367,6.4367,6.4367,6.4367,6.4367,6.4367,6.4367,6.4663,6.5225,6.5695,6.6479,6.7577,6.9162,7.0233,7.079,7.079,7.079,7.079,7.079,7.079,7.079,7.079,7.079,7.079,7.079,7.079,7.079,7.079,7.079,7.079,7.079,7.079,7.079,7.079,7.079,7.079,7.079,7.079,7.079,7.079,7.079,7.079,7.079,7.079,7.079,7.079,7.079,7.079,7.079,7.079,7.079,7.079,7.079,7.079,7.079,7.079,7.079,7.079,7.079,7.079,7.079,7.079,7.079,7.079,7.079,7.079,7.079,7.079,7.079,7.079,7.079,7.079,7.079,7.079,7.079,7.079,7.079,7.079,7.079,7.079,7.079,7.079,7.079,7.079,7.079,7.079,7.079,7.4749,7.4627,7.3529,7.3382,7.3455,7.1695,7.1034,7.1379,7.0987,7.079,7.079,7.079,7.079,7.079,7.079,7.079,7.0645,7.0062,6.953,6.8752,6.7433,6.6454,6.5744,6.481,6.4464,6.4367,6.4367,6.4367,6.4367,6.4367,6.4367,6.4367,6.4367,6.4367,6.4367,6.4367,6.4688,6.5127,6.5741,6.6744,6.8213,6.9311,7.0255,7.0571,7.079,7.079,7.079,7.079,7.079,7.079,7.079,7.079,7.079,7.079,7.079,7.079,7.079,7.079,7.079,7.079,7.079,7.079,7.079,7.079,7.079,7.079,7.079,7.079,7.079,7.079,7.079,7.079,7.079,7.079,7.079,7.079,7.079,7.079,7.079,7.079,7.079,7.079,7.079,7.079,7.079,7.079,7.079,7.079,7.079,7.079,7.079,7.079,7.079,7.079,7.079,7.079,7.079,7.079,7.079,7.079,7.079,7.079,7.079,7.079,7.079,7.079,7.079,7.079,7.079,7.079,7.079,7.079,7.079,7.079,7.079,7.4187,7.492,7.3088,7.3431,7.4675,7.2281,7.1647,7.2308,7.1745,7.1231,7.1109,7.1012,7.0988,7.0767,7.079,7.079,7.079,7.062,7.0159,6.9358,6.8264,6.7164,6.6284,6.5301,6.4594,6.4419,6.4367,6.4367,6.4367,6.4367,6.4367,6.4367,6.4367,6.4367,6.4367,6.4367,6.4395,6.4663,6.5131,6.6208,6.7433,6.8457,6.9309,7.0669,7.079,7.079,7.079,7.079,7.079,7.079,7.079,7.079,7.079,7.079,7.079,7.079,7.079,7.079,7.079,7.079,7.079,7.079,7.079,7.079,7.079,7.079,7.079,7.079,7.079,7.079,7.079,7.079,7.079,7.079,7.079,7.079,7.079,7.079,7.079,7.079,7.079,7.079,7.079,7.079,7.079,7.079,7.079,7.079,7.079,7.079,7.079,7.079,7.079,7.079,7.079,7.079,7.079,7.079,7.079,7.079,7.079,7.079,7.079,7.079,7.079,7.079,7.079,7.079,7.079,7.079,7.079,7.079,7.079,7.079,7.079,7.2649,7.2771,7.2454,7.2992,7.3821,7.2746,7.2674,7.3553,7.3456,7.2723,7.2186,7.2087,7.1549,7.0938,7.0839,7.079,7.079,7.0742,7.0718,7.0135,6.9116,6.802,6.7043,6.6061,6.5256,6.444,6.4367,6.4367,6.4367,6.4367,6.4367,6.4367,6.4367,6.4367,6.4367,6.4367,6.4367,6.4367,6.4639,6.5524,6.7213,6.7701,6.8916,7.0352,7.079,7.079,7.079,7.079,7.079,7.079,7.079,7.079,7.079,7.079,7.079,7.079,7.079,7.079,7.079,7.079,7.079,7.079,7.079,7.079,7.079,7.079,7.079,7.079,7.079,7.079,7.079,7.079,7.079,7.079,7.079,7.079,7.079,7.079,7.079,7.079,7.079,7.079,7.079,7.079,7.079,7.079,7.079,7.079,7.079,7.079,7.079,7.079,7.079,7.079,7.079,7.079,7.079,7.079,7.079,7.079,7.079,7.079,7.079,7.079,7.079,7.079,7.079,7.1011,7.1036,7.0767,7.0938,7.1452,7.128,7.084,7.1378,7.1236,7.2283,7.2308,7.3284,7.448,7.3651,7.3748,7.4554,7.4139,7.3578,7.3089,7.2503,7.2063,7.1574,7.1036,7.079,7.079,7.079,7.079,7.0475,6.9577,6.8459,6.7457,6.6869,6.5842,6.4517,6.4367,6.4367,6.4367,6.4367,6.4367,6.4367,6.4367,6.4367,6.4367,6.4367,6.4367,6.4367,6.437,6.535,6.7091,6.7506,6.8526,7.028,7.079,7.079,7.079,7.079,7.079,7.079,7.079,7.079,7.079,7.079,7.079,7.079,7.079,7.079,7.079,7.079,7.079,7.079,7.079,7.079,7.079,7.079,7.079,7.079,7.079,7.079,7.079,7.079,7.079,7.079,7.079,7.079,7.079,7.079,7.079,7.079,7.079,7.079,7.079,7.079,7.079,7.079,7.079,7.079,7.079,7.079,7.079,7.079,7.079,7.079,7.079,7.079,7.079,7.079,7.079,7.079,7.079,7.079,7.079,7.079,7.079,7.079,7.1084,7.1476,7.1647,7.1721,7.1965,7.2283,7.2381,7.2185,7.2454,7.0018,7.1624,7.1845,7.3235,7.4798,7.3631,7.4092,7.5724,7.4358,7.3849,7.3969,7.3138,7.2552,7.2209,7.1231,7.079,7.079,7.079,7.079,7.062,6.9699,6.8823,6.7972,6.7482,6.6406,6.5082,6.4492,6.4367,6.4367,6.4367,6.4367,6.4367,6.4367,6.4367,6.4367,6.4367,6.4367,6.4367,6.4367,6.5445,6.704,6.753,6.8504,7.05,7.079,7.079,7.079,7.079,7.079,7.079,7.079,7.079,7.079,7.079,7.079,7.079,7.079,7.079,7.079,7.079,7.079,7.079,7.079,7.079,7.079,7.079,7.079,7.079,7.079,7.079,7.079,7.079,7.079,7.079,7.079,7.079,7.079,7.079,7.079,7.079,7.079,7.079,7.079,7.079,7.079,7.079,7.079,7.079,7.079,7.079,7.079,7.079,7.079,7.079,7.079,7.079,7.079,7.079,7.079,7.079,7.079,7.079,7.079,7.079,7.079,7.1133,7.1451,7.1843,7.2283,7.2796,7.3162,7.3235,7.3285,7.3504,7.3626,6.9166,6.9457,7.05,7.2136,7.3437,7.1344,7.3028,7.5903,7.4399,7.4075,7.487,7.4164,7.3163,7.2258,7.1329,7.079,7.079,7.079,7.079,7.0694,7.0475,6.9697,6.8532,6.7774,6.6698,6.5475,6.4667,6.4419,6.4367,6.4367,6.4367,6.4367,6.4367,6.4367,6.4367,6.4367,6.4367,6.4367,6.4367,6.5375,6.6869,6.7335,6.8333,7.0182,7.0571,7.0573,7.0742,7.079,7.079,7.079,7.079,7.079,7.079,7.079,7.079,7.079,7.079,7.079,7.079,7.079,7.079,7.079,7.079,7.079,7.079,7.079,7.079,7.079,7.079,7.079,7.079,7.079,7.079,7.079,7.079,7.079,7.079,7.079,7.079,7.079,7.079,7.079,7.079,7.079,7.079,7.079,7.079,7.079,7.079,7.079,7.079,7.079,7.079,7.079,7.079,7.079,7.079,7.079,7.079,7.079,7.079,7.079,7.079,7.079,7.079,7.106,7.1525,7.2112,7.2723,7.3163,7.3504,7.37,7.4066,7.4505,7.4358,6.7555,6.8262,7.0036,7.1255,7.2046,7.2783,7.4253,7.5842,7.5571,7.5871,7.5966,7.4651,7.3626,7.3064,7.1501,7.0767,7.079,7.079,7.079,7.079,7.079,6.9793,6.8408,6.7728,6.6576,6.5127,6.4541,6.4391,6.4367,6.4367,6.4367,6.4367,6.4367,6.4367,6.4367,6.4367,6.4367,6.4367,6.4416,6.5009,6.6406,6.6574,6.7745,6.9284,6.9748,7.0112,7.0694,7.0742,7.079,7.0742,7.079,7.079,7.079,7.079,7.079,7.079,7.079,7.079,7.079,7.079,7.079,7.079,7.079,7.079,7.079,7.079,7.079,7.079,7.079,7.079,7.079,7.079,7.079,7.079,7.079,7.079,7.079,7.079,7.079,7.079,7.079,7.079,7.079,7.079,7.079,7.079,7.079,7.079,7.079,7.079,7.079,7.079,7.079,7.079,7.079,7.079,7.079,7.079,7.079,7.079,7.079,7.079,7.079,7.079,7.079,7.0913,7.1281,7.1771,7.2626,7.3382,7.3675,7.4139,7.5188,7.5847,7.531,6.6354,6.7235,6.9085,7.006,7.0602,7.1868,7.3317,7.4749,7.5008,7.5316,7.6359,7.4993,7.4383,7.4066,7.216,7.1135,7.1133,7.0913,7.079,7.079,7.079,6.9743,6.8575,6.7772,6.6549,6.5009,6.4545,6.4367,6.4367,6.4367,6.4367,6.4367,6.4367,6.4367,6.4367,6.4367,6.4367,6.4367,6.4367,6.4883,6.579,6.5964,6.6842,6.8435,6.8583,6.9162,7.0159,7.0304,7.0329,7.0329,7.0571,7.0767,7.079,7.079,7.079,7.079,7.079,7.079,7.079,7.079,7.079,7.079,7.079,7.079,7.079,7.079,7.079,7.079,7.079,7.079,7.079,7.079,7.079,7.079,7.079,7.079,7.079,7.079,7.079,7.079,7.079,7.079,7.079,7.079,7.079,7.079,7.079,7.079,7.079,7.079,7.079,7.079,7.079,7.079,7.079,7.079,7.079,7.079,7.079,7.079,7.079,7.079,7.079,7.079,7.079,7.1133,7.1403,7.1551,7.2601,7.3675,7.3822,7.3944,7.5261,7.5774,7.5091,6.5915,6.611,6.7186,6.8191,6.8774,6.7056,6.875,7.1793,7.1185,7.2547,7.5162,7.5261,7.531,7.492,7.3161,7.2233,7.2063,7.1378,7.0961,7.0889,7.0742,7.062,6.9938,6.8282,6.6772,6.5549,6.4716,6.4391,6.4367,6.4367,6.4367,6.4367,6.4367,6.4367,6.4367,6.4367,6.4367,6.4367,6.4367,6.4834,6.572,6.5817,6.6403,6.7457,6.7533,6.8042,6.8945,6.9018,6.902,6.9239,7.0111,7.0645,7.0742,7.079,7.079,7.079,7.079,7.079,7.079,7.079,7.079,7.079,7.079,7.079,7.079,7.079,7.079,7.079,7.079,7.079,7.079,7.079,7.079,7.079,7.079,7.079,7.079,7.079,7.079,7.079,7.079,7.079,7.079,7.079,7.079,7.079,7.079,7.079,7.079,7.079,7.079,7.079,7.079,7.079,7.079,7.079,7.079,7.079,7.079,7.079,7.079,7.079,7.079,7.079,7.084,7.1329,7.1672,7.1721,7.2332,7.2967,7.3382,7.3773,7.4066,7.4188,7.3846,6.4911,6.5054,6.6037,6.6698,6.6963,6.7474,6.8572,7.0108,7.0934,7.2087,7.3434,7.4212,7.4529,7.4334,7.3699,7.3333,7.3186,7.221,7.1768,7.1672,7.1133,7.079,7.0474,6.8477,6.6601,6.5131,6.4517,6.4367,6.4367,6.4367,6.4367,6.4367,6.4367,6.4367,6.4367,6.4367,6.4367,6.4367,6.4367,6.4541,6.4859,6.4932,6.5402,6.6305,6.6433,6.7016,6.7874,6.7384,6.7335,6.8091,6.9089,7.0037,7.0694,7.0767,7.079,7.079,7.079,7.079,7.079,7.079,7.079,7.079,7.079,7.079,7.079,7.079,7.079,7.079,7.079,7.079,7.079,7.079,7.079,7.079,7.079,7.079,7.079,7.079,7.079,7.079,7.079,7.079,7.079,7.079,7.079,7.079,7.079,7.079,7.079,7.079,7.079,7.079,7.079,7.079,7.079,7.079,7.079,7.079,7.079,7.079,7.079,7.079,7.079,7.079,7.079,7.1231,7.1304,7.1476,7.1696,7.1843,7.2186,7.2748,7.3334,7.3236,7.282,6.3669,6.4423,6.5106,6.5402,6.5622,6.6942,6.7752,6.8238,6.9967,7.1209,7.194,7.2942,7.3553,7.3748,7.3504,7.3553,7.3748,7.2479,7.2015,7.1965,7.0475,6.9818,6.972,6.7967,6.621,6.496,6.4496,6.4367,6.4367,6.4367,6.4367,6.4367,6.4367,6.4367,6.4367,6.4367,6.4367,6.4367,6.4367,6.4367,6.4367,6.4367,6.4667,6.5305,6.5424,6.5695,6.6427,6.6113,6.6256,6.6964,6.7947,6.9042,7.0062,7.0571,7.0742,7.079,7.079,7.079,7.079,7.079,7.079,7.079,7.079,7.079,7.079,7.079,7.079,7.079,7.079,7.079,7.079,7.079,7.079,7.079,7.079,7.079,7.079,7.079,7.079,7.079,7.079,7.079,7.079,7.079,7.079,7.079,7.079,7.079,7.079,7.079,7.079,7.079,7.079,7.079,7.079,7.079,7.079,7.079,7.079,7.079,7.079,7.079,7.079,7.079,7.079,7.084,7.084,7.0962,7.1183,7.1379,7.1452,7.1916,7.2576,7.2479,7.1989,6.2089,6.422,6.4367,6.4489,6.4538,6.4737,6.5106,6.6113,6.7211,6.8817,7.0402,7.1843,7.2796,7.3407,7.2943,7.2967,7.3285,7.1796,7.138,7.1867,6.9211,6.8335,6.8874,6.7016,6.589,6.5695,6.4789,6.4367,6.4367,6.4367,6.4367,6.4367,6.4367,6.4367,6.4367,6.4367,6.4367,6.4367,6.4367,6.4367,6.4367,6.4367,6.4395,6.4444,6.437,6.4346,6.4346,6.5158,6.55,6.5768,6.6666,6.7903,6.8827,7.0111,7.079,7.079,7.079,7.079,7.079,7.079,7.079,7.079,7.079,7.079,7.079,7.079,7.079,7.079,7.079,7.079,7.079,7.079,7.079,7.079,7.079,7.079,7.079,7.079,7.079,7.079,7.079,7.079,7.079,7.079,7.079,7.079,7.079,7.079,7.079,7.079,7.079,7.079,7.079,7.079,7.079,7.0767,7.0742,7.0742,7.0742,7.079,7.079,7.079,7.079,7.079,7.079,7.079,7.079,7.0791,7.0987,7.0987,7.0913,7.1109,7.1452,7.1574,7.1133,6.065,6.4071,6.4367,6.4367,6.4367,6.4367,6.4566,6.4911,6.5939,6.6793,6.7865,7.0158,7.1426,7.1843,7.2918,7.3236,7.2674,7.1403,7.0938,7.1061,6.9382,6.8288,6.7776,6.6552,6.5915,6.572,6.4813,6.4367,6.4367,6.4367,6.4367,6.4367,6.4367,6.4367,6.4367,6.4367,6.4367,6.4367,6.4367,6.4367,6.4367,6.4367,6.4367,6.4224,6.3593,6.284,6.2152,6.2421,6.2616,6.2708,6.3345,6.473,6.6917,6.9305,7.079,7.079,7.0742,7.079,7.079,7.079,7.079,7.079,7.079,7.079,7.079,7.079,7.079,7.079,7.079,7.079,7.079,7.079,7.079,7.079,7.079,7.079,7.079,7.079,7.079,7.079,7.079,7.079,7.079,7.079,7.079,7.079,7.079,7.079,7.079,7.079,7.079,7.079,7.079,7.079,7.079,7.062,7.0547,7.0669,7.0694,7.0742,7.079,7.079,7.079,7.079,7.079,7.079,7.079,7.079,7.079,7.0791,7.079,7.079,7.079,7.079,7.084,5.8952,6.1857,6.3606,6.4367,6.4367,6.4367,6.4367,6.4416,6.5057,6.5546,6.6254,6.8058,6.9427,7.0159,7.1162,7.1163,7.0504,6.9866,6.9769,6.9964,6.8577,6.775,6.7262,6.5964,6.5326,6.5253,6.4642,6.4367,6.4367,6.4367,6.4367,6.4367,6.4367,6.4367,6.4367,6.4367,6.4367,6.4367,6.4367,6.4367,6.4367,6.4367,6.4126,6.369,6.2641,6.1351,5.9968,5.9948,5.9904,5.9888,5.9511,6.0772,6.3675,6.5286,6.676,6.8542,6.8871,6.9432,7.0508,7.079,7.079,7.079,7.079,7.079,7.079,7.079,7.079,7.079,7.079,7.079,7.079,7.079,7.079,7.079,7.079,7.079,7.079,7.079,7.079,7.079,7.079,7.079,7.079,7.079,7.079,7.079,7.079,7.079,7.079,7.079,7.079,7.079,7.079,7.079,7.0767,7.0475,7.0329,7.0426,7.0378,7.0233,7.0669,7.0742,7.0645,7.0645,7.0742,7.079,7.079,7.079,7.079,7.079,7.079,7.079,7.079,7.079,7.079,5.7073,5.7873,6.2115,6.3837,6.4175,6.4259,6.4367,6.4367,6.4395,6.4886,6.5716,6.6061,6.7018,6.8729,6.8018,6.7482,6.7555,6.7728,6.8191,6.8557,6.7067,6.6576,6.7213,6.5427,6.4562,6.4667,6.459,6.4468,6.4367,6.4367,6.4367,6.4367,6.4367,6.4367,6.4367,6.4367,6.4367,6.4367,6.4367,6.4367,6.4367,6.4248,6.3617,6.2429,6.1473,6.0117,5.8431,5.8068,5.8053,5.7933,5.6221,5.6665,5.988,5.8869,6.0274,6.4552,6.5292,6.6729,6.9639,7.0179,7.0365,7.0599,7.0645,7.079,7.079,7.079,7.079,7.079,7.079,7.079,7.079,7.079,7.079,7.079,7.079,7.079,7.079,7.079,7.079,7.079,7.079,7.079,7.079,7.079,7.079,7.079,7.079,7.079,7.079,7.079,7.079,7.079,7.079,7.0694,7.0451,6.9624,6.9527,6.9696,6.9382,6.9191,7.0015,7.062,7.0571,7.0547,7.0426,7.0451,7.0694,7.0742,7.0742,7.079,7.079,7.0742,7.079,7.079,7.0935,5.557,5.7207,5.8491,6.0086,6.1791,6.356,6.4367,6.4367,6.4367,6.4517,6.4859,6.5594,6.6235,6.665,6.6454,6.6769,6.7484,6.824,6.7947,6.6894,6.7776,6.7482,6.6384,6.643,6.6186,6.5549,6.5448,6.5057,6.4416,6.4367,6.4367,6.4367,6.4367,6.4367,6.4367,6.4367,6.4367,6.4367,6.4367,6.4367,6.4224,6.3519,6.2205,6.0526,6.0063,5.9658,5.9066,5.907,5.8641,5.7705,5.6716,5.6794,5.8005,5.723,5.8179,6.1278,6.1671,6.2895,6.5604,6.6515,6.7653,6.9304,7.0304,7.079,7.079,7.079,7.079,7.0694,7.079,7.0694,7.079,7.079,7.079,7.079,7.079,7.079,7.079,7.079,7.079,7.079,7.079,7.079,7.079,7.079,7.0718,7.0694,7.0718,7.079,7.079,7.0669,7.0694,7.079,7.0718,7.0085,6.8648,6.8067,6.8018,6.8211,6.826,6.7972,6.8211,6.8357,6.8431,6.9478,6.948,6.9626,7.0109,7.0498,7.0645,7.0718,7.0694,7.062,7.0474,7.0738,7.0989,5.5908,5.7318,5.9258,6.0909,6.2217,6.369,6.4367,6.4367,6.4367,6.4367,6.4419,6.496,6.5253,6.5253,6.5277,6.5573,6.6256,6.7262,6.7018,6.6137,6.7557,6.775,6.6601,6.6796,6.6528,6.5915,6.5472,6.496,6.4464,6.4367,6.4367,6.4367,6.4367,6.4367,6.4367,6.4367,6.4367,6.4367,6.4367,6.4081,6.3519,6.2112,6.0702,5.9555,5.9043,5.8638,5.8181,5.7681,5.7332,5.689,5.4586,5.4036,5.5681,5.3811,5.3727,5.5891,5.7348,5.9878,6.3675,6.4527,6.5857,6.8228,6.8992,6.9622,6.9966,7.0062,6.9819,6.95,6.9401,6.9622,6.9941,7.0062,7.0233,7.0646,7.079,7.079,7.079,7.079,7.079,7.079,7.079,7.079,7.079,7.079,7.0548,7.0111,7.0062,6.9722,6.9427,6.9403,6.9403,6.9403,6.9403,6.8792,6.7845,6.7186,6.7113,6.7262,6.7116,6.7091,6.736,6.746,6.7603,6.824,6.8362,6.8699,6.9427,6.9378,6.9403,6.9305,6.9354,6.9403,6.938,7.0072,7.1004,5.6783,5.754,6.1472,6.3774,6.3882,6.4342,6.4444,6.4391,6.4468,6.4492,6.4517,6.437,6.437,6.4367,6.4416,6.444,6.452,6.5448,6.5845,6.5842,6.6918,6.743,6.714,6.6601,6.6088,6.5793,6.5179,6.4716,6.437,6.4367,6.4367,6.4367,6.4367,6.4367,6.4367,6.4367,6.4367,6.4367,6.4224,6.3593,6.2283,6.0477,5.9428,5.9331,5.8423,5.7473,5.6788,5.5571,5.5414,5.5567,5.1507,5.0251,5.2437,4.9641,4.8197,4.9866,5.2662,5.6674,6.1606,6.3012,6.4277,6.6645,6.7259,6.7967,6.8754,6.8776,6.8337,6.7823,6.753,6.7994,6.8729,6.8874,6.9311,7.0257,7.0475,7.0645,7.0718,7.079,7.079,7.079,7.079,7.0669,7.05,7.0451,7.0039,6.9042,6.8874,6.8652,6.8016,6.7821,6.7747,6.7308,6.7186,6.7113,6.6921,6.6284,6.6137,6.6747,6.633,6.6183,6.6552,6.6872,6.7235,6.714,6.7311,6.7433,6.7579,6.746,6.7628,6.7943,6.7869,6.7603,6.7723,6.8868,7.0391,5.4455,5.4684,5.7563,5.9826,6.1688,6.439,6.5082,6.4444,6.5158,6.5549,6.5469,6.4642,6.4367,6.4367,6.4367,6.4367,6.4492,6.5448,6.5472,6.4935,6.6601,6.704,6.643,6.7703,6.7457,6.6064,6.6479,6.5893,6.4513,6.4367,6.4367,6.4367,6.4367,6.4367,6.4367,6.4367,6.4367,6.4318,6.3446,6.2043,6.0238,5.9726,5.9087,5.8369,5.8032,5.8233,5.8692,5.8513,5.724,5.4814,5.3534,5.1608,4.9096,4.793,4.7605,4.7932,4.8215,4.9186,5.1251,5.5986,6.0296,6.3318,6.5936,6.7555,6.7703,6.7067,6.6796,6.736,6.7289,6.7457,6.7701,6.7776,6.8238,6.9215,6.9408,6.9746,7.0596,7.079,7.079,7.079,7.079,7.0353,6.9652,6.9386,6.8994,6.8116,6.7801,6.775,6.753,6.7435,6.6677,6.5646,6.5033,6.5155,6.5009,6.4834,6.4908,6.4914,6.4862,6.4981,6.5057,6.5131,6.5326,6.611,6.6281,6.6479,6.7238,6.7384,6.7311,6.7216,6.7189,6.7311,6.7262,6.7848,6.8651,5.7178,5.784,5.9658,6.1191,6.2458,6.4358,6.5131,6.5131,6.5671,6.5622,6.5134,6.4615,6.4367,6.4367,6.4367,6.4367,6.4391,6.4911,6.4886,6.4492,6.6012,6.6452,6.6037,6.7064,6.7016,6.5964,6.5991,6.5451,6.4419,6.4367,6.4367,6.4367,6.4367,6.4367,6.4367,6.4367,6.4077,6.3474,6.1522,5.9648,5.8019,5.7526,5.6989,5.6446,5.6885,5.7648,5.8697,5.8238,5.7357,5.5974,5.4967,5.3031,5.0006,4.8853,4.8038,4.7445,4.7017,4.685,4.6884,5.1334,5.5636,5.9469,6.2613,6.4202,6.3862,6.3262,6.3405,6.4381,6.497,6.5454,6.5967,6.6476,6.714,6.8191,6.8288,6.8577,6.9134,6.9232,6.9232,6.9256,6.9256,6.899,6.8362,6.8311,6.802,6.7579,6.6991,6.6503,6.604,6.5991,6.5573,6.4639,6.4367,6.4367,6.4391,6.4367,6.4367,6.4367,6.4367,6.4367,6.4367,6.4391,6.459,6.5057,6.5225,6.5424,6.5839,6.6058,6.6012,6.6015,6.6012,6.6037,6.6012,6.6058,6.6776,6.0718,6.1854,6.3257,6.3955,6.4126,6.4102,6.4764,6.589,6.5915,6.5424,6.452,6.4248,6.4126,6.4077,6.3955,6.3857,6.3882,6.3882,6.3903,6.3931,6.4939,6.5427,6.5451,6.5744,6.5817,6.5622,6.4935,6.4513,6.437,6.4367,6.4367,6.4367,6.4367,6.4367,6.4367,6.4367,6.3934,6.3149,6.0124,5.7955,5.6812,5.5669,5.4884,5.4511,5.558,5.6501,5.7026,5.6483,5.6378,5.6725,5.5113,5.3466,5.186,4.9627,4.8163,4.7212,4.6887,4.6505,4.6003,4.79,5.0918,5.5086,5.8189,5.9762,5.9512,5.9502,5.9916,6.0956,6.201,6.2836,6.3784,6.4768,6.5771,6.6796,6.7116,6.7311,6.7577,6.7579,6.7603,6.7628,6.7435,6.7506,6.7286,6.7213,6.7164,6.6894,6.6134,6.5399,6.4712,6.4224,6.4077,6.3931,6.3903,6.3882,6.3638,6.3857,6.3687,6.3861,6.3756,6.3613,6.361,6.3613,6.3735,6.4032,6.4081,6.4203,6.4489,6.4367,6.4517,6.459,6.4615,6.4541,6.459,6.4566,6.5003,5.8185,5.8575,6.0714,6.2148,6.2893,6.2917,6.4036,6.5915,0.0,0.0,0.0,6.3698,6.2893,6.2864,6.1986,6.1635,6.1615,6.1591,6.164,6.164,6.2673,6.3161,6.3259,6.5036,6.5448,6.4663,6.5301,6.5179,6.4391,6.4367,6.4367,6.4367,6.4367,6.4367,6.4367,6.4367,6.4935,6.5915,6.2999,6.0923,5.9855,5.8177,5.6056,5.3381,5.5166,5.5079,5.2788,5.4915,5.4655,5.1447,5.1725,5.0747,4.7871,4.5817,4.5024,4.555,4.4256,4.3641,4.4173,4.5159,4.6985,4.9787,5.3729,5.6971,5.9347,5.9502,5.9916,6.0936,6.12,6.1396,6.1591,6.2571,6.3645,6.4764,6.5646,6.6482,6.7284,6.7435,6.7335,6.7435,6.736,6.7162,6.633,6.6205,6.5887,6.5106,6.4859,6.4517,6.4273,6.3602,6.2828,6.2142,6.2009,6.1733,6.1664,6.1737,6.164,6.1811,6.1733,6.1615,6.1615,6.1615,6.1957,6.2767,6.2893,6.3279,6.4102,6.422,6.4367,6.4367,6.4367,6.4367,6.4367,6.4367,6.4474,5.9482,0.0,6.2216,6.3027,0.0,6.3495,6.3743,6.4186,6.3666,6.3401,6.3352,6.2279,6.177,6.1791,6.1274,6.1049,6.1049,6.1049,6.1049,6.1054,6.1571,6.177,6.1819,6.2913,6.3426,6.3474,6.3987,6.4276,6.4367,6.4367,6.4367,6.4367,6.4367,6.4214,6.4003,6.5264,6.5911,6.5879,6.3324,6.0761,5.8268,5.7286,5.54,5.2456,5.3779,0.0,0.0,0.0,0.0,0.0,0.0,0.0,0.0,0.0,0.0,4.5113,4.3273,4.2417,4.2929,4.3333,4.4938,4.818,5.0977,5.2732,5.3112,5.6057,5.7799,5.7813,5.9326,6.0253,6.0258,6.1161,6.2055,6.2596,6.3617,6.4405,6.4942,6.5524,6.5866,6.589,6.5866,6.5716,6.5155,6.5106,6.4883,6.4444,6.4367,6.4151,6.3577,6.3278,6.3019,6.2484,6.1755,6.1069,6.1049,6.1049,6.1074,6.1049,6.1049,6.1049,6.1049,6.1049,6.1176,6.1644,6.1815,6.1937,6.2563,6.2665,6.2856,6.3324,6.345,6.3324,6.2759,6.2685,6.3188,6.0277,6.2607,6.3201,6.3687,6.398,6.3593,6.3027,6.2254,6.1376,6.1049,6.1005,6.0614,6.0302,6.0131,6.0107,6.0151,6.0131,6.0346,6.0468,6.0468,6.0639,6.0761,6.0761,6.0932,6.1453,6.2258,6.2307,6.2791,6.3711,6.3711,6.3788,6.4028,6.3983,6.4117,6.4422,0.0,0.0,0.0,6.3317,6.0725,5.7535,5.6507,5.4627,5.1804,5.2592,0.0,5.2209,5.2551,5.3047,5.3688,5.35,0.0,0.0,0.0,0.0,0.0,0.0,0.0,0.0,0.0,0.0,0.0,4.8468,4.8841,4.758,5.218,5.4849,5.3891,5.6495,5.8263,5.8301,5.9375,6.0204,6.0468,6.138,6.2088,6.2327,6.3129,6.3809,6.398,6.4008,6.4077,6.4363,6.45,6.4605,6.4568,6.4366,6.3897,6.3201,6.3644,6.3703,6.3146,6.182,6.0893,6.0502,6.0346,6.0268,6.0468,6.0463,6.0395,6.0341,6.039,6.0419,6.0761,6.0721,6.0766,6.1034,6.1049,6.142,6.2132,6.2307,6.2035,6.1229,6.1074,6.2058,5.6429,5.6481,5.903,6.1141,6.2673,6.0868,6.0546,6.1205,6.1103,6.1049,6.0932,5.9125,5.7764,5.6805,5.6781,5.68,5.6854,5.7861,5.832,5.8374,5.9233,5.9653,5.9721,6.0595,6.1103,6.1205,6.1229,6.1342,6.1444,6.1469,6.1933,6.2795,6.284,6.4234,6.6802,6.6946,6.6904,6.68,6.4965,6.3772,6.3213,5.9138,5.5466,5.2404,5.2754,5.177,4.9044,5.0687,5.1281,5.0418,4.9499,4.9395,5.0065,4.7326,4.4729,0.0,4.2279,0.0,0.0,0.0,0.0,0.0,0.0,0.0,0.0,5.0523,5.1632,5.0451,5.2534,5.3877,5.3877,5.5629,5.7233,5.8246,5.9258,6.0253,6.1103,6.1351,6.1811,6.2718,6.2819,6.3226,6.4178,6.4969,6.5333,6.5322,6.4618,6.4185,6.4521,6.4714,6.3921,6.1286,6.0827,6.0393,5.8856,5.8377,5.8301,5.832,5.832,5.8344,5.8301,5.832,5.8618,5.9404,5.9599,5.996,6.0907,6.0976,6.1029,6.1156,6.1107,6.101,6.0907,6.0878,6.173,5.3351,5.4436,5.739,5.9111,5.996,5.9014,5.8906,5.9296,5.9321,5.9296,5.9272,5.832,5.7282,5.6165,5.5556,5.533,5.5336,5.5842,5.6098,5.6129,5.6592,5.6794,5.6818,5.7251,5.8124,5.9296,5.9321,5.9906,6.0981,6.1049,6.1293,6.1717,6.1742,6.2634,6.4409,6.5349,6.6924,6.9142,6.772,6.5778,6.3404,6.0567,5.7641,5.4662,5.3871,5.2532,5.0572,5.0529,5.0305,4.9792,4.8752,4.8663,4.9621,4.5666,4.3443,0.0,0.0,0.0,0.0,0.0,0.0,0.0,0.0,0.0,0.0,0.0,4.6886,4.8759,5.2216,5.4128,5.3558,5.4329,5.5305,5.6318,5.5608,5.5952,5.813,5.8911,5.9736,6.0746,6.1376,6.2309,6.3803,6.4338,6.4912,6.5992,6.5542,6.5297,6.5956,6.5788,6.4913,6.3084,6.2698,6.1599,5.7981,5.6745,5.608,5.6104,5.6104,5.6104,5.608,5.608,5.6403,5.7366,5.7653,5.7989,5.9057,5.9301,5.9521,5.9814,5.9233,5.8672,5.9155,5.9321,5.9866,5.15,5.3148,5.4649,5.5537,5.5976,5.5756,5.5927,5.6385,5.6434,5.6556,5.6757,5.6507,5.5763,5.4563,5.3322,5.3005,5.3493,5.3762,5.4152,5.4622,5.4622,5.4622,5.4622,5.4622,5.5519,5.7032,5.6904,5.7715,5.9467,5.9516,5.9375,5.9188,5.9181,5.9834,6.1189,6.2959,6.6027,7.0469,6.9205,6.6783,6.3275,6.1253,5.9027,5.6535,5.4536,5.296,5.1832,5.0045,4.9165,4.9329,4.7685,4.7264,4.8475,4.4078,0.0,0.0,0.0,0.0,0.0,0.0,0.0,0.0,0.0,4.1413,3.961,0.0,4.2769,0.0,5.0379,5.2929,5.2669,5.2881,0.0,0.0,5.2344,5.2097,5.4372,5.569,5.7026,5.8507,5.938,6.0865,6.3447,6.3921,6.4814,6.6892,6.6975,6.6837,6.6996,6.659,6.5787,6.418,6.3724,6.2255,5.8025,5.6035,5.5196,5.4669,5.4647,5.4622,5.4647,5.4622,5.4866,5.5586,5.5824,5.6141,5.694,5.7172,5.7471,5.8013,5.6995,5.6068,5.6934,5.7373,5.8091,5.1577,5.1618,4.8755,4.8686,5.0288,4.9402,5.0134,5.1958,5.2023,5.2561,5.3381,5.2439,5.1371,5.015,4.8198,0.0,5.0174,5.1249,5.2747,5.4622,5.4622,5.4622,5.4622,5.4598,5.4713,5.4842,5.3901,5.4048,5.5153,5.5177,5.4658,5.3734,5.3836,5.5552,5.868,6.0134,6.3547,6.9055,6.7883,6.6483,6.4895,6.1058,5.836,5.6942,5.3983,5.1811,5.0506,4.82,4.7343,4.8126,4.4488,4.3191,4.5054,0.0,0.0,0.0,0.0,0.0,0.0,0.0,0.0,0.0,0.0,0.0,0.0,0.0,0.0,4.0832,4.4131,0.0,4.8993,5.0144,0.0,0.0,0.0,5.0255,5.0296,5.1339,5.3179,5.6135,0.0,0.0,6.3167,6.4369,6.58,6.8463,6.883,6.8334,6.7198,6.6943,6.5921,6.3032,6.2582,6.1279,5.7938,5.6933,5.6148,5.4714,5.4622,5.4469,5.4494,5.4518,5.4591,5.472,5.472,5.4818,5.4884,5.4909,5.4891,5.5031,5.4884,5.4769,5.5055,5.572,5.6878,4.7682,4.7474,4.6156,4.6054,4.6849,4.7157,4.8149,4.954,5.0182,5.0687,5.1095,5.143,5.0234,4.7878,4.7762,0.0,0.0,0.0,4.8328,4.98,4.9808,5.015,5.071,5.0727,5.1443,5.2673,5.2324,5.2991,5.4622,5.4622,5.2154,4.7553,0.0,0.0,5.4462,5.8443,6.2099,6.5318,6.6544,6.6049,6.4012,6.2328,6.0487,5.8369,5.4622,5.209,5.0941,4.8181,4.5943,4.4366,4.2113,4.0916,0.0,0.0,0.0,0.0,0.0,0.0,0.0,0.0,0.0,0.0,0.0,3.6546,3.4218,0.0,0.0,0.0,3.9208,4.1995,4.5862,4.7885,0.0,0.0,0.0,0.0,0.0,0.0,0.0,5.1135,5.3085,5.5896,5.9991,6.0797,6.1772,6.4018,6.5684,6.6194,6.4914,0.0,6.5183,6.3182,6.2877,6.1784,5.8683,5.6837,5.5157,5.3485,5.2381,5.1933,5.2593,5.2722,5.2966,5.3511,5.3664,5.3877,5.45,5.2998,5.1892,5.26,5.3218,5.3901,5.4536,5.4922,5.543,4.42,0.0,0.0,0.0,0.0,4.4586,4.5583,4.6927,4.7341,4.8004,4.9028,4.9601,0.0,0.0,0.0,0.0,0.0,0.0,4.5592,4.6636,4.6947,4.7483,4.8215,4.8239,4.9027,5.05,5.0231,5.0891,5.2273,5.2392,4.9407,4.3713,0.0,0.0,0.0,0.0,6.1377,6.3714,6.6354,6.6631,6.4363,6.3631,6.2169,5.9923,5.5047,5.1883,5.0782,4.7198,4.4025,4.144,3.9476,0.0,0.0,0.0,0.0,0.0,0.0,0.0,0.0,0.0,0.0,0.0,0.0,0.0,0.0,0.0,0.0,0.0,0.0,0.0,4.3581,4.6367,4.7524,0.0,0.0,0.0,0.0,0.0,0.0,0.0,0.0,0.0,5.5083,5.6223,5.7894,0.0,0.0,6.4216,6.33,6.3649,6.3562,6.2253,6.1745,0.0,5.8187,5.6141,5.4165,5.2046,5.0726,5.0069,5.0484,5.0549,5.0817,5.1533,5.1655,5.1883,5.2517,5.0841,4.9735,5.0337,5.1135,5.1907,5.2629,5.3371,5.3706,0.0,0.0,0.0,0.0,0.0,0.0,0.0,0.0,4.2605,4.4032,0.0,4.6068,0.0,0.0,0.0,0.0,0.0,4.4717,0.0,0.0,4.7649,4.8166,4.8158,4.8149,4.8231,4.8224,4.727,4.6861,4.6892,4.7027,0.0,0.0,0.0,0.0,0.0,0.0,6.1453,6.4863,6.7782,6.8577,6.706,6.4616,6.2718,6.1226,5.4908,5.0852,4.9329,4.4655,4.1467,4.0257,3.6287,0.0,0.0,0.0,0.0,0.0,0.0,0.0,0.0,0.0,0.0,0.0,0.0,0.0,0.0,0.0,0.0,0.0,0.0,0.0,0.0,4.5777,0.0,0.0,0.0,0.0,0.0,0.0,0.0,0.0,0.0,0.0,4.8303,5.1202,5.5168,6.0296,0.0,0.0,0.0,0.0,6.0903,5.9665,5.8484,5.7194,5.5477,5.5117,5.397,5.0963,0.0,0.0,4.8586,4.8368,4.8505,4.8386,4.8587,4.8386,4.8513,4.8387,4.8291,4.8349,4.8534,4.8442,4.8588,5.041,5.1719,0.0,0.0,0.0,0.0,0.0,0.0,0.0,0.0,0.0,4.3077,4.4913,4.4592,0.0,0.0,0.0,0.0,0.0,0.0,0.0,0.0,4.6116,4.5784,4.4235,4.5024,4.4926,0.0,4.4454,4.3147,0.0,0.0,0.0,0.0,0.0,0.0,0.0,0.0,5.9827,6.0404,6.6246,6.8295,6.6049,6.4195,6.226,6.0167,5.6945,5.2408,4.6399,4.3601,4.0916,0.0,0.0,0.0,0.0,0.0,0.0,0.0,0.0,0.0,0.0,0.0,0.0,0.0,0.0,0.0,0.0,0.0,0.0,0.0,0.0,0.0,0.0,0.0,4.4311,0.0,0.0,0.0,0.0,0.0,0.0,0.0,0.0,0.0,4.6503,4.9809,5.3078,5.5858,5.8116,5.978,6.0538,0.0,0.0,0.0,0.0,0.0,0.0,0.0,5.4508,5.2655,5.1465,5.055,5.0067,5.0561,5.0683,4.9798,0.0,0.0,4.6848,4.701,4.7459,4.7445,4.8673,4.9476,4.861,4.9779,5.0659,0.0,0.0,0.0,0.0,0.0,0.0,0.0,0.0,0.0,4.2432,4.3896,0.0,0.0,0.0,0.0,0.0,0.0,0.0,0.0,0.0,0.0,0.0,4.1418,4.2259,0.0,0.0,0.0,0.0,0.0,0.0,0.0,0.0,0.0,0.0,0.0,0.0,5.9712,5.8648,6.6511,6.9458,6.6679,6.4811,6.283,6.0764,5.8542,5.361,4.5754,0.0,0.0,0.0,0.0,0.0,0.0,0.0,0.0,0.0,0.0,0.0,0.0,0.0,0.0,0.0,0.0,0.0,0.0,0.0,0.0,0.0,0.0,0.0,0.0,0.0,4.2216,0.0,0.0,0.0,0.0,0.0,0.0,0.0,0.0,0.0,0.0,0.0,5.0445,5.2535,5.4679,5.6541,5.7762,5.7913,5.8063,0.0,0.0,0.0,0.0,0.0,0.0,0.0,0.0,0.0,0.0,0.0,0.0,0.0,0.0,4.809,4.5889,4.569,4.5986,4.6449,0.0,0.0,0.0,0.0,0.0,0.0,0.0,0.0,0.0,0.0,0.0,0.0,0.0,0.0,0.0,4.4081,0.0,0.0,4.4125,0.0,0.0,0.0,0.0,0.0,0.0,0.0,0.0,0.0,0.0,0.0,0.0,0.0,0.0,0.0,0.0,0.0,0.0,0.0,0.0,0.0,0.0,6.1115,5.9555,6.8638,7.2046,6.9134,6.6443,6.436,6.3014,5.9359,5.4227,4.7729,0.0,0.0,0.0,0.0,0.0,0.0,0.0,0.0,0.0,0.0,0.0,0.0,0.0,0.0,0.0,0.0,0.0,0.0,0.0,0.0,0.0,0.0,0.0,0.0,0.0,0.0,4.2152,4.3335,4.347,0.0,0.0,0.0,0.0,0.0,0.0,0.0,0.0,0.0,0.0,5.2367,5.3723,5.502,5.5212,5.5009,5.3996,5.476,5.5465,5.542,5.5358,5.4433,0.0,0.0,0.0,0.0,0.0,0.0,0.0,0.0,0.0,0.0,0.0,0.0,0.0,0.0,0.0,0.0,0.0,0.0,0.0,0.0,0.0,0.0,0.0,0.0,0.0,0.0,0.0,0.0,0.0,0.0,0.0,0.0,0.0,0.0,0.0,0.0,0.0,0.0,0.0,0.0,0.0,0.0,0.0,0.0,0.0,0.0,0.0,0.0,0.0,0.0,0.0,0.0,0.0,0.0,6.0731,5.8191,6.738,7.0701,6.7764,6.4912,6.2924,6.1628,5.8778,5.5026,0.0,0.0,0.0,0.0,0.0,0.0,0.0,0.0,0.0,0.0,0.0,0.0,0.0,0.0,0.0,0.0,0.0,0.0,0.0,0.0,0.0,0.0,0.0,0.0,0.0,0.0,0.0,0.0,4.3053,4.2598,4.2229,0.0,0.0,0.0,0.0,0.0,0.0,0.0,0.0,0.0,0.0,5.2386,5.3697,5.4635,5.4836,5.3821,5.4641,5.5136,5.4294,5.4096,5.3791,5.3068,0.0,0.0,0.0,0.0,0.0,0.0,0.0,0.0,0.0,0.0,0.0,0.0,0.0,0.0,0.0,0.0,0.0,0.0,0.0,0.0,0.0,0.0,0.0,0.0,0.0,0.0,0.0,0.0,0.0,0.0,0.0,0.0,0.0,0.0,0.0,0.0,0.0,0.0,0.0,0.0,0.0,0.0,0.0,0.0,0.0,0.0,0.0,0.0,0.0,0.0,0.0,0.0,0.0,5.9724,5.6863,6.5909,6.9211,6.6317,6.398,6.2465,6.1729,5.8684,5.4808,0.0,0.0,0.0,0.0,0.0,0.0,0.0,0.0,0.0,0.0,0.0,0.0,0.0,0.0,0.0,0.0,0.0,0.0,0.0,0.0,0.0,0.0,0.0,0.0,0.0,0.0,0.0,0.0,4.0581,4.0706,4.0668,0.0,0.0,0.0,0.0,0.0,0.0,0.0,0.0,0.0,0.0,5.0721,5.1512,5.2747,0.0,0.0,5.3159,5.4113,5.2982,5.3498,5.3442,5.1642,5.1812,0.0,0.0,0.0,0.0,0.0,0.0,0.0,0.0,0.0,0.0,0.0,0.0,0.0,0.0,0.0,0.0,0.0,0.0,0.0,0.0,0.0,0.0,0.0,0.0,0.0,0.0,0.0,0.0,0.0,0.0,0.0,0.0,0.0,0.0,0.0,0.0,0.0,0.0,0.0,0.0,0.0,0.0,0.0,0.0,0.0,0.0,0.0,0.0,0.0,0.0,0.0,0.0,0.0,5.5965,6.444,6.7743,6.4982,6.3444,6.2576,6.2424,5.8769,5.3909,0.0,0.0,0.0,0.0,0.0,0.0,0.0,0.0,0.0,0.0,0.0,0.0,0.0,0.0,0.0,0.0,0.0,0.0,0.0,0.0,0.0,0.0,0.0,0.0,0.0,0.0,0.0,0.0,0.0,0.0,0.0,0.0,0.0,0.0,0.0,0.0,0.0,0.0,0.0,0.0,0.0,4.9091,4.9081,5.0061,5.0101,0.0,5.0592,5.2339,5.137,5.3062,5.2976,4.8463,0.0,0.0,0.0,0.0,0.0,0.0,0.0,0.0,0.0,0.0,0.0,0.0,0.0,0.0,0.0,0.0,0.0,0.0,0.0,0.0,0.0,0.0,0.0,0.0,0.0,0.0,0.0,0.0,0.0,0.0,0.0,0.0,0.0,0.0,0.0,0.0,0.0,0.0,0.0,0.0,0.0,0.0,0.0,0.0,0.0,0.0,0.0,0.0,0.0,0.0,0.0,0.0,0.0,0.0,5.7177,6.3996,6.6701,6.4936,6.248,6.0662,5.9582,5.7737,0.0,0.0,0.0,0.0,0.0,0.0,0.0,0.0,0.0,0.0,0.0,0.0,0.0,0.0,0.0,0.0,0.0,0.0,0.0,0.0,0.0,0.0,0.0,0.0,0.0,0.0,0.0,3.5167,0.0,0.0,0.0,0.0,0.0,0.0,0.0,0.0,0.0,0.0,0.0,0.0,0.0,0.0,5.0131,5.0163,4.9764,4.8991,0.0,0.0,4.8725,4.8332,4.8897,4.919,0.0,0.0,0.0,0.0,0.0,0.0,0.0,0.0,0.0,0.0,0.0,0.0,0.0,0.0,0.0,0.0,0.0,0.0,0.0,0.0,0.0,0.0,0.0,0.0,0.0,0.0,0.0,0.0,0.0,0.0,0.0,0.0,0.0,0.0,0.0,0.0,0.0,0.0,0.0,0.0,0.0,0.0,0.0,0.0,0.0,0.0,0.0,0.0,0.0,0.0,0.0,0.0,0.0,0.0,5.6884,5.6812,6.1664,6.4167,6.3894,6.1198,5.9347,5.8549,5.6611,5.2993,0.0,0.0,0.0,0.0,0.0,0.0,0.0,0.0,0.0,0.0,0.0,0.0,0.0,0.0,0.0,0.0,0.0,0.0,0.0,0.0,0.0,0.0,0.0,0.0,0.0,0.0,0.0,0.0,0.0,0.0,0.0,0.0,0.0,0.0,0.0,0.0,0.0,0.0,0.0,0.0,0.0,0.0,4.9863,4.8884,0.0,0.0,0.0,4.7096,4.6697,0.0,0.0,0.0,0.0,0.0,0.0,0.0,0.0,0.0,0.0,0.0,0.0,0.0,0.0,0.0,0.0,0.0,0.0,0.0,0.0,0.0,0.0,0.0,0.0,0.0,0.0,0.0,0.0,0.0,0.0,0.0,0.0,0.0,0.0,0.0,0.0,0.0,0.0,0.0,0.0,0.0,0.0,0.0,0.0,0.0,0.0,0.0,0.0,0.0,0.0,0.0,0.0,0.0,0.0,0.0,0.0,0.0,5.5704,5.8968,6.142,6.2829,6.007,5.8399,5.8211,5.5522,5.1824,0.0,0.0,0.0,0.0,0.0,0.0,0.0,0.0,0.0,0.0,0.0,0.0,0.0,0.0,0.0,0.0,0.0,0.0,0.0,0.0,0.0,0.0,0.0,0.0,0.0,0.0,0.0,0.0,0.0,0.0,0.0,0.0,0.0,0.0,0.0,0.0,0.0,0.0,0.0,0.0,0.0,4.9118,4.9007,4.7878,4.6828,0.0,0.0,4.6627,4.5932,4.7234,0.0,0.0,0.0,0.0,0.0,0.0,0.0,0.0,0.0,0.0,0.0,0.0,0.0,0.0,0.0,0.0,0.0,0.0,0.0,0.0,0.0,0.0,0.0,0.0,0.0,0.0,0.0,0.0,0.0,0.0,0.0,0.0,0.0,0.0,0.0,0.0,0.0,0.0,0.0,0.0,0.0,0.0,0.0,0.0,0.0,0.0,0.0,0.0,0.0,0.0,0.0,0.0,0.0,0.0,0.0,0.0,5.7104,5.9678,6.207,6.4205,6.0596,5.7957,5.68,5.4972,5.1353,0.0,0.0,0.0,0.0,0.0,0.0,0.0,0.0,0.0,0.0,0.0,0.0,0.0,0.0,0.0,0.0,0.0,0.0,0.0,0.0,0.0,0.0,0.0,0.0,0.0,0.0,0.0,0.0,0.0,0.0,0.0,0.0,0.0,0.0,0.0,0.0,0.0,0.0,0.0,0.0,0.0,4.9917,4.9087,4.786,0.0,0.0,0.0,0.0,4.5437,4.4979,0.0,0.0,0.0,0.0,0.0,0.0,0.0,0.0,0.0,0.0,0.0,0.0,0.0,0.0,0.0,0.0,0.0,0.0,0.0,0.0,0.0,0.0,0.0,0.0,0.0,0.0,0.0,0.0,0.0,0.0,0.0,0.0,0.0,0.0,0.0,0.0,0.0,0.0,0.0,0.0,0.0,0.0,0.0,0.0,0.0,0.0,0.0,0.0,0.0,0.0,0.0,0.0,0.0,0.0,0.0,0.0,5.7334,5.8555,6.0633,6.3667,6.0357,5.7455,5.5344,5.3815,5.051,0.0,0.0,0.0,0.0,0.0,0.0,0.0,0.0,0.0,0.0,0.0,0.0,0.0,0.0,0.0,0.0,0.0,0.0,0.0,0.0,0.0,0.0,0.0,0.0,0.0,0.0,0.0,0.0,0.0,0.0,0.0,0.0,0.0,0.0,0.0,0.0,0.0,0.0,0.0,0.0,4.7963,4.8867,4.8295,0.0,0.0,0.0,0.0,0.0,0.0,4.4957,4.4747,0.0,0.0,0.0,0.0,0.0,0.0,0.0,0.0,0.0,0.0,0.0,0.0,0.0,0.0,0.0,0.0,0.0,0.0,0.0,0.0,0.0,0.0,0.0,0.0,0.0,0.0,0.0,0.0,0.0,0.0,0.0,0.0,0.0,0.0,0.0,0.0,0.0,0.0,0.0,0.0,0.0,0.0,0.0,0.0,0.0,0.0,0.0,0.0,0.0,0.0,0.0,0.0,0.0,0.0,0.0,5.6748,5.6717,5.8402,6.1935,5.9618,5.6964,5.4142,5.2805,4.9888,4.5396,0.0,0.0,0.0,0.0,0.0,0.0,0.0,0.0,0.0,0.0,0.0,0.0,0.0,0.0,0.0,0.0,0.0,0.0,0.0,0.0,0.0,0.0,0.0,0.0,0.0,0.0,0.0,0.0,0.0,0.0,0.0,0.0,0.0,0.0,0.0,0.0,0.0,0.0,0.0,4.6488,4.7369,0.0,0.0,0.0,0.0,0.0,0.0,0.0,0.0,4.5409,0.0,0.0,0.0,0.0,0.0,0.0,0.0,0.0,0.0,0.0,0.0,0.0,0.0,0.0,0.0,0.0,0.0,0.0,0.0,0.0,0.0,0.0,0.0,0.0,0.0,0.0,0.0,0.0,0.0,0.0,0.0,0.0,0.0,0.0,0.0,0.0,0.0,0.0,0.0,0.0,0.0,0.0,0.0,0.0,0.0,0.0,0.0,0.0,0.0,0.0,0.0,0.0,0.0,0.0,0.0,0.0,5.4911,5.6685,5.9009,5.8066,5.6402,5.4119,5.3305,5.0425,4.5342,0.0,0.0,0.0,0.0,0.0,0.0,0.0,0.0,0.0,0.0,0.0,0.0,0.0,0.0,0.0,0.0,0.0,0.0,0.0,0.0,0.0,0.0,0.0,0.0,0.0,0.0,0.0,0.0,0.0,0.0,0.0,0.0,0.0,0.0,0.0,0.0,0.0,0.0,4.4196,4.6144,0.0,0.0,0.0,0.0,0.0,0.0,0.0,0.0,4.501,0.0,0.0,0.0,0.0,0.0,0.0,0.0,0.0,0.0,0.0,0.0,0.0,0.0,0.0,0.0,0.0,0.0,0.0,0.0,0.0,0.0,0.0,0.0,0.0,0.0,0.0,0.0,0.0,0.0,0.0,0.0,0.0,0.0,0.0,0.0,0.0,0.0,0.0,0.0,0.0,0.0,0.0,0.0,0.0,0.0,0.0,0.0,0.0,0.0,0.0,0.0,0.0,0.0,0.0,0.0,0.0,0.0,0.0,5.5982,5.7329,5.7734,5.6361,5.3076,5.227,4.9776,0.0,0.0,0.0,0.0,0.0,0.0,0.0,0.0,0.0,0.0,0.0,0.0,0.0,0.0,0.0,0.0,0.0,0.0,0.0,0.0,0.0,0.0,0.0,0.0,0.0,0.0,0.0,0.0,0.0,0.0,0.0,0.0,0.0,0.0,0.0,0.0,0.0,0.0,0.0,0.0,0.0,0.0,0.0,0.0,0.0,0.0,0.0,0.0,0.0,0.0,0.0,0.0,0.0,0.0,0.0,0.0,0.0,0.0,0.0,0.0,0.0,0.0,0.0,0.0,0.0,0.0,0.0,0.0,0.0,0.0,0.0,0.0,0.0,0.0,0.0,0.0,0.0,0.0,0.0,0.0,0.0,0.0,0.0,0.0,0.0,0.0,0.0,0.0,0.0,0.0,0.0,0.0,0.0,0.0,0.0,0.0,0.0,0.0,0.0,0.0,0.0,0.0,0.0,0.0,0.0,0.0,0.0,0.0,5.5029,5.5408,5.6993,5.5905,5.2015,5.1116,4.9073,0.0,0.0,0.0,0.0,0.0,0.0,0.0,0.0,0.0,0.0,0.0,0.0,0.0,0.0,0.0,0.0,0.0,0.0,0.0,0.0,0.0,0.0,0.0,0.0,0.0,0.0,0.0,0.0,0.0,0.0,0.0,0.0,0.0,0.0,0.0,0.0,0.0,0.0,0.0,0.0,0.0,0.0,0.0,0.0,0.0,0.0,0.0,0.0,4.5545,0.0,0.0,0.0,0.0,0.0,0.0,0.0,0.0,0.0,0.0,0.0,0.0,0.0,0.0,0.0,0.0,0.0,0.0,0.0,0.0,0.0,0.0,0.0,0.0,0.0,0.0,0.0,0.0,0.0,0.0,0.0,0.0,0.0,0.0,0.0,0.0,0.0,0.0,0.0,0.0,0.0,0.0,0.0,0.0,0.0,0.0,0.0,0.0,0.0,0.0,0.0,0.0,0.0,0.0,0.0,0.0,0.0,0.0,0.0,5.2749,5.2401,5.4445,5.4378,5.2006,5.0582,4.8937,0.0,0.0,0.0,0.0,0.0,0.0,0.0,0.0,0.0,0.0,0.0,0.0,0.0,0.0,0.0,0.0,0.0,0.0,0.0,0.0,0.0,0.0,0.0,0.0,0.0,0.0,0.0,0.0,0.0,0.0,0.0,0.0,0.0,0.0,0.0,0.0,0.0,0.0,0.0,0.0,0.0,0.0,0.0,0.0,0.0,0.0,0.0,0.0,0.0,0.0,0.0,0.0,0.0,0.0,0.0,0.0,0.0,0.0,0.0,0.0,0.0,0.0,0.0,0.0,0.0,0.0,0.0,0.0,0.0,0.0,0.0,0.0,0.0,0.0,0.0,0.0,0.0,0.0,0.0,0.0,0.0,0.0,0.0,0.0,0.0,0.0,0.0,0.0,0.0,0.0,0.0,0.0,0.0,0.0,0.0,0.0,0.0,0.0,0.0,0.0,0.0,0.0,0.0,0.0,0.0,0.0,0.0,0.0,5.2418,5.1933,5.3638,5.3687,5.1933,4.9729,4.7706,0.0,0.0,0.0,0.0,0.0,0.0,0.0,0.0,0.0,0.0,0.0,0.0,0.0,0.0,0.0,0.0,0.0,0.0,0.0,0.0,0.0,0.0,0.0,0.0,0.0,0.0,0.0,0.0,0.0,0.0,0.0,0.0,0.0,0.0,0.0,0.0,0.0,0.0,0.0,0.0,0.0,0.0,0.0,0.0,0.0,0.0,0.0,0.0,0.0,0.0,0.0,0.0,0.0,0.0,0.0,0.0,0.0,0.0,0.0,0.0,0.0,0.0,0.0,0.0,0.0,0.0,0.0,0.0,0.0,0.0,0.0,0.0,0.0,0.0,0.0,0.0,0.0,0.0,0.0,0.0,0.0,0.0,0.0,0.0,0.0,0.0,0.0,0.0,0.0,0.0,0.0,0.0,0.0,0.0,0.0,0.0,0.0,0.0,0.0,0.0,0.0,0.0,0.0,0.0,0.0,0.0,0.0,0.0,0.0,5.1966,5.2952,5.2985,5.1892,4.8918,4.6797,0.0,0.0,0.0,0.0,0.0,0.0,0.0,0.0,0.0,0.0,0.0,0.0,0.0,0.0,0.0,0.0,0.0,0.0,0.0,0.0,0.0,0.0,0.0,0.0,0.0,0.0,0.0,0.0,0.0,0.0,0.0,0.0,0.0,0.0,0.0,0.0,0.0,0.0,0.0,0.0,0.0,0.0,0.0,0.0,0.0,0.0,0.0,0.0,0.0,0.0,0.0,0.0,0.0,0.0,0.0,0.0,0.0,0.0,0.0,0.0,0.0,0.0,0.0,0.0,0.0,0.0,0.0,0.0,0.0,0.0,0.0,0.0,0.0,0.0,0.0,0.0,0.0,0.0,0.0,0.0,0.0,0.0,0.0,0.0,0.0,0.0,0.0,0.0,0.0,0.0,0.0,0.0,0.0,0.0,0.0,0.0,0.0,0.0,0.0,0.0,0.0,0.0,0.0,0.0,0.0,0.0,0.0,0.0,0.0,5.1924,5.1982,5.199,5.1867,4.8427,4.6623,0.0,0.0,0.0,0.0,0.0,0.0,0.0,0.0,0.0,0.0,0.0,0.0,0.0,0.0,0.0,0.0,0.0,0.0,0.0,0.0,0.0,0.0,0.0,0.0,0.0,0.0,0.0,0.0,0.0,0.0,0.0,0.0,0.0,0.0,0.0,0.0,0.0,0.0,0.0,0.0,0.0,0.0,0.0,0.0,0.0,0.0,0.0,0.0,0.0,0.0,0.0,0.0,0.0,0.0,0.0,0.0,0.0,0.0,0.0,0.0,0.0,0.0,0.0,0.0,0.0,0.0,0.0,0.0,0.0,0.0,0.0,0.0,0.0,0.0,0.0,0.0,0.0,0.0,0.0,0.0,0.0,0.0,0.0,0.0,0.0,0.0,0.0,0.0,0.0,0.0,0.0,0.0,0.0,0.0,0.0,0.0,0.0,0.0,0.0,0.0,0.0,0.0,0.0,0.0,0.0,0.0,0.0,0.0,0.0,5.1924,5.1924,5.1924,5.1924,4.8362,4.6272,4.5769,0.0,0.0,0.0,0.0,0.0,0.0,0.0,0.0,0.0,0.0,0.0,0.0,0.0,0.0,0.0,0.0,0.0,0.0,0.0,0.0,0.0,0.0,0.0,0.0,0.0,0.0,0.0,0.0,0.0,0.0,0.0,0.0,0.0,0.0,0.0,0.0,0.0,0.0,0.0,0.0,0.0,0.0,0.0,0.0,0.0,0.0,0.0,0.0,0.0,0.0,0.0,0.0,0.0,0.0,0.0,0.0,0.0,0.0,0.0,0.0,0.0,0.0,0.0,0.0,0.0,0.0,0.0,0.0,0.0,0.0,0.0,0.0,0.0,0.0,0.0,0.0,0.0,0.0,0.0,0.0,0.0,0.0,0.0,0.0,0.0,0.0,0.0,0.0,0.0,0.0,0.0,0.0,0.0,0.0,0.0,0.0,0.0,0.0,0.0,0.0,0.0,0.0,0.0,0.0,0.0,0.0,0.0,0.0,5.1924,5.1924,5.1924,5.1793,4.8489,4.6165,0.0,0.0,0.0,0.0,0.0,0.0,0.0,0.0,0.0,0.0,0.0,0.0,0.0,0.0,0.0,0.0,0.0,0.0,0.0,0.0,0.0,0.0,0.0,0.0,0.0,0.0,0.0,0.0,0.0,0.0,0.0,0.0,0.0,0.0,0.0,0.0,0.0,0.0,0.0,0.0,0.0,0.0,0.0,0.0,0.0,0.0,0.0,0.0,0.0,0.0,0.0,0.0,0.0,0.0,0.0,0.0,0.0,0.0,0.0,0.0,0.0,0.0,0.0,0.0,0.0,0.0,0.0,0.0,0.0,0.0,0.0,0.0,0.0,0.0,0.0,0.0,0.0,0.0,0.0,0.0,0.0,0.0,0.0,0.0,0.0,0.0,0.0,0.0,0.0,0.0,0.0,0.0,0.0,0.0,0.0,0.0,0.0,0.0,0.0,0.0,0.0,0.0,0.0,0.0,0.0,0.0,0.0,0.0,5.1924,5.1924,5.1924,5.1924,5.1818,4.8759,4.6447,0.0,0.0,0.0,0.0,0.0,0.0,0.0,0.0,0.0,0.0,0.0,0.0,0.0,0.0,0.0,0.0,0.0,0.0,0.0,0.0,0.0,0.0,0.0,0.0,0.0,0.0,0.0,0.0,0.0,0.0,0.0,0.0,0.0,0.0,0.0,0.0,0.0,0.0,0.0,0.0,0.0,0.0,0.0,0.0,0.0,0.0,0.0,0.0,0.0,0.0,0.0,0.0,0.0,0.0,0.0,0.0,0.0,0.0,0.0,0.0,0.0,0.0,0.0,0.0,0.0,0.0,0.0,0.0,0.0,0.0,0.0,0.0,0.0,0.0,0.0,0.0,0.0,0.0,0.0,0.0,0.0,0.0,0.0,0.0,0.0,0.0,0.0,0.0,0.0,0.0,0.0,0.0,0.0,0.0,0.0,0.0,0.0,0.0,0.0,0.0,0.0,0.0,0.0,0.0,0.0,0.0,0.0,0.0,0.0,5.1924,0.0,5.1924,0.0,4.9425,4.7149,0.0,0.0,0.0,0.0,0.0,0.0,0.0,0.0,0.0,0.0,0.0,0.0,0.0,0.0,0.0,0.0,0.0,0.0,0.0,0.0,0.0,0.0,0.0,0.0,0.0,0.0,0.0,0.0,0.0,0.0,0.0,0.0,0.0,0.0,0.0,0.0,0.0,0.0,0.0,0.0,0.0,0.0,0.0,0.0,0.0,0.0,0.0,0.0,0.0,0.0,0.0,0.0,0.0,0.0,0.0,0.0,0.0,0.0,0.0,0.0,0.0,0.0,0.0,0.0,0.0,0.0,0.0,0.0,0.0,0.0,0.0,0.0,0.0,0.0,0.0,0.0,0.0,0.0,0.0,0.0,0.0,0.0,0.0,0.0,0.0,0.0,0.0,0.0,0.0,0.0,0.0,0.0,0.0,0.0,0.0,0.0,0.0,0.0,0.0,0.0,0.0,0.0,0.0,0.0,0.0,0.0,0.0,0.0,0.0,5.1924,5.1924,5.1924,5.1875,5.0225,4.7977,0.0,0.0,0.0,0.0,0.0,0.0,0.0,0.0,0.0,0.0,0.0,0.0,0.0,0.0,0.0,0.0,0.0,0.0,0.0,0.0,0.0,0.0,0.0,0.0,0.0,0.0,0.0,0.0,0.0,0.0,0.0,0.0,0.0,0.0,0.0,0.0,0.0,0.0,0.0,0.0,0.0,0.0,0.0,0.0,0.0,0.0,0.0,0.0,0.0,0.0,0.0,0.0,0.0,0.0,0.0,0.0,0.0,0.0,0.0,0.0,0.0,0.0,0.0,0.0,0.0,0.0,0.0,0.0,0.0,0.0,0.0,0.0,0.0,0.0,0.0,0.0,0.0,0.0,0.0,0.0,0.0,0.0,0.0,0.0,0.0,0.0,0.0,0.0,0.0,0.0,0.0,0.0,0.0,0.0,0.0,0.0,0.0,0.0,0.0,0.0,0.0,0.0,0.0,0.0,0.0,0.0,0.0,0.0,0.0,0.0,5.1924,5.1924,5.1924,5.1025,4.8852,0.0,0.0,0.0,0.0,0.0,0.0,0.0,0.0,0.0,0.0,0.0,0.0,0.0,0.0,0.0,0.0,0.0,0.0,0.0,0.0,0.0,0.0,0.0,0.0,0.0,0.0,0.0,0.0,0.0,0.0,0.0,0.0,0.0,0.0,0.0,0.0,0.0,0.0,0.0,0.0,0.0,0.0,0.0,0.0,0.0,0.0,0.0,0.0,0.0,0.0,0.0,0.0,0.0,0.0,0.0,0.0,0.0,0.0,0.0,0.0,0.0,0.0,0.0,0.0,0.0,0.0,0.0,0.0,0.0,0.0,0.0,0.0,0.0,0.0,0.0,0.0,0.0,0.0,0.0,0.0,0.0,0.0,0.0,0.0,0.0,0.0,0.0,0.0,0.0,0.0,0.0,0.0,0.0,0.0,0.0,0.0,0.0,0.0,0.0,0.0,0.0,0.0,0.0,0.0,0.0,0.0,0.0,0.0,0.0,0.0,5.1924,0.0,5.1875,5.1637,4.9514,4.5252,0.0,0.0,0.0,0.0,0.0,0.0,0.0,0.0,0.0,0.0,0.0,0.0,0.0,0.0,0.0,0.0,0.0,0.0,0.0,0.0,0.0,0.0,0.0,0.0,0.0,0.0,0.0,0.0,0.0,0.0,0.0,0.0,0.0,0.0,0.0,0.0,0.0,0.0,0.0,0.0,0.0,0.0,0.0,0.0,0.0,0.0,0.0,0.0,0.0,0.0,0.0,0.0,0.0,0.0,0.0,0.0,0.0,0.0,0.0,0.0,0.0,0.0,0.0,0.0,0.0,0.0,0.0,0.0,0.0,0.0,0.0,0.0,0.0,0.0,0.0,0.0,0.0,0.0,0.0,0.0,0.0,0.0,0.0,0.0,0.0,0.0,0.0,0.0,0.0,0.0,0.0,0.0,0.0,0.0,0.0,0.0,0.0,0.0,0.0,0.0,0.0,0.0,0.0,0.0,0.0,0.0,0.0,0.0,0.0,0.0,0.0,5.1924,5.1924,5.0015,0.0,0.0,0.0,0.0,0.0,0.0,0.0,0.0,0.0,0.0,0.0,0.0,0.0,0.0,0.0,0.0,0.0,0.0,0.0,0.0,0.0,0.0,0.0,0.0,0.0,0.0,0.0,0.0,0.0,0.0,0.0,0.0,0.0,0.0,0.0,0.0,0.0,0.0,0.0,0.0,0.0,0.0,0.0,0.0,0.0,0.0,0.0,0.0,0.0,0.0,0.0,0.0,0.0,0.0,0.0,0.0,0.0,0.0,0.0,0.0,0.0,0.0,0.0,0.0,0.0,0.0,0.0,0.0,0.0,0.0,0.0,0.0,0.0,0.0,0.0,0.0,0.0,0.0,0.0,0.0,0.0,0.0,0.0,0.0,0.0,0.0,0.0,0.0,0.0,0.0,0.0,0.0,0.0,0.0,0.0,0.0,0.0,0.0,0.0,0.0,0.0,0.0,0.0,0.0,0.0,0.0,0.0,0.0,0.0,0.0,0.0,5.1924,5.1924,5.1924,0.0,4.7753,0.0,0.0,0.0,0.0,0.0,0.0,0.0,0.0,0.0,0.0,0.0,0.0,0.0,0.0,0.0,0.0,0.0,0.0,0.0,0.0,0.0,0.0,0.0,0.0,0.0,0.0,0.0,0.0,0.0,0.0,0.0,0.0,0.0,0.0,0.0,0.0,0.0,0.0,0.0,0.0,0.0,0.0,0.0,0.0,0.0,0.0,0.0,0.0,0.0,0.0,0.0,0.0,0.0,0.0,0.0,0.0,0.0,0.0,0.0,0.0,0.0,0.0,0.0,0.0,0.0,0.0,0.0,0.0,0.0,0.0,0.0,0.0,0.0,0.0,0.0,0.0,0.0,0.0,0.0,0.0,0.0,0.0,0.0,0.0,0.0,0.0,0.0,0.0,0.0,0.0,0.0,0.0,0.0,0.0,0.0,0.0,0.0,0.0,0.0,0.0,0.0,0.0,0.0,0.0,0.0,0.0,0.0,0.0,0.0,0.0,0.0,0.0,5.1924,5.1514,5.0799,0.0,0.0,0.0,0.0,0.0,0.0,0.0,0.0,0.0,0.0,0.0,0.0,0.0,0.0,0.0,0.0,0.0,0.0,0.0,0.0,0.0,0.0,0.0,0.0,0.0,0.0,0.0,0.0,0.0,0.0,0.0,0.0,0.0,0.0,0.0,0.0,0.0,0.0,0.0,0.0,0.0,0.0,0.0,0.0,0.0,0.0,0.0,0.0,0.0,0.0,0.0,0.0,0.0,0.0,0.0,0.0,0.0,0.0,0.0,0.0,0.0,0.0,0.0,0.0,0.0,0.0,0.0,0.0,0.0,0.0,0.0,0.0,0.0,0.0,0.0,0.0,0.0,0.0,0.0,0.0,0.0,0.0,0.0,0.0,0.0,0.0,0.0,0.0,0.0,0.0,0.0,0.0,0.0,0.0,0.0,0.0,0.0,0.0,0.0,0.0,0.0,0.0,0.0,0.0,0.0,0.0,0.0,0.0,0.0,0.0,5.1924,5.1924,5.1924,5.1924,5.1859,0.0,0.0,0.0,0.0,0.0,0.0,0.0,0.0,0.0,0.0,0.0,0.0,0.0,0.0,0.0,0.0,0.0,0.0,0.0,0.0,0.0,0.0,0.0,0.0,0.0,0.0,0.0,0.0,0.0,0.0,0.0,0.0,0.0,0.0,0.0,0.0,0.0,0.0,0.0,0.0,0.0,0.0,0.0,0.0,0.0,0.0,0.0,0.0,0.0,0.0,0.0,0.0,0.0,0.0,0.0,0.0,0.0,0.0,0.0,0.0,0.0,0.0,0.0,0.0,0.0,0.0,0.0,0.0,0.0,0.0,0.0,0.0,0.0,0.0,0.0,0.0,0.0,0.0,0.0,0.0,0.0,0.0,0.0,0.0,0.0,0.0,0.0,0.0,0.0,0.0,0.0,0.0,0.0,0.0,0.0,0.0,0.0,0.0,0.0,0.0,0.0,0.0,0.0,0.0,0.0,0.0,0.0,0.0,0.0,0.0,0.0,0.0,0.0,0.0,5.1875,0.0,0.0,0.0,0.0,0.0,0.0,0.0,0.0,0.0,0.0,0.0,0.0,0.0,0.0,0.0,0.0,0.0,0.0,0.0,0.0,0.0,0.0,0.0,0.0,0.0,0.0,0.0,0.0,0.0,0.0,0.0,0.0,0.0,0.0,0.0,0.0,0.0,0.0,0.0,0.0,0.0,0.0,0.0,0.0,0.0,0.0,0.0,0.0,0.0,0.0,0.0,0.0,0.0,0.0,0.0,0.0,0.0,0.0,0.0,0.0,0.0,0.0,0.0,0.0,0.0,0.0,0.0,0.0,0.0,0.0,0.0,0.0,0.0,0.0,0.0,0.0,0.0,0.0,0.0,0.0,0.0,0.0,0.0,0.0,0.0,0.0,0.0,0.0,0.0,0.0,0.0,0.0,0.0,0.0,0.0,0.0,0.0,0.0,0.0,0.0,0.0,0.0,0.0,0.0,0.0,0.0,0.0,0.0,0.0,0.0,0.0,0.0,0.0,0.0,0.0,0.0,0.0,0.0,0.0,0.0,0.0,0.0,0.0,0.0,0.0,0.0,0.0,0.0,0.0,0.0,0.0,0.0,0.0,0.0,0.0,0.0,0.0,0.0,0.0,0.0,0.0,0.0,0.0,0.0,0.0,0.0,0.0,0.0,0.0,0.0,0.0,0.0,0.0,0.0,0.0,0.0,0.0,0.0,0.0,0.0,0.0,0.0,0.0,0.0,0.0,0.0,0.0,0.0,0.0,0.0,0.0,0.0,0.0,0.0,0.0,0.0,0.0,0.0,0.0,0.0,0.0,0.0,0.0,0.0,0.0,0.0,0.0,0.0,0.0,0.0,0.0,0.0,0.0,0.0,0.0,0.0,0.0,0.0,0.0,0.0,0.0,0.0,0.0,0.0,0.0,0.0,0.0,0.0,0.0,0.0,0.0,0.0,0.0,0.0,0.0,0.0,0.0,0.0,0.0,0.0,0.0,0.0,0.0,0.0,0.0,0.0,0.0,0.0,0.0,0.0,0.0,0.0,0.0,0.0,0.0,0.0,0.0,0.0,0.0,0.0,0.0,0.0,0.0,0.0,0.0,0.0,0.0,0.0,0.0,0.0,0.0,0.0,0.0,0.0,0.0,0.0,0.0,0.0,0.0,0.0,0.0,0.0,0.0,0.0,0.0,0.0,0.0,0.0,0.0,0.0,0.0,0.0,0.0,0.0,0.0,0.0,0.0,0.0,0.0,0.0,0.0,0.0,0.0,0.0,0.0,0.0,0.0,0.0,0.0,0.0,0.0,0.0,0.0,0.0,0.0,0.0,0.0,0.0,0.0,0.0,0.0,0.0,0.0,0.0,0.0,0.0,0.0,0.0,0.0,0.0,0.0,0.0,0.0,0.0,0.0,0.0,0.0,0.0,0.0,0.0,0.0,0.0,0.0,0.0,0.0,0.0,0.0,0.0,0.0,0.0,0.0,0.0,0.0,0.0,0.0,0.0,0.0,0.0,0.0,0.0,0.0,0.0,0.0,0.0,0.0,0.0,0.0,0.0,0.0,0.0,0.0,0.0,0.0,0.0,0.0,0.0,0.0,0.0,0.0,0.0,0.0,0.0,0.0,0.0,0.0,0.0,0.0,0.0,0.0,0.0,0.0,0.0,0.0,0.0,0.0,0.0,0.0,0.0,0.0,0.0,0.0,0.0,0.0,0.0,0.0,0.0,0.0,0.0,0.0,0.0,0.0,0.0,0.0,0.0,0.0,0.0,0.0,0.0,0.0,0.0,0.0,0.0,0.0,0.0,0.0,0.0,0.0,0.0,0.0,0.0,0.0,0.0,0.0,0.0,0.0,0.0,0.0,0.0,0.0,0.0,0.0,0.0,0.0,0.0,0.0,0.0,0.0,0.0,0.0,0.0,0.0,0.0,0.0,0.0,0.0,0.0,0.0,0.0,0.0,0.0,0.0,0.0,0.0,0.0,0.0,0.0,0.0,0.0,0.0,0.0,0.0,0.0,0.0,0.0,0.0,0.0,0.0,0.0,0.0,0.0,0.0,0.0,0.0,0.0,0.0,0.0,0.0,0.0,0.0,0.0,0.0,0.0,0.0,0.0,0.0,0.0,0.0,0.0,0.0,0.0,0.0,0.0,0.0,0.0,0.0,0.0,0.0,0.0,0.0,0.0,0.0,0.0,0.0,0.0,0.0,0.0,0.0,0.0,0.0,0.0,0.0,0.0,0.0,0.0,0.0,0.0,0.0,0.0,0.0,0.0,0.0,0.0,0.0,0.0,0.0,0.0,0.0,0.0,0.0,0.0,0.0,0.0,0.0,0.0,0.0,0.0,0.0,0.0,0.0,0.0,0.0,0.0,0.0,0.0,0.0,0.0,0.0,0.0,0.0,0.0,0.0,0.0,0.0,0.0,0.0,0.0,0.0,0.0,0.0,0.0,0.0,0.0,0.0,0.0,0.0,0.0,0.0,0.0,0.0,0.0,0.0,0.0,0.0,0.0,0.0,0.0,0.0,0.0,0.0,0.0,0.0,0.0,0.0,0.0,0.0,0.0,0.0,0.0,0.0,0.0,0.0,0.0,0.0,0.0,0.0,0.0,0.0,0.0,0.0,0.0,0.0,0.0,0.0,0.0,0.0,0.0,0.0,0.0,0.0,0.0,0.0,0.0,0.0,0.0,0.0,0.0,0.0,0.0,0.0,0.0,0.0,0.0,0.0,0.0,0.0,0.0,0.0,0.0,0.0,0.0,0.0,0.0,0.0,0.0,0.0,0.0,0.0,0.0,0.0,0.0,0.0,0.0,0.0,0.0,0.0,0.0,0.0,0.0,0.0,0.0,0.0,0.0,0.0,0.0,0.0,0.0,0.0,0.0,0.0,0.0,0.0,0.0,0.0,0.0,0.0,0.0,0.0,0.0,0.0,0.0,0.0,0.0,0.0,0.0,0.0,0.0,0.0,0.0,0.0,0.0,0.0,0.0,0.0,0.0,0.0,0.0,0.0,0.0,0.0,0.0,0.0,0.0,0.0,0.0,0.0,0.0,0.0,0.0,0.0,0.0,0.0,0.0,0.0,0.0,0.0,0.0,0.0,0.0,0.0,0.0,0.0,0.0,0.0,0.0,0.0,0.0,0.0,0.0,0.0,0.0,0.0,0.0,0.0,0.0,0.0,0.0,0.0,0.0,0.0,0.0,0.0,0.0,0.0,0.0,0.0,0.0,0.0,0.0,0.0,0.0,0.0,0.0,0.0,0.0,0.0,0.0,0.0,0.0,0.0,0.0,0.0,0.0,0.0,0.0,0.0,0.0,0.0,0.0,0.0,0.0,0.0,0.0,0.0,0.0,0.0,0.0,0.0,0.0,0.0,0.0,0.0,0.0,0.0,0.0,0.0,0.0,0.0,0.0,0.0,0.0,0.0,0.0,0.0,0.0,0.0,0.0,0.0,0.0,0.0,0.0,0.0,0.0,0.0,0.0,0.0,0.0,0.0,0.0,0.0,0.0,0.0,0.0,0.0,0.0,0.0,0.0,0.0,0.0,0.0,0.0,0.0,0.0,0.0,0.0,0.0,0.0,0.0,0.0,0.0,0.0,0.0,0.0,0.0,0.0,0.0,0.0,0.0,0.0,0.0,0.0,0.0,0.0,0.0,0.0,0.0,0.0,0.0,0.0,0.0,0.0,0.0,0.0,0.0,0.0,0.0,0.0,0.0,0.0,0.0,0.0,0.0,0.0,0.0,0.0,0.0,0.0,0.0,0.0,0.0,0.0,0.0,0.0,0.0,0.0,0.0,0.0,0.0,0.0,0.0,0.0,0.0,0.0,0.0,0.0,0.0,0.0,0.0,0.0,0.0,0.0,0.0,0.0,0.0,0.0,0.0,0.0,0.0,0.0,0.0,0.0,0.0,0.0,0.0,0.0,0.0,0.0,0.0,0.0,0.0,0.0,0.0,0.0,0.0,0.0,0.0,0.0,0.0,0.0,0.0,0.0,0.0,0.0,0.0,0.0,0.0,0.0,0.0,0.0,0.0,0.0,0.0,0.0,0.0,0.0,0.0,0.0,0.0,0.0,0.0,0.0,0.0,0.0,0.0,0.0,0.0,0.0,0.0,0.0,0.0,0.0,0.0,0.0,0.0,0.0,0.0,0.0,0.0,0.0,0.0,0.0,0.0,0.0,0.0,0.0,0.0,0.0,0.0,0.0,0.0,0.0,0.0,0.0,0.0,0.0,0.0,0.0,0.0,0.0,0.0,0.0,0.0,0.0,0.0,0.0,0.0,0.0,0.0,0.0,0.0,0.0,0.0,0.0,0.0,0.0,0.0,0.0,0.0,0.0,0.0,0.0,0.0,0.0,0.0,0.0,0.0,0.0,0.0,0.0]}],[{"header":{"parameterUnit":"kt","parameterCategory":2,"dx":1,"dy":1,"la1":29.587661999999998,"la2":31.0,"lo1":-88.76705300000003,"lo2":-86.6583820000003,"nx":115,"ny":88,"refTime":"2022-10-26T12:00:00:Z","depth":0,"parameterNumber":2,"parameterNumberName":"V-component_of_WINDS"},"data":[7.6582,7.6582,7.6582,7.6582,7.6582,7.6582,7.6582,7.6582,7.6582,7.6582,7.6582,7.6582,7.6582,7.6582,7.6582,7.6582,7.6582,7.6582,7.6582,7.6582,7.6582,7.6582,7.6687,7.689,7.7344,7.8292,7.9456,8.0569,8.0889,8.1945,8.2944,8.3722,8.3838,8.4177,8.4177,8.4177,8.4177,8.4177,8.4177,8.4177,8.4177,8.4177,8.4177,8.4177,8.4177,8.4177,8.4177,8.4177,8.4177,8.4177,8.4177,8.4177,8.4177,8.4177,8.4177,8.4177,8.4177,8.4177,8.4177,8.4177,8.4177,8.4177,8.4177,8.4177,8.4177,8.4177,8.4177,8.4177,8.4177,8.4177,8.4177,8.4177,8.4177,8.4177,8.4177,8.4177,8.4177,8.4177,8.4177,8.4177,8.4177,8.4177,8.4177,8.4177,8.4177,8.4177,8.4177,8.4177,8.4177,8.4177,8.4177,8.4177,8.4177,8.4177,8.4177,8.4177,8.4177,8.4177,8.4177,8.4177,8.4177,8.4177,8.4177,8.4177,8.4177,8.4177,8.4177,8.4177,8.4177,8.4177,8.4177,8.4177,8.4177,8.4177,8.4177,7.6582,7.6582,7.6582,7.6582,7.6582,7.6582,7.6582,7.6582,7.6582,7.6582,7.6582,7.6582,7.6582,7.6582,7.6582,7.6582,7.6582,7.6582,7.6582,7.6582,7.6582,7.6582,7.6582,7.6582,7.6774,7.7414,7.8245,7.8874,7.9765,8.1227,8.2381,8.278,8.344,8.4177,8.4177,8.4177,8.4177,8.4177,8.4177,8.4177,8.4177,8.4177,8.4177,8.4177,8.4177,8.4177,8.4177,8.4177,8.4177,8.4177,8.4177,8.4177,8.4177,8.4177,8.4177,8.4177,8.4177,8.4177,8.4177,8.4177,8.4177,8.4177,8.4177,8.4177,8.4177,8.4177,8.4177,8.4177,8.4177,8.4177,8.4177,8.4177,8.4177,8.4177,8.4177,8.4177,8.4177,8.4177,8.4177,8.4177,8.4177,8.4177,8.4177,8.4177,8.4177,8.4177,8.4177,8.4177,8.4177,8.4177,8.4177,8.4177,8.4177,8.4177,8.4177,8.4177,8.4177,8.4177,8.4177,8.4177,8.4177,8.4177,8.4177,8.4177,8.4177,8.4177,8.4177,8.4177,8.4177,8.4177,8.4177,8.4177,8.4177,8.4177,8.4177,7.6582,7.6582,7.6582,7.6582,7.6582,7.6582,7.6582,7.6582,7.6582,7.6582,7.6582,7.6582,7.6582,7.6582,7.6582,7.6582,7.6582,7.6582,7.6582,7.6582,7.6582,7.6582,7.6582,7.6582,7.6582,7.664,7.7344,7.838,7.9823,8.1111,8.2373,8.3479,8.3809,8.4177,8.4177,8.4177,8.4177,8.4177,8.4177,8.4177,8.4177,8.4177,8.4177,8.4177,8.4177,8.4177,8.4177,8.4177,8.4177,8.4177,8.4177,8.4177,8.4177,8.4177,8.4177,8.4177,8.4177,8.4177,8.4177,8.4177,8.4177,8.4177,8.4177,8.4177,8.4177,8.4177,8.4177,8.4177,8.4177,8.4177,8.4177,8.4177,8.4177,8.4177,8.4177,8.4177,8.4177,8.4177,8.4177,8.4177,8.4177,8.4177,8.4177,8.4177,8.4177,8.4177,8.4177,8.4177,8.4177,8.4177,8.4177,8.4177,8.4177,8.4177,8.4177,8.4177,8.4177,8.4177,8.4177,8.4177,8.4177,8.4177,8.4177,8.4177,8.4177,8.4177,8.4177,8.4177,8.4177,8.4177,8.4177,8.4177,8.4177,8.4177,8.4177,7.6582,7.6582,7.6582,7.6582,7.6582,7.6582,7.6582,7.6582,7.6582,7.6582,7.6582,7.6582,7.6582,7.6582,7.6582,7.6582,7.6582,7.6582,7.6582,7.6582,7.6582,7.6582,7.6582,7.6582,7.6582,7.6582,7.6832,7.7606,7.8903,8.0143,8.1521,8.2995,8.4138,8.4168,8.4177,8.4177,8.4177,8.4177,8.4177,8.4177,8.4177,8.4177,8.4177,8.4177,8.4177,8.4177,8.4177,8.4177,8.4177,8.4177,8.4177,8.4177,8.4177,8.4177,8.4177,8.4177,8.4177,8.4177,8.4177,8.4177,8.4177,8.4177,8.4177,8.4177,8.4177,8.4177,8.4177,8.4177,8.4177,8.4177,8.4177,8.4177,8.4177,8.4177,8.4177,8.4177,8.4177,8.4177,8.4177,8.4177,8.4177,8.4177,8.4177,8.4177,8.4177,8.4177,8.4177,8.4177,8.4177,8.4177,8.4177,8.4177,8.4177,8.4177,8.4177,8.4177,8.4177,8.4177,8.4177,8.4177,8.4177,8.4177,8.4177,8.4177,8.4177,8.4177,8.4177,8.4177,8.4177,8.4177,8.4177,8.4177,8.4177,8.4177,8.4177,7.6582,7.6582,7.6582,7.6582,7.6582,7.6582,7.6582,7.6582,7.6582,7.6582,7.6582,7.6582,7.6582,7.6582,7.6582,7.6582,7.6582,7.6582,7.6582,7.6582,7.6582,7.6582,7.6582,7.6582,7.6582,7.6582,7.6698,7.6948,7.7693,7.9281,8.0667,8.0794,8.2966,8.4138,8.4177,8.4177,8.4177,8.4177,8.4177,8.4177,8.4177,8.4177,8.4177,8.4177,8.4177,8.4177,8.4177,8.4177,8.4177,8.4177,8.4177,8.4177,8.4177,8.4177,8.4177,8.4177,8.4177,8.4177,8.4177,8.4177,8.4177,8.4177,8.4177,8.4177,8.4177,8.4177,8.4177,8.4177,8.4177,8.4177,8.4177,8.4177,8.4177,8.4177,8.4177,8.4177,8.4177,8.4177,8.4177,8.4177,8.4177,8.4177,8.4177,8.4177,8.4177,8.4177,8.4177,8.4177,8.4177,8.4177,8.4177,8.4177,8.4177,8.4177,8.4177,8.4177,8.4177,8.4177,8.4177,8.4177,8.4177,8.4177,8.4177,8.4177,8.4177,8.4177,8.4177,8.4177,8.4177,8.4177,8.4177,8.4177,8.4177,8.4177,8.4177,7.6582,7.6582,7.6582,7.6582,7.6582,7.6582,7.6582,7.6582,7.6582,7.6582,7.6582,7.6582,7.6582,7.6582,7.6582,7.6582,7.6582,7.6582,7.6582,7.6582,7.6582,7.6582,7.6582,7.6582,7.6582,7.6582,7.6582,7.6582,7.7326,7.9019,8.0965,8.1529,8.3169,8.3993,8.4177,8.4177,8.4177,8.4177,8.4177,8.4177,8.4177,8.4177,8.4177,8.4177,8.4177,8.4177,8.4177,8.4177,8.4177,8.4177,8.4177,8.4177,8.4177,8.4177,8.4177,8.4177,8.4177,8.4177,8.4177,8.4177,8.4177,8.4177,8.4177,8.4177,8.4177,8.4177,8.4177,8.4177,8.4177,8.4177,8.4177,8.4177,8.4177,8.4177,8.4177,8.4177,8.4177,8.4177,8.4177,8.4177,8.4177,8.4177,8.4177,8.4177,8.4177,8.4177,8.4177,8.4177,8.4177,8.4177,8.4177,8.4177,8.4177,8.4177,8.4177,8.4177,8.4177,8.4177,8.4177,8.4177,8.4177,8.4177,8.4177,8.4177,8.4177,8.4177,8.4177,8.4177,8.4177,8.4177,8.4177,8.4177,8.4177,8.4177,8.4177,7.6937,7.6629,7.7007,7.6937,7.6716,7.7402,7.746,7.7047,7.6716,7.6582,7.6582,7.6582,7.6582,7.6582,7.6582,7.6582,7.6582,7.6582,7.6582,7.6582,7.6582,7.6582,7.6582,7.6582,7.6582,7.6582,7.6582,7.6611,7.7065,7.7955,7.9881,8.1984,8.3315,8.3964,8.4177,8.4177,8.4177,8.4177,8.4177,8.4177,8.4177,8.4177,8.4177,8.4177,8.4177,8.4177,8.4177,8.4177,8.4177,8.4177,8.4177,8.4177,8.4177,8.4177,8.4177,8.4177,8.4177,8.4177,8.4177,8.4177,8.4177,8.4177,8.4177,8.4177,8.4177,8.4177,8.4177,8.4177,8.4177,8.4177,8.4177,8.4177,8.4177,8.4177,8.4177,8.4177,8.4177,8.4177,8.4177,8.4177,8.4177,8.4177,8.4177,8.4177,8.4177,8.4177,8.4177,8.4177,8.4177,8.4177,8.4177,8.4177,8.4177,8.4177,8.4177,8.4177,8.4177,8.4177,8.4177,8.4177,8.4177,8.4177,8.4177,8.4177,8.4177,8.4177,8.4177,8.4177,8.4177,8.4177,8.4177,8.4177,8.4177,8.4177,8.4177,7.774,7.6861,7.7926,7.7798,7.7181,7.9136,7.9474,7.8409,7.717,7.6687,7.6611,7.6669,7.6582,7.6582,7.6582,7.6582,7.6582,7.6582,7.6582,7.6582,7.6582,7.6582,7.6582,7.6582,7.6582,7.6582,7.6582,7.6582,7.6611,7.7326,7.867,8.0638,8.3034,8.3935,8.4177,8.4177,8.4177,8.4177,8.4177,8.4177,8.4177,8.4177,8.4177,8.4177,8.4177,8.4177,8.4177,8.4177,8.4177,8.4177,8.4177,8.4177,8.4177,8.4177,8.4177,8.4177,8.4177,8.4177,8.4177,8.4177,8.4177,8.4177,8.4177,8.4177,8.4177,8.4177,8.4177,8.4177,8.4177,8.4177,8.4177,8.4177,8.4177,8.4177,8.4177,8.4177,8.4177,8.4177,8.4177,8.4177,8.4177,8.4177,8.4177,8.4177,8.4177,8.4177,8.4177,8.4177,8.4177,8.4177,8.4177,8.4177,8.4177,8.4177,8.4177,8.4177,8.4177,8.4177,8.4177,8.4177,8.4177,8.4177,8.4177,8.4177,8.4177,8.4177,8.4177,8.4177,8.4177,8.4177,8.4177,8.4177,8.4177,8.4177,8.4177,7.8292,7.8031,7.9252,7.9532,7.9328,8.0103,8.023,7.9648,7.8467,7.7867,7.7682,7.6948,7.6611,7.6611,7.6582,7.6582,7.6582,7.6582,7.6582,7.6582,7.6582,7.6582,7.6582,7.6582,7.6582,7.6582,7.6582,7.6582,7.6582,7.6582,7.8013,8.0357,8.286,8.3703,8.4109,8.4168,8.4177,8.4177,8.4177,8.4177,8.4177,8.4177,8.4177,8.4177,8.4177,8.4177,8.4177,8.4177,8.4177,8.4177,8.4177,8.4177,8.4177,8.4177,8.4177,8.4177,8.4177,8.4177,8.4177,8.4177,8.4177,8.4177,8.4177,8.4177,8.4177,8.4177,8.4177,8.4177,8.4177,8.4177,8.4177,8.4177,8.4177,8.4177,8.4177,8.4177,8.4177,8.4177,8.4177,8.4177,8.4177,8.4177,8.4177,8.4177,8.4177,8.4177,8.4177,8.4177,8.4177,8.4177,8.4177,8.4177,8.4177,8.4177,8.4177,8.4177,8.4177,8.4177,8.4177,8.4177,8.4177,8.4177,8.4177,8.4177,8.4177,8.4177,8.4177,8.4177,8.4177,8.4177,8.4177,8.4177,8.4177,8.4177,8.4177,7.9561,7.9299,8.0598,8.1354,8.1695,8.1724,8.15,8.1005,8.0278,7.9608,7.9008,7.7827,7.7257,7.7053,7.6966,7.6582,7.6582,7.6582,7.6582,7.6582,7.6582,7.6582,7.6582,7.6582,7.6582,7.6582,7.6582,7.6582,7.6582,7.6582,7.7984,7.9648,8.1531,8.3005,8.3518,8.408,8.4197,8.4177,8.4177,8.4177,8.4177,8.4177,8.4177,8.4177,8.4177,8.4177,8.4177,8.4177,8.4177,8.4177,8.4177,8.4177,8.4177,8.4177,8.4177,8.4177,8.4177,8.4177,8.4177,8.4177,8.4177,8.4177,8.4177,8.4177,8.4177,8.4177,8.4177,8.4177,8.4177,8.4177,8.4177,8.4177,8.4177,8.4177,8.4177,8.4177,8.4177,8.4177,8.4177,8.4177,8.4177,8.4177,8.4177,8.4177,8.4177,8.4177,8.4177,8.4177,8.4177,8.4177,8.4177,8.4177,8.4177,8.4177,8.4177,8.4177,8.4177,8.4177,8.4177,8.4177,8.4177,8.4177,8.4177,8.4177,8.4177,8.4177,8.4177,8.4177,8.4177,8.4177,8.4177,8.4177,8.4177,8.4177,8.4177,8.1577,8.0714,8.1897,8.3081,8.3848,8.4138,8.3421,8.2479,8.2275,8.1635,8.0423,7.9183,7.8536,7.8129,7.7315,7.6832,7.6669,7.6582,7.6582,7.6582,7.6582,7.6582,7.6582,7.6582,7.6582,7.6582,7.6582,7.6582,7.6582,7.6582,7.7373,7.8892,8.0143,8.1248,8.2421,8.3537,8.4138,8.4177,8.4177,8.4177,8.4177,8.4177,8.4177,8.4177,8.4177,8.4177,8.4177,8.4177,8.4177,8.4177,8.4177,8.4177,8.4177,8.4177,8.4177,8.4177,8.4177,8.4177,8.4177,8.4177,8.4177,8.4177,8.4177,8.4177,8.4177,8.4177,8.4177,8.4177,8.4177,8.4177,8.4177,8.4177,8.4177,8.4177,8.4177,8.4177,8.4177,8.4177,8.4177,8.4177,8.4177,8.4177,8.4177,8.4177,8.4177,8.4177,8.4177,8.4177,8.4177,8.4177,8.4177,8.4177,8.4177,8.4177,8.4177,8.4177,8.4177,8.4177,8.4177,8.4177,8.4177,8.4177,8.4177,8.4177,8.4177,8.4177,8.4177,8.4177,8.4177,8.4177,8.4177,8.4177,8.4177,8.4177,8.4177,8.2207,8.1984,8.3168,8.3867,8.4168,8.4177,8.3935,8.3683,8.3625,8.2965,8.1751,8.0481,7.9427,7.8641,7.8031,7.7606,7.6861,7.6716,7.664,7.6582,7.6582,7.6582,7.6582,7.6582,7.6582,7.6582,7.6582,7.6582,7.6582,7.6582,7.7315,7.8176,7.899,7.991,8.1248,8.2937,8.4168,8.4177,8.4177,8.4177,8.4177,8.4177,8.4177,8.4177,8.4177,8.4177,8.4177,8.4177,8.4177,8.4177,8.4177,8.4177,8.4177,8.4177,8.4177,8.4177,8.4177,8.4177,8.4177,8.4177,8.4177,8.4177,8.4177,8.4177,8.4177,8.4177,8.4177,8.4177,8.4177,8.4177,8.4177,8.4177,8.4177,8.4177,8.4177,8.4177,8.4177,8.4177,8.4177,8.4177,8.4177,8.4177,8.4177,8.4177,8.4177,8.4177,8.4177,8.4177,8.4177,8.4177,8.4177,8.4177,8.4177,8.4177,8.4177,8.4177,8.4177,8.4177,8.4177,8.4177,8.4177,8.4177,8.4177,8.4177,8.4177,8.4177,8.4177,8.4177,8.4177,8.4177,8.4177,8.4177,8.4177,8.4177,8.4177,8.3081,8.3168,8.3867,8.4177,8.4177,8.4177,8.4177,8.4177,8.4168,8.3693,8.3023,8.182,8.0772,8.0056,7.959,7.8554,7.7443,7.7344,7.6995,7.6803,7.6582,7.6582,7.6582,7.6582,7.6582,7.6582,7.6582,7.6582,7.6582,7.6582,7.721,7.7722,7.838,7.9067,8.023,8.2015,8.346,8.3935,8.4177,8.4177,8.4177,8.4177,8.4177,8.4177,8.4177,8.4177,8.4177,8.4177,8.4177,8.4177,8.4177,8.4177,8.4177,8.4177,8.4177,8.4177,8.4177,8.4177,8.4177,8.4177,8.4177,8.4177,8.4177,8.4177,8.4177,8.4177,8.4177,8.4177,8.4177,8.4177,8.4177,8.4177,8.4177,8.4177,8.4177,8.4177,8.4177,8.4177,8.4177,8.4177,8.4177,8.4177,8.4177,8.4177,8.4177,8.4177,8.4177,8.4177,8.4177,8.4177,8.4177,8.4177,8.4177,8.4177,8.4177,8.4177,8.4177,8.4177,8.4177,8.4177,8.4177,8.4177,8.4177,8.4177,8.4177,8.4177,8.4177,8.4177,8.4177,8.4177,8.4177,8.4177,8.4177,8.4177,8.4177,8.4313,8.4264,8.4323,8.4313,8.4177,8.4177,8.4177,8.4177,8.4177,8.4158,8.3867,8.3052,8.245,8.1984,8.0918,7.9881,7.8623,7.8554,7.7838,7.714,7.6629,7.6582,7.6582,7.6582,7.6582,7.6582,7.6582,7.6582,7.6582,7.6582,7.6582,7.6698,7.7635,7.8234,7.9328,8.0812,8.2248,8.3625,8.4109,8.4168,8.4177,8.4177,8.4177,8.4177,8.4177,8.4177,8.4177,8.4177,8.4177,8.4177,8.4177,8.4177,8.4177,8.4177,8.4177,8.4177,8.4177,8.4177,8.4177,8.4177,8.4177,8.4177,8.4177,8.4177,8.4177,8.4177,8.4177,8.4177,8.4177,8.4177,8.4177,8.4177,8.4177,8.4177,8.4177,8.4177,8.4177,8.4177,8.4177,8.4177,8.4177,8.4177,8.4177,8.4177,8.4177,8.4177,8.4177,8.4177,8.4177,8.4177,8.4177,8.4177,8.4177,8.4177,8.4177,8.4177,8.4177,8.4177,8.4177,8.4177,8.4177,8.4177,8.4177,8.4177,8.4177,8.4177,8.4177,8.4177,8.4177,8.4177,8.4177,8.4177,8.4177,8.4177,8.4177,8.564,8.5611,8.566,8.5039,8.4177,8.4177,8.4177,8.4177,8.4177,8.4177,8.408,8.3867,8.3197,8.2479,8.2042,8.1227,7.9987,7.895,7.838,7.778,7.7181,7.6698,7.6582,7.6582,7.6582,7.6582,7.6582,7.6582,7.6582,7.6582,7.6582,7.6611,7.7094,7.7548,7.8438,7.9474,8.0743,8.2635,8.3566,8.408,8.4177,8.4177,8.4177,8.4177,8.4177,8.4177,8.4177,8.4177,8.4177,8.4177,8.4177,8.4177,8.4177,8.4177,8.4177,8.4177,8.4177,8.4177,8.4177,8.4177,8.4177,8.4177,8.4177,8.4177,8.4177,8.4177,8.4177,8.4177,8.4177,8.4177,8.4177,8.4177,8.4177,8.4177,8.4177,8.4177,8.4177,8.4177,8.4177,8.4177,8.4177,8.4177,8.4177,8.4177,8.4177,8.4177,8.4177,8.4177,8.4177,8.4177,8.4177,8.4177,8.4177,8.4177,8.4177,8.4177,8.4177,8.4177,8.4177,8.4177,8.4177,8.4177,8.4177,8.4177,8.4177,8.4177,8.4177,8.4177,8.4177,8.4177,8.4177,8.4177,8.4177,8.4177,8.4177,8.7463,8.691,8.6378,8.5689,8.4952,8.4371,8.4177,8.4177,8.4177,8.4177,8.4177,8.4177,8.3838,8.3353,8.3197,8.2489,8.1402,8.0656,7.9736,7.8496,7.7809,7.7152,7.6756,7.6582,7.6582,7.6582,7.6582,7.6582,7.6582,7.6582,7.6582,7.6582,7.6669,7.7065,7.7518,7.8234,7.9416,8.0772,8.2412,8.3566,8.4051,8.4177,8.4177,8.4177,8.4177,8.4177,8.4177,8.4177,8.4177,8.4177,8.4177,8.4177,8.4177,8.4177,8.4177,8.4177,8.4177,8.4177,8.4177,8.4177,8.4177,8.4177,8.4177,8.4177,8.4177,8.4177,8.4177,8.4177,8.4177,8.4177,8.4177,8.4177,8.4177,8.4177,8.4177,8.4177,8.4177,8.4177,8.4177,8.4177,8.4177,8.4177,8.4177,8.4177,8.4177,8.4177,8.4177,8.4177,8.4177,8.4177,8.4177,8.4177,8.4177,8.4177,8.4177,8.4177,8.4177,8.4177,8.4177,8.4177,8.4177,8.4177,8.4177,8.4177,8.4177,8.4177,8.4177,8.4177,8.4177,8.4177,8.4177,8.4177,8.4177,8.4177,8.4177,8.9236,8.7968,8.6823,8.6222,8.5893,8.471,8.4177,8.4177,8.4177,8.4177,8.4177,8.4168,8.4168,8.4051,8.408,8.3537,8.278,8.21,8.1053,7.9532,7.867,7.7809,7.7036,7.6727,7.6582,7.6582,7.6582,7.6582,7.6582,7.6582,7.6582,7.6582,7.6582,7.664,7.6948,7.7606,7.8351,7.895,8.0772,8.2528,8.3683,8.408,8.4168,8.4177,8.4177,8.4177,8.4177,8.4177,8.4177,8.4177,8.4177,8.4177,8.4177,8.4177,8.4177,8.4177,8.4177,8.4177,8.4177,8.4177,8.4177,8.4177,8.4177,8.4177,8.4177,8.4177,8.4177,8.4177,8.4177,8.4177,8.4177,8.4177,8.4177,8.4177,8.4177,8.4177,8.4177,8.4177,8.4177,8.4177,8.4177,8.4177,8.4177,8.4177,8.4177,8.4177,8.4177,8.4177,8.4177,8.4177,8.4177,8.4177,8.4177,8.4177,8.4177,8.4177,8.4177,8.4177,8.4177,8.4177,8.4177,8.4177,8.4177,8.4177,8.4177,8.4177,8.4177,8.4177,8.4177,8.4177,8.4177,8.4177,8.4177,8.4177,8.4177,8.9236,8.8035,8.7774,8.7076,8.598,8.472,8.4177,8.4177,8.4197,8.4177,8.4177,8.4177,8.4177,8.4177,8.4138,8.4051,8.378,8.278,8.2207,8.1034,7.9619,7.8514,7.7856,7.7286,7.6582,7.6582,7.6582,7.6582,7.6582,7.6582,7.6582,7.6582,7.6582,7.6582,7.6582,7.6977,7.7646,7.8292,7.927,8.0579,8.247,8.3654,8.4177,8.4177,8.4177,8.4177,8.4177,8.4177,8.4177,8.4177,8.4177,8.4177,8.4177,8.4177,8.4177,8.4177,8.4177,8.4177,8.4177,8.4177,8.4177,8.4177,8.4177,8.4177,8.4177,8.4177,8.4177,8.4177,8.4177,8.4177,8.4177,8.4177,8.4177,8.4177,8.4177,8.4177,8.4177,8.4177,8.4177,8.4177,8.4177,8.4177,8.4177,8.4177,8.4177,8.4177,8.4177,8.4177,8.4177,8.4177,8.4177,8.4177,8.4177,8.4177,8.4177,8.4177,8.4177,8.4177,8.4177,8.4177,8.4177,8.4177,8.4177,8.4177,8.4177,8.4177,8.4177,8.4177,8.4177,8.4177,8.4177,8.4177,8.4177,8.4177,8.4177,8.9033,8.8887,8.7628,8.7405,8.7492,8.5301,8.4468,8.4972,8.4458,8.4177,8.4177,8.4177,8.4177,8.4177,8.4177,8.4177,8.4051,8.345,8.2955,8.2071,8.0452,7.9241,7.8351,7.7152,7.6698,7.6582,7.6582,7.6582,7.6582,7.6582,7.6582,7.6582,7.6582,7.6582,7.6582,7.6582,7.7007,7.753,7.8304,7.9543,8.1383,8.2693,8.3635,8.3964,8.4177,8.4177,8.4177,8.4177,8.4177,8.4177,8.4177,8.4177,8.4177,8.4177,8.4177,8.4177,8.4177,8.4177,8.4177,8.4177,8.4177,8.4177,8.4177,8.4177,8.4177,8.4177,8.4177,8.4177,8.4177,8.4177,8.4177,8.4177,8.4177,8.4177,8.4177,8.4177,8.4177,8.4177,8.4177,8.4177,8.4177,8.4177,8.4177,8.4177,8.4177,8.4177,8.4177,8.4177,8.4177,8.4177,8.4177,8.4177,8.4177,8.4177,8.4177,8.4177,8.4177,8.4177,8.4177,8.4177,8.4177,8.4177,8.4177,8.4177,8.4177,8.4177,8.4177,8.4177,8.4177,8.4177,8.4177,8.4177,8.4177,8.4177,8.4177,8.8364,8.9137,8.7007,8.7463,8.8896,8.5999,8.5292,8.6125,8.5408,8.4749,8.4604,8.4536,8.4507,8.4197,8.4177,8.4177,8.4177,8.4022,8.3566,8.2703,8.1489,8.0132,7.9038,7.778,7.6937,7.6687,7.6582,7.6582,7.6582,7.6582,7.6582,7.6582,7.6582,7.6582,7.6582,7.6582,7.6658,7.6977,7.7577,7.8903,8.0452,8.1674,8.2645,8.408,8.4177,8.4177,8.4177,8.4177,8.4177,8.4177,8.4177,8.4177,8.4177,8.4177,8.4177,8.4177,8.4177,8.4177,8.4177,8.4177,8.4177,8.4177,8.4177,8.4177,8.4177,8.4177,8.4177,8.4177,8.4177,8.4177,8.4177,8.4177,8.4177,8.4177,8.4177,8.4177,8.4177,8.4177,8.4177,8.4177,8.4177,8.4177,8.4177,8.4177,8.4177,8.4177,8.4177,8.4177,8.4177,8.4177,8.4177,8.4177,8.4177,8.4177,8.4177,8.4177,8.4177,8.4177,8.4177,8.4177,8.4177,8.4177,8.4177,8.4177,8.4177,8.4177,8.4177,8.4177,8.4177,8.4177,8.4177,8.4177,8.4177,8.4177,8.4177,8.6532,8.6678,8.63,8.6988,8.7928,8.66,8.6561,8.7657,8.7541,8.6619,8.598,8.5815,8.5127,8.44,8.4235,8.4177,8.4177,8.4168,8.4138,8.3537,8.246,8.1198,7.9987,7.8729,7.7769,7.6669,7.6582,7.6582,7.6582,7.6582,7.6582,7.6582,7.6582,7.6582,7.6582,7.6582,7.6582,7.6582,7.6948,7.8089,8.019,8.0772,8.2131,8.3703,8.4177,8.4177,8.4177,8.4177,8.4177,8.4177,8.4177,8.4177,8.4177,8.4177,8.4177,8.4177,8.4177,8.4177,8.4177,8.4177,8.4177,8.4177,8.4177,8.4177,8.4177,8.4177,8.4177,8.4177,8.4177,8.4177,8.4177,8.4177,8.4177,8.4177,8.4177,8.4177,8.4177,8.4177,8.4177,8.4177,8.4177,8.4177,8.4177,8.4177,8.4177,8.4177,8.4177,8.4177,8.4177,8.4177,8.4177,8.4177,8.4177,8.4177,8.4177,8.4177,8.4177,8.4177,8.4177,8.4177,8.4177,8.4177,8.4177,8.4177,8.4177,8.4177,8.4177,8.4487,8.4516,8.4197,8.44,8.5059,8.4807,8.4284,8.4923,8.4943,8.6096,8.6125,8.7288,8.8713,8.7774,8.789,8.88,8.8405,8.7686,8.7105,8.6358,8.5786,8.5204,8.4516,8.4177,8.4177,8.4177,8.4177,8.3896,8.2965,8.1722,8.0481,7.9736,7.8467,7.6803,7.6582,7.6582,7.6582,7.6582,7.6582,7.6582,7.6582,7.6582,7.6582,7.6582,7.6582,7.6582,7.6629,7.7838,8.0045,8.054,8.1666,8.3664,8.4177,8.4177,8.4177,8.4177,8.4177,8.4177,8.4177,8.4177,8.4177,8.4177,8.4177,8.4177,8.4177,8.4177,8.4177,8.4177,8.4177,8.4177,8.4177,8.4177,8.4177,8.4177,8.4177,8.4177,8.4177,8.4177,8.4177,8.4177,8.4177,8.4177,8.4177,8.4177,8.4177,8.4177,8.4177,8.4177,8.4177,8.4177,8.4177,8.4177,8.4177,8.4177,8.4177,8.4177,8.4177,8.4177,8.4177,8.4177,8.4177,8.4177,8.4177,8.4177,8.4177,8.4177,8.4177,8.4177,8.4177,8.4177,8.4177,8.4177,8.4177,8.4177,8.4574,8.5088,8.5292,8.5379,8.5669,8.6096,8.6212,8.5931,8.63,8.3537,8.5311,8.5621,8.7181,8.9239,8.9025,8.9383,9.0395,8.9804,8.9387,8.8299,8.7114,8.6416,8.596,8.4749,8.4177,8.4177,8.4177,8.4177,8.4022,8.311,8.2111,8.114,8.051,7.9183,7.7518,7.6774,7.6582,7.6582,7.6582,7.6582,7.6582,7.6582,7.6582,7.6582,7.6582,7.6582,7.6582,7.6582,7.7908,7.9939,8.0569,8.1685,8.3925,8.4177,8.4177,8.4177,8.4177,8.4177,8.4177,8.4177,8.4177,8.4177,8.4177,8.4177,8.4177,8.4177,8.4177,8.4177,8.4177,8.4177,8.4177,8.4177,8.4177,8.4177,8.4177,8.4177,8.4177,8.4177,8.4177,8.4177,8.4177,8.4177,8.4177,8.4177,8.4177,8.4177,8.4177,8.4177,8.4177,8.4177,8.4177,8.4177,8.4177,8.4177,8.4177,8.4177,8.4177,8.4177,8.4177,8.4177,8.4177,8.4177,8.4177,8.4177,8.4177,8.4177,8.4177,8.4177,8.4177,8.4177,8.4177,8.4177,8.4177,8.4177,8.4633,8.501,8.5524,8.6096,8.6707,8.7143,8.723,8.7337,8.7599,8.7744,8.2566,8.2867,8.3925,8.5873,8.8249,9.0095,9.0889,9.1925,9.2855,9.2141,8.9921,8.8434,8.7192,8.6018,8.4865,8.4177,8.4177,8.4177,8.4177,8.4109,8.3896,8.3062,8.1809,8.086,7.9532,7.8031,7.7024,7.6687,7.6582,7.6582,7.6582,7.6582,7.6582,7.6582,7.6582,7.6582,7.6582,7.6582,7.6582,7.7867,7.9736,8.0336,8.1481,8.3547,8.3964,8.4012,8.4168,8.4177,8.4177,8.4177,8.4177,8.4177,8.4177,8.4177,8.4177,8.4177,8.4177,8.4177,8.4177,8.4177,8.4177,8.4177,8.4177,8.4177,8.4177,8.4177,8.4177,8.4177,8.4177,8.4177,8.4177,8.4177,8.4177,8.4177,8.4177,8.4177,8.4177,8.4177,8.4177,8.4177,8.4177,8.4177,8.4177,8.4177,8.4177,8.4177,8.4177,8.4177,8.4177,8.4177,8.4177,8.4177,8.4177,8.4177,8.4177,8.4177,8.4177,8.4177,8.4177,8.4177,8.4177,8.4177,8.4177,8.4177,8.4177,8.4545,8.5146,8.5893,8.6619,8.7192,8.755,8.7832,8.8268,8.8791,8.8617,8.0598,8.1442,8.3373,8.4778,8.6147,8.9181,9.0628,9.1088,9.2443,9.2296,9.0935,8.9015,8.7744,8.7027,8.5117,8.4197,8.4177,8.4177,8.4177,8.4177,8.4177,8.313,8.1616,8.0849,7.9387,7.753,7.6832,7.6611,7.6582,7.6582,7.6582,7.6582,7.6582,7.6582,7.6582,7.6582,7.6582,7.6582,7.664,7.7431,7.9183,7.9339,8.0735,8.2616,8.3168,8.3556,8.4109,8.4168,8.4177,8.4168,8.4177,8.4177,8.4177,8.4177,8.4177,8.4177,8.4177,8.4177,8.4177,8.4177,8.4177,8.4177,8.4177,8.4177,8.4177,8.4177,8.4177,8.4177,8.4177,8.4177,8.4177,8.4177,8.4177,8.4177,8.4177,8.4177,8.4177,8.4177,8.4177,8.4177,8.4177,8.4177,8.4177,8.4177,8.4177,8.4177,8.4177,8.4177,8.4177,8.4177,8.4177,8.4177,8.4177,8.4177,8.4177,8.4177,8.4177,8.4177,8.4177,8.4177,8.4177,8.4177,8.4177,8.4177,8.4177,8.4371,8.4855,8.5485,8.6552,8.7454,8.7803,8.8355,8.9556,9.0341,8.9702,7.9078,8.0172,8.2287,8.3402,8.4186,8.728,8.8792,8.9181,9.0891,9.1671,9.1052,8.9373,8.8597,8.8268,8.5902,8.4681,8.4633,8.4371,8.4177,8.4177,8.4177,8.3024,8.1724,8.0812,7.931,7.7431,7.6879,7.6582,7.6582,7.6582,7.6582,7.6582,7.6582,7.6582,7.6582,7.6582,7.6582,7.6582,7.6582,7.7239,7.8362,7.8612,7.9659,8.1693,8.1915,8.247,8.3566,8.3693,8.3722,8.3722,8.3964,8.4197,8.4177,8.4177,8.4177,8.4177,8.4177,8.4177,8.4177,8.4177,8.4177,8.4177,8.4177,8.4177,8.4177,8.4177,8.4177,8.4177,8.4177,8.4177,8.4177,8.4177,8.4177,8.4177,8.4177,8.4177,8.4177,8.4177,8.4177,8.4177,8.4177,8.4177,8.4177,8.4177,8.4177,8.4177,8.4177,8.4177,8.4177,8.4177,8.4177,8.4177,8.4177,8.4177,8.4177,8.4177,8.4177,8.4177,8.4177,8.4177,8.4177,8.4177,8.4177,8.4177,8.4177,8.4633,8.5001,8.5224,8.6523,8.7803,8.8026,8.8172,8.9693,9.0254,8.939,7.8554,7.8787,8.0114,8.1402,8.2646,8.4774,8.5949,8.6802,8.9591,9.0544,9.0123,8.9594,8.9652,8.9187,8.7094,8.5989,8.5786,8.4923,8.4381,8.4342,8.4168,8.4022,8.3257,8.1375,7.9619,7.8118,7.7082,7.6611,7.6582,7.6582,7.6582,7.6582,7.6582,7.6582,7.6582,7.6582,7.6582,7.6582,7.6582,7.7181,7.8321,7.8438,7.9136,8.0481,8.0616,8.118,8.2256,8.2344,8.2391,8.2653,8.3508,8.4051,8.4168,8.4177,8.4177,8.4177,8.4177,8.4177,8.4177,8.4177,8.4177,8.4177,8.4177,8.4177,8.4177,8.4177,8.4177,8.4177,8.4177,8.4177,8.4177,8.4177,8.4177,8.4177,8.4177,8.4177,8.4177,8.4177,8.4177,8.4177,8.4177,8.4177,8.4177,8.4177,8.4177,8.4177,8.4177,8.4177,8.4177,8.4177,8.4177,8.4177,8.4177,8.4177,8.4177,8.4177,8.4177,8.4177,8.4177,8.4177,8.4177,8.4177,8.4177,8.4177,8.4284,8.4865,8.5321,8.5379,8.6154,8.6959,8.7454,8.7968,8.8317,8.8413,8.7957,7.7315,7.7443,7.87,7.9532,8.0202,8.2538,8.3601,8.4203,8.677,8.7838,8.7807,8.8393,8.8771,8.8588,8.7783,8.7346,8.7172,8.6009,8.5388,8.5321,8.4633,8.4177,8.3848,8.1608,7.9416,7.7577,7.6803,7.6582,7.6582,7.6582,7.6582,7.6582,7.6582,7.6582,7.6582,7.6582,7.6582,7.6582,7.6582,7.6832,7.721,7.7297,7.7943,7.9019,7.9259,7.991,8.1024,8.0394,8.0336,8.1238,8.2383,8.3421,8.4109,8.4197,8.4177,8.4177,8.4177,8.4177,8.4177,8.4177,8.4177,8.4177,8.4177,8.4177,8.4177,8.4177,8.4177,8.4177,8.4177,8.4177,8.4177,8.4177,8.4177,8.4177,8.4177,8.4177,8.4177,8.4177,8.4177,8.4177,8.4177,8.4177,8.4177,8.4177,8.4177,8.4177,8.4177,8.4177,8.4177,8.4177,8.4177,8.4177,8.4177,8.4177,8.4177,8.4177,8.4177,8.4177,8.4177,8.4177,8.4177,8.4177,8.4177,8.4177,8.4177,8.4749,8.4836,8.5088,8.535,8.5524,8.598,8.6697,8.7395,8.7279,8.6736,7.7065,7.6733,7.7548,7.7943,7.8205,7.9823,8.0878,8.1412,8.343,8.4817,8.564,8.6881,8.7657,8.789,8.7599,8.7657,8.789,8.6329,8.5776,8.5669,8.3896,8.3159,8.3043,8.1045,7.895,7.7373,7.6821,7.6582,7.6582,7.6582,7.6582,7.6582,7.6582,7.6582,7.6582,7.6582,7.6582,7.6582,7.6582,7.6582,7.6582,7.6582,7.7024,7.7827,7.7926,7.8292,7.9165,7.8834,7.8961,7.9805,8.1111,8.2373,8.345,8.3964,8.4168,8.4177,8.4177,8.4177,8.4177,8.4177,8.4177,8.4177,8.4177,8.4177,8.4177,8.4177,8.4177,8.4177,8.4177,8.4177,8.4177,8.4177,8.4177,8.4177,8.4177,8.4177,8.4177,8.4177,8.4177,8.4177,8.4177,8.4177,8.4177,8.4177,8.4177,8.4177,8.4177,8.4177,8.4177,8.4177,8.4177,8.4177,8.4177,8.4177,8.4177,8.4177,8.4177,8.4177,8.4177,8.4177,8.4177,8.4177,8.4177,8.4177,8.4177,8.4284,8.4284,8.4429,8.4739,8.4972,8.5059,8.5611,8.6445,8.6329,8.5698,7.8101,7.6705,7.6582,7.6727,7.6785,7.7065,7.7548,7.8834,8.0143,8.1967,8.3809,8.5524,8.6707,8.7483,8.693,8.691,8.7337,8.5563,8.502,8.5553,8.2528,8.1529,8.2217,7.991,7.8525,7.8292,7.717,7.6582,7.6582,7.6582,7.6582,7.6582,7.6582,7.6582,7.6582,7.6582,7.6582,7.6582,7.6582,7.6582,7.6582,7.6582,7.6658,7.6716,7.6629,7.66,7.66,7.7653,7.806,7.838,7.9758,8.1148,8.2207,8.3508,8.4177,8.4177,8.4177,8.4177,8.4177,8.4177,8.4177,8.4177,8.4177,8.4177,8.4177,8.4177,8.4177,8.4177,8.4177,8.4177,8.4177,8.4177,8.4177,8.4177,8.4177,8.4177,8.4177,8.4177,8.4177,8.4177,8.4177,8.4177,8.4177,8.4177,8.4177,8.4177,8.4177,8.4177,8.4177,8.4177,8.4177,8.4177,8.4177,8.4177,8.4177,8.4197,8.4168,8.4168,8.4168,8.4177,8.4177,8.4177,8.4177,8.4177,8.4177,8.4177,8.4177,8.4226,8.4458,8.4458,8.4371,8.4604,8.5059,8.5204,8.4633,7.9175,7.6781,7.6582,7.6582,7.6582,7.6582,7.6861,7.7315,7.8583,7.9601,8.0833,8.3518,8.4981,8.5524,8.6852,8.7279,8.6561,8.5001,8.44,8.4594,8.2732,8.1518,8.0907,7.9358,7.8554,7.8321,7.7199,7.6582,7.6582,7.6582,7.6582,7.6582,7.6582,7.6582,7.6582,7.6582,7.6582,7.6582,7.6582,7.6582,7.6582,7.6582,7.6582,7.6454,7.5745,7.489,7.4029,7.4349,7.4582,7.5148,7.875,8.0607,8.0191,8.2549,8.4177,8.4177,8.4168,8.4177,8.4177,8.4177,8.4177,8.4177,8.4177,8.4177,8.4177,8.4177,8.4177,8.4177,8.4177,8.4177,8.4177,8.4177,8.4177,8.4177,8.4177,8.4177,8.4177,8.4177,8.4177,8.4177,8.4177,8.4177,8.4177,8.4177,8.4177,8.4177,8.4177,8.4177,8.4177,8.4177,8.4177,8.4177,8.4177,8.4177,8.4177,8.4022,8.3935,8.408,8.4109,8.4168,8.4177,8.4177,8.4177,8.4177,8.4177,8.4177,8.4177,8.4177,8.4177,8.4226,8.4177,8.4177,8.4177,8.4177,8.4284,8.0354,7.8333,7.7117,7.6582,7.6582,7.6582,7.6582,7.664,7.7489,7.8071,7.8914,8.1018,8.2694,8.3566,8.4807,8.4856,8.407,8.3218,8.3101,8.3334,8.1772,8.0831,8.0249,7.8612,7.7809,7.7722,7.6995,7.6582,7.6582,7.6582,7.6582,7.6582,7.6582,7.6582,7.6582,7.6582,7.6582,7.6582,7.6582,7.6582,7.6582,7.6582,7.6338,7.5861,7.4611,7.3808,7.352,7.3537,7.3524,7.3586,7.7513,7.9513,7.9117,8.1573,8.3554,8.4312,8.4435,8.4368,8.4215,8.4177,8.4177,8.4177,8.4177,8.4177,8.4177,8.4177,8.4177,8.4177,8.4177,8.4177,8.4177,8.4177,8.4177,8.4177,8.4177,8.4177,8.4177,8.4177,8.4177,8.4177,8.4177,8.4177,8.4177,8.4177,8.4177,8.4177,8.4177,8.4177,8.4177,8.4177,8.4177,8.4177,8.4177,8.4177,8.4197,8.3896,8.3722,8.3838,8.378,8.3654,8.408,8.4168,8.4051,8.4051,8.4168,8.4177,8.4177,8.4177,8.4177,8.4177,8.4177,8.4177,8.4177,8.4177,8.4177,8.1699,8.1135,7.8177,7.6926,7.6693,7.6623,7.6582,7.6582,7.6658,7.7286,7.8274,7.8729,7.9958,8.209,8.1151,8.051,8.0598,8.0849,8.1402,8.1839,8.0016,7.9387,8.019,7.7972,7.6815,7.7024,7.689,7.6745,7.6582,7.6582,7.6582,7.6582,7.6582,7.6582,7.6582,7.6582,7.6582,7.6582,7.6582,7.6582,7.6582,7.6483,7.5774,7.4441,7.3261,7.3252,7.4411,7.4743,7.485,7.4991,7.6895,7.8262,7.9284,8.1026,8.3008,8.4651,8.4946,8.4693,8.4198,8.4194,8.4137,8.409,8.4051,8.4177,8.4177,8.4177,8.4177,8.4177,8.4177,8.4177,8.4177,8.4177,8.4177,8.4177,8.4177,8.4177,8.4177,8.4177,8.4177,8.4177,8.4177,8.4177,8.4177,8.4177,8.4177,8.4177,8.4177,8.4177,8.4177,8.4177,8.4177,8.4177,8.4177,8.4109,8.3867,8.2975,8.2858,8.3014,8.2732,8.2595,8.344,8.4022,8.3964,8.3935,8.3838,8.3867,8.4109,8.4168,8.4168,8.4177,8.4177,8.4168,8.4177,8.4177,8.3607,8.2775,8.1605,8.069,7.9557,7.8337,7.7105,7.6582,7.6582,7.6582,7.6803,7.721,7.8129,7.8979,7.9474,7.9241,7.9572,8.0558,8.146,8.1111,7.9765,8.0907,8.051,7.9201,7.9212,7.8921,7.8118,7.7955,7.7489,7.664,7.6582,7.6582,7.6582,7.6582,7.6582,7.6582,7.6582,7.6582,7.6582,7.6582,7.6582,7.6454,7.5658,7.4133,7.2172,7.162,7.1612,7.2052,7.2097,7.2983,7.5118,7.8694,8.0735,8.1086,8.4448,8.6052,8.5514,8.5371,8.4805,8.3452,8.4185,8.42,8.3144,8.3693,8.4177,8.4177,8.4177,8.4177,8.4109,8.4177,8.4109,8.4177,8.4177,8.4177,8.4177,8.4177,8.4177,8.4177,8.4177,8.4177,8.4177,8.4177,8.4177,8.4177,8.4177,8.4138,8.4109,8.4138,8.4177,8.4177,8.408,8.4109,8.4177,8.4138,8.3431,8.1811,8.1209,8.1151,8.1336,8.1394,8.114,8.1336,8.151,8.1597,8.28,8.2848,8.3023,8.346,8.3877,8.4051,8.4138,8.4109,8.4022,8.3848,8.4023,8.3163,8.2547,8.1527,8.0128,7.8976,7.7999,7.7048,7.6582,7.6582,7.6582,7.6582,7.6687,7.7373,7.7722,7.7722,7.7751,7.8147,7.8961,8.0249,7.9958,7.8863,8.0645,8.0831,7.9416,7.9648,7.9328,7.8554,7.7984,7.7373,7.6698,7.6582,7.6582,7.6582,7.6582,7.6582,7.6582,7.6582,7.6582,7.6582,7.6582,7.6326,7.5658,7.4063,7.2422,7.1054,7.0443,7.0583,7.1647,7.127,7.2036,7.4308,7.7461,7.955,8.0031,8.3658,8.5825,8.6065,8.5879,8.4972,8.3124,8.3714,8.3398,8.1717,8.2267,8.2927,8.3382,8.345,8.3207,8.2781,8.2617,8.2927,8.3353,8.345,8.3654,8.41,8.4177,8.4177,8.4177,8.4177,8.4177,8.4177,8.4177,8.4177,8.4177,8.4177,8.3983,8.3508,8.345,8.3091,8.2694,8.2665,8.2665,8.2665,8.2665,8.1938,8.0899,8.0114,8.0027,8.0249,8.0074,8.0045,8.0365,8.0529,8.0656,8.146,8.1606,8.1917,8.2694,8.2636,8.2665,8.2549,8.2607,8.2665,8.2684,8.1999,8.008,8.1947,8.1371,7.8636,7.6978,7.6938,7.685,7.6716,7.6611,7.6745,7.6774,7.6803,7.6629,7.6629,7.6582,7.664,7.6669,7.685,7.7955,7.8514,7.8467,7.9794,8.0405,8.0103,7.9416,7.8805,7.8409,7.7635,7.7082,7.6629,7.6582,7.6582,7.6582,7.6582,7.6582,7.6582,7.6582,7.6582,7.6582,7.6454,7.5745,7.4267,7.2114,7.0863,7.0747,6.9626,7.0265,7.2563,7.173,7.1851,7.3407,7.5163,7.6599,7.8339,8.0809,8.348,8.5936,8.5726,8.4868,8.3161,8.2865,8.2225,8.0712,8.0647,8.1045,8.2119,8.21,8.1577,8.0918,8.0569,8.1121,8.209,8.2217,8.2693,8.3683,8.3896,8.4051,8.4138,8.4177,8.4177,8.4177,8.4177,8.408,8.3925,8.3867,8.3469,8.2373,8.2217,8.1907,8.1103,8.087,8.0783,8.0259,8.0114,8.0027,7.9841,7.9038,7.8863,7.959,7.9049,7.8874,7.9358,7.9783,8.0172,8.0103,8.0307,8.0452,8.0627,8.0529,8.0685,8.1016,8.0928,8.0656,8.0308,7.9529,7.6902,8.3603,8.3408,8.1355,7.9753,7.8515,7.8242,7.7518,7.6716,7.7653,7.8118,7.7937,7.6995,7.6582,7.6582,7.6582,7.6582,7.6774,7.7955,7.7984,7.7344,7.9416,7.9939,7.9212,8.082,8.0481,7.8776,7.927,7.8572,7.6756,7.6582,7.6582,7.6582,7.6582,7.6582,7.6582,7.6582,7.6582,7.6524,7.557,7.4022,7.1869,7.1258,7.0456,6.9522,6.916,6.9785,7.1278,7.1179,7.2691,7.6274,7.69,7.8388,8.1008,8.1879,8.2507,8.302,8.2108,8.1708,8.2268,8.2034,8.1532,8.0952,8.0656,8.0598,8.082,8.0016,7.9648,8.0365,8.0325,8.0481,8.0772,8.0907,8.1412,8.2624,8.2809,8.312,8.3993,8.4177,8.4177,8.4177,8.4177,8.3751,8.31,8.2828,8.2314,8.1267,8.0936,8.0831,8.0569,8.05,7.955,7.8234,7.746,7.7606,7.7431,7.7181,7.7268,7.7362,7.7257,7.7355,7.7489,7.7577,7.7809,7.8787,7.899,7.927,8.0219,8.0394,8.0307,8.0238,8.0161,8.0307,8.0249,7.9704,7.7853,8.2182,8.246,8.0257,7.8807,7.7952,7.7726,7.7577,7.7577,7.8263,7.8205,7.7623,7.6919,7.6582,7.6582,7.6582,7.6582,7.6611,7.7315,7.7286,7.6774,7.867,7.9194,7.87,7.9968,7.991,7.8612,7.8688,7.8002,7.6687,7.6582,7.6582,7.6582,7.6582,7.6582,7.6582,7.6582,7.628,7.5646,7.3319,7.1125,6.9221,6.8594,6.7954,6.727,6.7793,6.874,6.9991,6.9483,7.0555,7.3527,7.4283,7.6001,7.9015,7.9867,8.0846,8.2073,8.1487,8.1146,8.1257,8.024,7.8997,7.7546,7.8848,7.8886,7.6361,7.5477,7.5605,7.6769,7.7514,7.8049,7.8659,7.9223,8.0103,8.1402,8.1518,8.1772,8.2345,8.2462,8.2462,8.2491,8.2491,8.2219,8.1606,8.15,8.1198,8.0627,7.9881,7.9299,7.8747,7.8688,7.8147,7.6948,7.6582,7.6582,7.6611,7.6582,7.6582,7.6582,7.6582,7.6582,7.6582,7.6611,7.689,7.7489,7.7646,7.7926,7.842,7.8682,7.867,7.8718,7.867,7.87,7.867,7.8682,7.7071,7.9219,8.0021,7.7207,7.6134,7.6338,7.6309,7.714,7.8525,7.8554,7.7926,7.685,7.6483,7.6338,7.628,7.6134,7.6018,7.6047,7.6047,7.603,7.6105,7.7391,7.7972,7.8002,7.8351,7.8438,7.8205,7.7344,7.6756,7.6629,7.6582,7.6582,7.6582,7.6582,7.6582,7.6582,7.6582,7.5606,7.3531,7.0474,6.8232,6.6961,6.6088,6.5408,6.4928,6.6311,6.7372,6.7923,6.7388,6.7525,6.847,6.9871,7.1804,7.4365,7.5919,7.7973,8.0451,8.0905,8.06,7.953,7.8358,7.634,7.3769,7.6134,7.602,7.1437,7.0951,7.1445,7.2605,7.3901,7.4843,7.5931,7.7187,7.8427,7.9648,8.0074,8.0307,8.0579,8.0627,8.0656,8.0685,8.05,8.054,8.0278,8.019,8.0132,7.9765,7.8816,7.7896,7.7036,7.6454,7.628,7.6105,7.603,7.6047,7.5757,7.6018,7.5815,7.6065,7.5855,7.5727,7.5681,7.5727,7.5873,7.6268,7.6326,7.6472,7.6727,7.6582,7.6803,7.689,7.6919,7.6832,7.689,7.6861,7.6193,7.6042,7.6078,7.4186,7.3983,7.4994,7.5023,7.6315,7.8554,0.0,0.0,0.0,7.5954,7.4994,7.4919,7.3872,7.3373,7.339,7.3361,7.3419,7.3419,7.4732,7.5314,7.543,7.7507,7.7955,7.6977,7.778,7.7635,7.6611,7.6582,7.6582,7.6582,7.6582,7.6582,7.6582,7.6582,7.3841,6.8556,6.8226,6.7551,6.6367,6.7592,6.6804,6.3547,6.5817,6.5641,6.2806,6.5482,6.6782,6.6184,6.7409,6.8385,6.9046,7.0426,7.1878,7.334,7.4526,7.5589,7.651,7.7386,7.7049,7.5086,7.3403,7.1984,7.108,7.0951,7.1445,7.2621,7.2895,7.3128,7.3361,7.457,7.5849,7.714,7.8234,7.9317,8.023,8.05,8.0336,8.05,8.0365,8.0085,7.9049,7.8856,7.8478,7.7548,7.721,7.6803,7.6512,7.5588,7.4503,7.369,7.3654,7.3489,7.3448,7.3535,7.3419,7.3622,7.3489,7.339,7.339,7.339,7.3797,7.4802,7.4994,7.5413,7.6309,7.6408,7.6582,7.6582,7.6582,7.6582,7.6582,7.6582,7.6244,7.6047,0.0,7.5015,7.503,0.0,7.5628,7.5966,7.6536,7.5832,7.5559,7.55,7.4221,7.3656,7.3639,7.2983,7.2675,7.2675,7.2675,7.2675,7.2721,7.3377,7.3656,7.3714,7.4977,7.5588,7.5646,7.6257,7.6559,7.6582,7.6582,7.6582,7.6582,7.6582,7.5518,7.3546,7.4461,7.2047,6.6095,6.5146,6.4239,6.3345,6.4183,6.3871,6.2341,6.4056,0.0,0.0,0.0,0.0,0.0,0.0,0.0,0.0,0.0,0.0,6.8482,6.8089,6.8046,6.8576,6.9264,7.0496,7.2234,6.9724,6.7493,6.6176,6.789,6.8959,6.8898,7.0702,7.1807,7.1852,7.2929,7.3913,7.4599,7.5774,7.6798,7.7438,7.8089,7.8496,7.8525,7.8496,7.8274,7.7606,7.7548,7.7239,7.6716,7.6582,7.6367,7.5559,7.3721,7.2137,7.1445,7.2027,7.2658,7.2675,7.2675,7.2704,7.2675,7.2675,7.2675,7.2675,7.2675,7.2866,7.3465,7.3668,7.3814,7.4477,7.464,7.4826,7.5425,7.5617,7.5425,7.471,7.4623,7.4148,7.5272,7.5528,7.5528,7.5815,7.6164,7.5745,7.503,7.4192,7.3145,7.2675,7.2663,7.2197,7.1865,7.1661,7.1632,7.1645,7.1661,7.1878,7.2023,7.2023,7.2227,7.2372,7.2372,7.2575,7.3278,7.4238,7.4296,7.4831,7.5844,7.5844,7.5977,7.6222,7.621,7.4452,7.1195,0.0,0.0,0.0,6.1883,6.0725,6.0233,6.0629,6.0703,6.0454,6.2227,0.0,6.2152,6.2559,6.3184,6.3983,6.3794,0.0,0.0,0.0,0.0,0.0,0.0,0.0,0.0,0.0,0.0,0.0,6.5017,6.2584,6.0968,6.3901,6.5438,6.426,6.7328,6.9512,6.948,7.076,7.1749,7.2023,7.319,7.4034,7.4279,7.5192,7.596,7.6164,7.6239,7.628,7.6535,7.6022,7.5684,7.5516,7.5488,7.469,7.2985,7.0567,6.9178,6.9328,7.026,7.1415,7.1944,7.1878,7.1745,7.2023,7.1977,7.1936,7.1832,7.189,7.1965,7.2372,7.2405,7.2418,7.2737,7.2675,7.3157,7.4046,7.4296,7.393,7.297,7.2704,7.1665,6.9646,7.1646,7.1688,7.2945,7.4732,7.258,7.2156,7.2941,7.2779,7.2675,7.2575,7.0424,6.884,6.7811,6.7782,6.7766,6.7869,6.8957,6.9464,6.9567,7.0631,7.117,7.1212,7.2214,7.2779,7.2941,7.297,7.3024,7.3186,7.3215,7.3768,7.4878,7.489,7.4301,7.2981,6.9514,6.4292,5.7527,5.8688,5.9371,5.9302,6.1273,6.0763,5.7851,6.119,6.1628,5.8513,6.0307,6.1047,6.0086,5.9024,5.9161,6.0431,6.0202,5.9089,0.0,5.9892,0.0,0.0,0.0,0.0,0.0,0.0,0.0,0.0,6.0445,6.1397,6.0158,6.2573,6.4172,6.4172,6.6369,6.8245,6.9377,7.066,7.1807,7.2779,7.3116,7.3622,7.4744,7.4907,7.5309,7.6146,7.4164,7.252,7.2428,7.153,6.9663,6.7105,6.6178,6.6048,6.6553,6.6818,6.7517,6.8911,6.9417,6.948,6.9464,6.9464,6.9493,6.948,6.9464,6.9858,7.0834,7.1067,7.1458,7.2546,7.2588,7.2692,7.2883,7.2825,7.2708,7.2546,7.2472,7.1998,6.9607,6.9871,6.9891,7.0485,7.1458,7.0369,7.0162,7.0627,7.0656,7.0627,7.0598,6.9464,6.8303,6.701,6.6282,6.5976,6.602,6.6587,6.6818,6.6892,6.7444,6.7722,6.7751,6.823,6.9232,7.0627,7.0656,7.1354,7.2634,7.2675,7.2966,7.3552,7.3581,7.1263,6.6844,6.6246,6.3336,5.8113,5.8319,5.8292,5.8035,5.8393,5.7956,5.6728,5.934,5.9671,5.735,5.9097,5.9884,5.9274,5.8164,5.809,5.9169,5.5986,5.422,0.0,0.0,0.0,0.0,0.0,0.0,0.0,0.0,0.0,0.0,0.0,5.5814,5.8109,6.04,6.0946,5.906,6.1072,6.3097,6.4431,6.5144,6.6644,6.9277,7.0207,7.1151,7.2434,7.3145,7.34,7.2914,7.173,7.0491,6.9428,6.6696,6.3714,6.1036,6.1718,6.2583,6.2229,6.2187,6.2958,6.5141,6.622,6.6834,6.6863,6.6863,6.6863,6.6834,6.6834,6.7256,6.848,6.8785,6.9147,7.0382,7.0673,7.0934,7.1283,7.0631,6.9961,7.0498,7.0656,7.0095,6.8771,6.8372,6.659,6.6149,6.6673,6.6411,6.6615,6.7123,6.7181,6.7326,6.7603,6.7268,6.6455,6.5133,6.3547,6.3169,6.3751,6.4071,6.4536,6.5133,6.5133,6.5133,6.5133,6.5133,6.6165,6.7968,6.7778,6.8782,7.0831,7.0889,7.076,7.0421,6.983,6.6488,6.069,6.214,6.174,5.913,5.8038,5.7196,5.6537,5.5547,5.5164,5.5406,5.7375,5.7859,5.6626,5.776,5.856,5.882,5.6829,5.6389,5.7802,5.2471,0.0,0.0,0.0,0.0,0.0,0.0,0.0,0.0,0.0,4.9354,4.7101,0.0,5.0942,0.0,5.6912,5.7164,5.5169,5.6275,0.0,0.0,5.9786,6.1302,6.4798,6.6368,6.7923,6.9803,7.0805,7.0989,7.008,6.9339,6.7928,6.5341,6.2115,5.91,5.6653,5.8174,5.9365,5.8874,5.8809,5.9596,6.2224,6.372,6.4697,6.5044,6.5162,6.5133,6.5162,6.5133,6.5423,6.6356,6.6602,6.6981,6.7896,6.8098,6.8491,6.9176,6.7999,6.6893,6.7851,6.8375,6.8016,6.4048,6.6628,5.964,5.8021,5.9898,5.8907,5.978,6.1818,6.1862,6.2501,6.3547,6.2356,6.112,5.9766,5.744,0.0,5.9795,6.0975,6.2791,6.5133,6.5133,6.5133,6.5133,6.5103,6.5205,6.5394,6.4201,6.4376,6.5728,6.5757,6.5103,6.3896,6.1659,5.9703,5.8043,5.7034,5.703,5.804,5.6897,5.5848,5.4846,5.4287,5.3536,5.2666,5.5536,5.6542,5.5421,5.5692,5.6422,5.745,5.3019,5.153,5.3783,0.0,0.0,0.0,0.0,0.0,0.0,0.0,0.0,0.0,0.0,0.0,0.0,0.0,0.0,4.8554,4.9717,0.0,5.3408,5.2697,0.0,0.0,0.0,5.7022,5.9643,6.1048,6.3271,6.6936,0.0,0.0,6.977,6.7461,6.396,5.9318,5.8365,5.7658,5.6355,5.6421,5.6801,5.7317,5.7471,5.8694,6.1421,6.2302,6.2909,6.431,6.5133,6.4914,6.4943,6.4972,6.5059,6.5249,6.5249,6.5365,6.5408,6.5438,6.5453,6.5583,6.5408,6.5307,6.5612,6.6442,6.6706,5.9677,5.8724,5.5682,5.4976,5.5895,5.6231,5.7381,5.9039,5.9739,6.0307,6.0758,5.9524,5.8299,5.6964,5.5217,0.0,0.0,0.0,5.7627,5.9415,5.9359,5.9766,6.0535,6.0521,6.1308,6.2704,6.2254,6.3082,6.5133,6.5133,6.1403,5.4343,0.0,0.0,5.1373,5.4231,5.5516,5.5051,5.5775,5.5361,5.3713,5.3469,5.2522,5.0907,5.3181,5.3882,5.2722,5.4549,5.4722,5.2874,5.0105,4.8681,0.0,0.0,0.0,0.0,0.0,0.0,0.0,0.0,0.0,0.0,0.0,4.3626,4.087,0.0,0.0,0.0,4.2859,4.2781,4.5142,4.6167,0.0,0.0,0.0,0.0,0.0,0.0,0.0,6.0873,6.33,6.4194,6.277,6.1564,5.9166,5.4646,5.5146,5.5543,5.4469,0.0,5.5151,5.4803,5.4749,5.5356,5.701,5.7523,5.8251,5.9892,6.0959,6.1789,6.2573,6.2762,6.3053,6.3736,6.3954,6.4172,6.4987,6.3126,6.1774,6.2617,6.3387,6.4201,6.4957,6.5526,6.5694,5.5072,0.0,0.0,0.0,0.0,5.3135,5.3934,5.4884,5.6076,5.6361,5.6028,5.5573,0.0,0.0,0.0,0.0,0.0,0.0,5.3677,5.5578,5.6011,5.6651,5.7524,5.7553,5.8428,6.0117,5.9797,6.0582,6.2297,6.1649,5.6805,4.8256,0.0,0.0,0.0,0.0,5.2536,5.2289,5.3374,5.315,5.1427,5.1671,5.0879,4.9068,5.1136,5.1742,5.0533,5.2679,5.2466,4.9332,4.6916,0.0,0.0,0.0,0.0,0.0,0.0,0.0,0.0,0.0,0.0,0.0,0.0,0.0,0.0,0.0,0.0,0.0,0.0,0.0,3.9543,4.1384,4.2767,0.0,0.0,0.0,0.0,0.0,0.0,0.0,0.0,0.0,5.6267,5.61,5.5422,0.0,0.0,5.3884,5.3203,5.3437,5.3364,5.2266,5.1867,0.0,5.2825,5.3189,5.4077,5.6119,5.7366,5.8591,5.9932,6.0175,6.0495,6.1381,6.1526,6.1831,6.2587,6.0624,5.9272,5.9956,6.0873,6.186,6.2791,6.3605,6.3969,0.0,0.0,0.0,0.0,0.0,0.0,0.0,0.0,4.9637,4.9551,0.0,4.9754,0.0,0.0,0.0,0.0,0.0,4.9446,0.0,0.0,5.6661,5.7466,5.7424,5.7381,5.7511,5.7566,5.6334,5.5785,5.576,5.3389,0.0,0.0,0.0,0.0,0.0,0.0,4.6889,5.0053,4.9388,4.8409,4.753,4.8306,4.8234,4.7246,4.9602,5.041,4.9463,4.9758,4.9309,4.7896,4.3149,0.0,0.0,0.0,0.0,0.0,0.0,0.0,0.0,0.0,0.0,0.0,0.0,0.0,0.0,0.0,0.0,0.0,0.0,0.0,0.0,3.964,0.0,0.0,0.0,0.0,0.0,0.0,0.0,0.0,0.0,0.0,5.146,5.199,5.3217,5.4739,0.0,0.0,0.0,0.0,5.1217,5.0093,4.902,4.8957,5.0613,5.0838,5.1834,5.4741,0.0,0.0,5.736,5.7643,5.7678,5.7728,5.7807,5.7728,5.772,5.7379,5.7361,5.7461,5.7553,5.773,5.7905,5.9448,6.1025,0.0,0.0,0.0,0.0,0.0,0.0,0.0,0.0,0.0,4.6625,4.5555,4.5975,0.0,0.0,0.0,0.0,0.0,0.0,0.0,0.0,4.9399,4.9964,5.0081,5.0751,5.1596,0.0,5.1251,4.9772,0.0,0.0,0.0,0.0,0.0,0.0,0.0,0.0,4.5262,4.601,4.769,4.7821,4.6328,4.6055,4.5939,4.5882,4.6293,4.6189,4.5571,4.6552,4.6579,0.0,0.0,0.0,0.0,0.0,0.0,0.0,0.0,0.0,0.0,0.0,0.0,0.0,0.0,0.0,0.0,0.0,0.0,0.0,0.0,0.0,0.0,0.0,3.8838,0.0,0.0,0.0,0.0,0.0,0.0,0.0,0.0,0.0,4.5574,4.7396,4.8904,4.853,4.928,5.0134,5.0825,0.0,0.0,0.0,0.0,0.0,0.0,0.0,4.857,5.0682,5.1944,5.2834,5.3397,5.4131,5.4949,5.5855,0.0,0.0,5.0791,5.0744,5.1312,5.1325,5.2568,5.3377,5.273,5.3821,5.4713,0.0,0.0,0.0,0.0,0.0,0.0,0.0,0.0,0.0,4.4471,4.2972,0.0,0.0,0.0,0.0,0.0,0.0,0.0,0.0,0.0,0.0,0.0,4.5622,4.7011,0.0,0.0,0.0,0.0,0.0,0.0,0.0,0.0,0.0,0.0,0.0,0.0,4.3508,4.2904,4.5259,4.5701,4.3847,4.3639,4.3511,4.3543,4.394,4.3534,4.2341,0.0,0.0,0.0,0.0,0.0,0.0,0.0,0.0,0.0,0.0,0.0,0.0,0.0,0.0,0.0,0.0,0.0,0.0,0.0,0.0,0.0,0.0,0.0,0.0,0.0,3.7597,0.0,0.0,0.0,0.0,0.0,0.0,0.0,0.0,0.0,0.0,0.0,4.5197,4.4474,4.5224,4.6247,4.7273,4.7449,4.7864,0.0,0.0,0.0,0.0,0.0,0.0,0.0,0.0,0.0,0.0,0.0,0.0,0.0,0.0,4.988,4.6672,4.6495,4.6949,4.7293,0.0,0.0,0.0,0.0,0.0,0.0,0.0,0.0,0.0,0.0,0.0,0.0,0.0,0.0,0.0,4.0459,0.0,0.0,4.0411,0.0,0.0,0.0,0.0,0.0,0.0,0.0,0.0,0.0,0.0,0.0,0.0,0.0,0.0,0.0,0.0,0.0,0.0,0.0,0.0,0.0,0.0,4.1514,4.0836,4.2036,4.1806,4.0166,4.0966,4.1002,4.0217,4.2634,4.2701,3.9983,0.0,0.0,0.0,0.0,0.0,0.0,0.0,0.0,0.0,0.0,0.0,0.0,0.0,0.0,0.0,0.0,0.0,0.0,0.0,0.0,0.0,0.0,0.0,0.0,0.0,0.0,3.5585,3.6302,3.6436,0.0,0.0,0.0,0.0,0.0,0.0,0.0,0.0,0.0,0.0,4.2052,4.162,4.2673,4.2798,4.3487,4.4858,4.368,4.2656,4.2838,4.267,4.2623,0.0,0.0,0.0,0.0,0.0,0.0,0.0,0.0,0.0,0.0,0.0,0.0,0.0,0.0,0.0,0.0,0.0,0.0,0.0,0.0,0.0,0.0,0.0,0.0,0.0,0.0,0.0,0.0,0.0,0.0,0.0,0.0,0.0,0.0,0.0,0.0,0.0,0.0,0.0,0.0,0.0,0.0,0.0,0.0,0.0,0.0,0.0,0.0,0.0,0.0,0.0,0.0,0.0,0.0,4.1133,3.9737,4.0963,4.0794,3.9124,3.8212,3.8207,3.9072,4.0492,4.0717,0.0,0.0,0.0,0.0,0.0,0.0,0.0,0.0,0.0,0.0,0.0,0.0,0.0,0.0,0.0,0.0,0.0,0.0,0.0,0.0,0.0,0.0,0.0,0.0,0.0,0.0,0.0,0.0,3.6106,3.5704,3.5434,0.0,0.0,0.0,0.0,0.0,0.0,0.0,0.0,0.0,0.0,4.0493,4.153,4.2303,4.3278,4.4713,4.3585,4.2956,4.4016,4.2622,4.2026,4.4014,0.0,0.0,0.0,0.0,0.0,0.0,0.0,0.0,0.0,0.0,0.0,0.0,0.0,0.0,0.0,0.0,0.0,0.0,0.0,0.0,0.0,0.0,0.0,0.0,0.0,0.0,0.0,0.0,0.0,0.0,0.0,0.0,0.0,0.0,0.0,0.0,0.0,0.0,0.0,0.0,0.0,0.0,0.0,0.0,0.0,0.0,0.0,0.0,0.0,0.0,0.0,0.0,0.0,4.0521,3.8853,4.0093,3.9959,3.8288,3.6869,3.668,3.7689,3.8246,3.7889,0.0,0.0,0.0,0.0,0.0,0.0,0.0,0.0,0.0,0.0,0.0,0.0,0.0,0.0,0.0,0.0,0.0,0.0,0.0,0.0,0.0,0.0,0.0,0.0,0.0,0.0,0.0,0.0,3.4032,3.4119,3.4105,0.0,0.0,0.0,0.0,0.0,0.0,0.0,0.0,0.0,0.0,3.7789,3.8444,3.9455,0.0,0.0,4.1602,4.0986,4.2499,4.1166,4.0363,4.1378,4.2734,0.0,0.0,0.0,0.0,0.0,0.0,0.0,0.0,0.0,0.0,0.0,0.0,0.0,0.0,0.0,0.0,0.0,0.0,0.0,0.0,0.0,0.0,0.0,0.0,0.0,0.0,0.0,0.0,0.0,0.0,0.0,0.0,0.0,0.0,0.0,0.0,0.0,0.0,0.0,0.0,0.0,0.0,0.0,0.0,0.0,0.0,0.0,0.0,0.0,0.0,0.0,0.0,0.0,3.8284,3.9368,3.9161,3.7564,3.6583,3.6037,3.5995,3.6124,3.4863,0.0,0.0,0.0,0.0,0.0,0.0,0.0,0.0,0.0,0.0,0.0,0.0,0.0,0.0,0.0,0.0,0.0,0.0,0.0,0.0,0.0,0.0,0.0,0.0,0.0,0.0,0.0,0.0,0.0,0.0,0.0,0.0,0.0,0.0,0.0,0.0,0.0,0.0,0.0,0.0,0.0,3.4075,3.4089,3.5073,3.6841,0.0,3.834,3.7571,3.8886,3.8773,3.805,3.6561,0.0,0.0,0.0,0.0,0.0,0.0,0.0,0.0,0.0,0.0,0.0,0.0,0.0,0.0,0.0,0.0,0.0,0.0,0.0,0.0,0.0,0.0,0.0,0.0,0.0,0.0,0.0,0.0,0.0,0.0,0.0,0.0,0.0,0.0,0.0,0.0,0.0,0.0,0.0,0.0,0.0,0.0,0.0,0.0,0.0,0.0,0.0,0.0,0.0,0.0,0.0,0.0,0.0,0.0,3.8999,3.9001,3.8534,3.7491,3.605,3.5023,3.4465,3.5555,0.0,0.0,0.0,0.0,0.0,0.0,0.0,0.0,0.0,0.0,0.0,0.0,0.0,0.0,0.0,0.0,0.0,0.0,0.0,0.0,0.0,0.0,0.0,0.0,0.0,0.0,0.0,2.9557,0.0,0.0,0.0,0.0,0.0,0.0,0.0,0.0,0.0,0.0,0.0,0.0,0.0,0.0,3.2595,3.2615,3.3764,3.5268,0.0,0.0,3.6717,3.7296,3.7119,3.711,0.0,0.0,0.0,0.0,0.0,0.0,0.0,0.0,0.0,0.0,0.0,0.0,0.0,0.0,0.0,0.0,0.0,0.0,0.0,0.0,0.0,0.0,0.0,0.0,0.0,0.0,0.0,0.0,0.0,0.0,0.0,0.0,0.0,0.0,0.0,0.0,0.0,0.0,0.0,0.0,0.0,0.0,0.0,0.0,0.0,0.0,0.0,0.0,0.0,0.0,0.0,0.0,0.0,0.0,3.889,3.8727,3.7649,3.7,3.6866,3.531,3.4264,3.3824,3.3973,3.3477,0.0,0.0,0.0,0.0,0.0,0.0,0.0,0.0,0.0,0.0,0.0,0.0,0.0,0.0,0.0,0.0,0.0,0.0,0.0,0.0,0.0,0.0,0.0,0.0,0.0,0.0,0.0,0.0,0.0,0.0,0.0,0.0,0.0,0.0,0.0,0.0,0.0,0.0,0.0,0.0,0.0,0.0,3.3004,3.3303,0.0,0.0,0.0,3.5409,3.7227,0.0,0.0,0.0,0.0,0.0,0.0,0.0,0.0,0.0,0.0,0.0,0.0,0.0,0.0,0.0,0.0,0.0,0.0,0.0,0.0,0.0,0.0,0.0,0.0,0.0,0.0,0.0,0.0,0.0,0.0,0.0,0.0,0.0,0.0,0.0,0.0,0.0,0.0,0.0,0.0,0.0,0.0,0.0,0.0,0.0,0.0,0.0,0.0,0.0,0.0,0.0,0.0,0.0,0.0,0.0,0.0,0.0,3.8128,3.638,3.5684,3.6206,3.4682,3.378,3.365,3.2157,3.1544,0.0,0.0,0.0,0.0,0.0,0.0,0.0,0.0,0.0,0.0,0.0,0.0,0.0,0.0,0.0,0.0,0.0,0.0,0.0,0.0,0.0,0.0,0.0,0.0,0.0,0.0,0.0,0.0,0.0,0.0,0.0,0.0,0.0,0.0,0.0,0.0,0.0,0.0,0.0,0.0,0.0,3.4035,3.4196,3.3292,3.3983,0.0,0.0,3.413,3.757,3.5857,0.0,0.0,0.0,0.0,0.0,0.0,0.0,0.0,0.0,0.0,0.0,0.0,0.0,0.0,0.0,0.0,0.0,0.0,0.0,0.0,0.0,0.0,0.0,0.0,0.0,0.0,0.0,0.0,0.0,0.0,0.0,0.0,0.0,0.0,0.0,0.0,0.0,0.0,0.0,0.0,0.0,0.0,0.0,0.0,0.0,0.0,0.0,0.0,0.0,0.0,0.0,0.0,0.0,0.0,0.0,0.0,3.904,3.8317,3.7711,3.7162,3.4985,3.3483,3.2752,3.1818,3.1296,0.0,0.0,0.0,0.0,0.0,0.0,0.0,0.0,0.0,0.0,0.0,0.0,0.0,0.0,0.0,0.0,0.0,0.0,0.0,0.0,0.0,0.0,0.0,0.0,0.0,0.0,0.0,0.0,0.0,0.0,0.0,0.0,0.0,0.0,0.0,0.0,0.0,0.0,0.0,0.0,0.0,3.2922,3.4013,3.3318,0.0,0.0,0.0,0.0,3.5699,3.4494,0.0,0.0,0.0,0.0,0.0,0.0,0.0,0.0,0.0,0.0,0.0,0.0,0.0,0.0,0.0,0.0,0.0,0.0,0.0,0.0,0.0,0.0,0.0,0.0,0.0,0.0,0.0,0.0,0.0,0.0,0.0,0.0,0.0,0.0,0.0,0.0,0.0,0.0,0.0,0.0,0.0,0.0,0.0,0.0,0.0,0.0,0.0,0.0,0.0,0.0,0.0,0.0,0.0,0.0,0.0,0.0,3.9175,3.8026,3.7224,3.6804,3.4869,3.3213,3.1933,3.109,3.0782,0.0,0.0,0.0,0.0,0.0,0.0,0.0,0.0,0.0,0.0,0.0,0.0,0.0,0.0,0.0,0.0,0.0,0.0,0.0,0.0,0.0,0.0,0.0,0.0,0.0,0.0,0.0,0.0,0.0,0.0,0.0,0.0,0.0,0.0,0.0,0.0,0.0,0.0,0.0,0.0,3.4747,3.4396,3.5129,0.0,0.0,0.0,0.0,0.0,0.0,3.5204,3.4608,0.0,0.0,0.0,0.0,0.0,0.0,0.0,0.0,0.0,0.0,0.0,0.0,0.0,0.0,0.0,0.0,0.0,0.0,0.0,0.0,0.0,0.0,0.0,0.0,0.0,0.0,0.0,0.0,0.0,0.0,0.0,0.0,0.0,0.0,0.0,0.0,0.0,0.0,0.0,0.0,0.0,0.0,0.0,0.0,0.0,0.0,0.0,0.0,0.0,0.0,0.0,0.0,0.0,0.0,0.0,3.882,3.723,3.614,3.5781,3.4096,3.262,3.1358,3.018,3.005,3.1073,0.0,0.0,0.0,0.0,0.0,0.0,0.0,0.0,0.0,0.0,0.0,0.0,0.0,0.0,0.0,0.0,0.0,0.0,0.0,0.0,0.0,0.0,0.0,0.0,0.0,0.0,0.0,0.0,0.0,0.0,0.0,0.0,0.0,0.0,0.0,0.0,0.0,0.0,0.0,3.5833,3.643,0.0,0.0,0.0,0.0,0.0,0.0,0.0,0.0,3.5918,0.0,0.0,0.0,0.0,0.0,0.0,0.0,0.0,0.0,0.0,0.0,0.0,0.0,0.0,0.0,0.0,0.0,0.0,0.0,0.0,0.0,0.0,0.0,0.0,0.0,0.0,0.0,0.0,0.0,0.0,0.0,0.0,0.0,0.0,0.0,0.0,0.0,0.0,0.0,0.0,0.0,0.0,0.0,0.0,0.0,0.0,0.0,0.0,0.0,0.0,0.0,0.0,0.0,0.0,0.0,0.0,3.7673,3.6724,3.4241,3.1897,3.0903,3.1246,2.913,2.8912,3.1017,0.0,0.0,0.0,0.0,0.0,0.0,0.0,0.0,0.0,0.0,0.0,0.0,0.0,0.0,0.0,0.0,0.0,0.0,0.0,0.0,0.0,0.0,0.0,0.0,0.0,0.0,0.0,0.0,0.0,0.0,0.0,0.0,0.0,0.0,0.0,0.0,0.0,0.0,3.6513,3.6458,0.0,0.0,0.0,0.0,0.0,0.0,0.0,0.0,3.7435,0.0,0.0,0.0,0.0,0.0,0.0,0.0,0.0,0.0,0.0,0.0,0.0,0.0,0.0,0.0,0.0,0.0,0.0,0.0,0.0,0.0,0.0,0.0,0.0,0.0,0.0,0.0,0.0,0.0,0.0,0.0,0.0,0.0,0.0,0.0,0.0,0.0,0.0,0.0,0.0,0.0,0.0,0.0,0.0,0.0,0.0,0.0,0.0,0.0,0.0,0.0,0.0,0.0,0.0,0.0,0.0,0.0,0.0,3.6551,3.3203,3.2416,3.1604,3.0547,2.8251,2.8287,0.0,0.0,0.0,0.0,0.0,0.0,0.0,0.0,0.0,0.0,0.0,0.0,0.0,0.0,0.0,0.0,0.0,0.0,0.0,0.0,0.0,0.0,0.0,0.0,0.0,0.0,0.0,0.0,0.0,0.0,0.0,0.0,0.0,0.0,0.0,0.0,0.0,0.0,0.0,0.0,0.0,0.0,0.0,0.0,0.0,0.0,0.0,0.0,0.0,0.0,0.0,0.0,0.0,0.0,0.0,0.0,0.0,0.0,0.0,0.0,0.0,0.0,0.0,0.0,0.0,0.0,0.0,0.0,0.0,0.0,0.0,0.0,0.0,0.0,0.0,0.0,0.0,0.0,0.0,0.0,0.0,0.0,0.0,0.0,0.0,0.0,0.0,0.0,0.0,0.0,0.0,0.0,0.0,0.0,0.0,0.0,0.0,0.0,0.0,0.0,0.0,0.0,0.0,0.0,0.0,0.0,0.0,0.0,3.5438,3.205,3.2492,3.1871,2.9955,2.7989,2.8368,0.0,0.0,0.0,0.0,0.0,0.0,0.0,0.0,0.0,0.0,0.0,0.0,0.0,0.0,0.0,0.0,0.0,0.0,0.0,0.0,0.0,0.0,0.0,0.0,0.0,0.0,0.0,0.0,0.0,0.0,0.0,0.0,0.0,0.0,0.0,0.0,0.0,0.0,0.0,0.0,0.0,0.0,0.0,0.0,0.0,0.0,0.0,0.0,3.8216,0.0,0.0,0.0,0.0,0.0,0.0,0.0,0.0,0.0,0.0,0.0,0.0,0.0,0.0,0.0,0.0,0.0,0.0,0.0,0.0,0.0,0.0,0.0,0.0,0.0,0.0,0.0,0.0,0.0,0.0,0.0,0.0,0.0,0.0,0.0,0.0,0.0,0.0,0.0,0.0,0.0,0.0,0.0,0.0,0.0,0.0,0.0,0.0,0.0,0.0,0.0,0.0,0.0,0.0,0.0,0.0,0.0,0.0,0.0,3.2722,3.0273,2.9735,2.9621,2.9894,2.902,2.9787,0.0,0.0,0.0,0.0,0.0,0.0,0.0,0.0,0.0,0.0,0.0,0.0,0.0,0.0,0.0,0.0,0.0,0.0,0.0,0.0,0.0,0.0,0.0,0.0,0.0,0.0,0.0,0.0,0.0,0.0,0.0,0.0,0.0,0.0,0.0,0.0,0.0,0.0,0.0,0.0,0.0,0.0,0.0,0.0,0.0,0.0,0.0,0.0,0.0,0.0,0.0,0.0,0.0,0.0,0.0,0.0,0.0,0.0,0.0,0.0,0.0,0.0,0.0,0.0,0.0,0.0,0.0,0.0,0.0,0.0,0.0,0.0,0.0,0.0,0.0,0.0,0.0,0.0,0.0,0.0,0.0,0.0,0.0,0.0,0.0,0.0,0.0,0.0,0.0,0.0,0.0,0.0,0.0,0.0,0.0,0.0,0.0,0.0,0.0,0.0,0.0,0.0,0.0,0.0,0.0,0.0,0.0,0.0,3.2319,3.0021,3.0173,3.0163,2.9946,2.8675,2.9181,0.0,0.0,0.0,0.0,0.0,0.0,0.0,0.0,0.0,0.0,0.0,0.0,0.0,0.0,0.0,0.0,0.0,0.0,0.0,0.0,0.0,0.0,0.0,0.0,0.0,0.0,0.0,0.0,0.0,0.0,0.0,0.0,0.0,0.0,0.0,0.0,0.0,0.0,0.0,0.0,0.0,0.0,0.0,0.0,0.0,0.0,0.0,0.0,0.0,0.0,0.0,0.0,0.0,0.0,0.0,0.0,0.0,0.0,0.0,0.0,0.0,0.0,0.0,0.0,0.0,0.0,0.0,0.0,0.0,0.0,0.0,0.0,0.0,0.0,0.0,0.0,0.0,0.0,0.0,0.0,0.0,0.0,0.0,0.0,0.0,0.0,0.0,0.0,0.0,0.0,0.0,0.0,0.0,0.0,0.0,0.0,0.0,0.0,0.0,0.0,0.0,0.0,0.0,0.0,0.0,0.0,0.0,0.0,0.0,3.004,3.061,3.0629,2.9941,2.8635,2.9065,0.0,0.0,0.0,0.0,0.0,0.0,0.0,0.0,0.0,0.0,0.0,0.0,0.0,0.0,0.0,0.0,0.0,0.0,0.0,0.0,0.0,0.0,0.0,0.0,0.0,0.0,0.0,0.0,0.0,0.0,0.0,0.0,0.0,0.0,0.0,0.0,0.0,0.0,0.0,0.0,0.0,0.0,0.0,0.0,0.0,0.0,0.0,0.0,0.0,0.0,0.0,0.0,0.0,0.0,0.0,0.0,0.0,0.0,0.0,0.0,0.0,0.0,0.0,0.0,0.0,0.0,0.0,0.0,0.0,0.0,0.0,0.0,0.0,0.0,0.0,0.0,0.0,0.0,0.0,0.0,0.0,0.0,0.0,0.0,0.0,0.0,0.0,0.0,0.0,0.0,0.0,0.0,0.0,0.0,0.0,0.0,0.0,0.0,0.0,0.0,0.0,0.0,0.0,0.0,0.0,0.0,0.0,0.0,0.0,2.996,3.0012,2.9998,2.9908,2.9458,3.0259,0.0,0.0,0.0,0.0,0.0,0.0,0.0,0.0,0.0,0.0,0.0,0.0,0.0,0.0,0.0,0.0,0.0,0.0,0.0,0.0,0.0,0.0,0.0,0.0,0.0,0.0,0.0,0.0,0.0,0.0,0.0,0.0,0.0,0.0,0.0,0.0,0.0,0.0,0.0,0.0,0.0,0.0,0.0,0.0,0.0,0.0,0.0,0.0,0.0,0.0,0.0,0.0,0.0,0.0,0.0,0.0,0.0,0.0,0.0,0.0,0.0,0.0,0.0,0.0,0.0,0.0,0.0,0.0,0.0,0.0,0.0,0.0,0.0,0.0,0.0,0.0,0.0,0.0,0.0,0.0,0.0,0.0,0.0,0.0,0.0,0.0,0.0,0.0,0.0,0.0,0.0,0.0,0.0,0.0,0.0,0.0,0.0,0.0,0.0,0.0,0.0,0.0,0.0,0.0,0.0,0.0,0.0,0.0,0.0,2.996,2.996,2.996,2.996,2.9564,3.0103,3.1603,0.0,0.0,0.0,0.0,0.0,0.0,0.0,0.0,0.0,0.0,0.0,0.0,0.0,0.0,0.0,0.0,0.0,0.0,0.0,0.0,0.0,0.0,0.0,0.0,0.0,0.0,0.0,0.0,0.0,0.0,0.0,0.0,0.0,0.0,0.0,0.0,0.0,0.0,0.0,0.0,0.0,0.0,0.0,0.0,0.0,0.0,0.0,0.0,0.0,0.0,0.0,0.0,0.0,0.0,0.0,0.0,0.0,0.0,0.0,0.0,0.0,0.0,0.0,0.0,0.0,0.0,0.0,0.0,0.0,0.0,0.0,0.0,0.0,0.0,0.0,0.0,0.0,0.0,0.0,0.0,0.0,0.0,0.0,0.0,0.0,0.0,0.0,0.0,0.0,0.0,0.0,0.0,0.0,0.0,0.0,0.0,0.0,0.0,0.0,0.0,0.0,0.0,0.0,0.0,0.0,0.0,0.0,0.0,2.996,2.996,2.996,2.9959,3.0226,3.0611,0.0,0.0,0.0,0.0,0.0,0.0,0.0,0.0,0.0,0.0,0.0,0.0,0.0,0.0,0.0,0.0,0.0,0.0,0.0,0.0,0.0,0.0,0.0,0.0,0.0,0.0,0.0,0.0,0.0,0.0,0.0,0.0,0.0,0.0,0.0,0.0,0.0,0.0,0.0,0.0,0.0,0.0,0.0,0.0,0.0,0.0,0.0,0.0,0.0,0.0,0.0,0.0,0.0,0.0,0.0,0.0,0.0,0.0,0.0,0.0,0.0,0.0,0.0,0.0,0.0,0.0,0.0,0.0,0.0,0.0,0.0,0.0,0.0,0.0,0.0,0.0,0.0,0.0,0.0,0.0,0.0,0.0,0.0,0.0,0.0,0.0,0.0,0.0,0.0,0.0,0.0,0.0,0.0,0.0,0.0,0.0,0.0,0.0,0.0,0.0,0.0,0.0,0.0,0.0,0.0,0.0,0.0,0.0,2.996,2.996,2.996,2.996,2.9992,3.157,3.209,0.0,0.0,0.0,0.0,0.0,0.0,0.0,0.0,0.0,0.0,0.0,0.0,0.0,0.0,0.0,0.0,0.0,0.0,0.0,0.0,0.0,0.0,0.0,0.0,0.0,0.0,0.0,0.0,0.0,0.0,0.0,0.0,0.0,0.0,0.0,0.0,0.0,0.0,0.0,0.0,0.0,0.0,0.0,0.0,0.0,0.0,0.0,0.0,0.0,0.0,0.0,0.0,0.0,0.0,0.0,0.0,0.0,0.0,0.0,0.0,0.0,0.0,0.0,0.0,0.0,0.0,0.0,0.0,0.0,0.0,0.0,0.0,0.0,0.0,0.0,0.0,0.0,0.0,0.0,0.0,0.0,0.0,0.0,0.0,0.0,0.0,0.0,0.0,0.0,0.0,0.0,0.0,0.0,0.0,0.0,0.0,0.0,0.0,0.0,0.0,0.0,0.0,0.0,0.0,0.0,0.0,0.0,0.0,0.0,2.996,0.0,2.996,0.0,3.0734,3.1189,0.0,0.0,0.0,0.0,0.0,0.0,0.0,0.0,0.0,0.0,0.0,0.0,0.0,0.0,0.0,0.0,0.0,0.0,0.0,0.0,0.0,0.0,0.0,0.0,0.0,0.0,0.0,0.0,0.0,0.0,0.0,0.0,0.0,0.0,0.0,0.0,0.0,0.0,0.0,0.0,0.0,0.0,0.0,0.0,0.0,0.0,0.0,0.0,0.0,0.0,0.0,0.0,0.0,0.0,0.0,0.0,0.0,0.0,0.0,0.0,0.0,0.0,0.0,0.0,0.0,0.0,0.0,0.0,0.0,0.0,0.0,0.0,0.0,0.0,0.0,0.0,0.0,0.0,0.0,0.0,0.0,0.0,0.0,0.0,0.0,0.0,0.0,0.0,0.0,0.0,0.0,0.0,0.0,0.0,0.0,0.0,0.0,0.0,0.0,0.0,0.0,0.0,0.0,0.0,0.0,0.0,0.0,0.0,0.0,2.996,2.996,2.996,2.9969,3.0665,3.1101,0.0,0.0,0.0,0.0,0.0,0.0,0.0,0.0,0.0,0.0,0.0,0.0,0.0,0.0,0.0,0.0,0.0,0.0,0.0,0.0,0.0,0.0,0.0,0.0,0.0,0.0,0.0,0.0,0.0,0.0,0.0,0.0,0.0,0.0,0.0,0.0,0.0,0.0,0.0,0.0,0.0,0.0,0.0,0.0,0.0,0.0,0.0,0.0,0.0,0.0,0.0,0.0,0.0,0.0,0.0,0.0,0.0,0.0,0.0,0.0,0.0,0.0,0.0,0.0,0.0,0.0,0.0,0.0,0.0,0.0,0.0,0.0,0.0,0.0,0.0,0.0,0.0,0.0,0.0,0.0,0.0,0.0,0.0,0.0,0.0,0.0,0.0,0.0,0.0,0.0,0.0,0.0,0.0,0.0,0.0,0.0,0.0,0.0,0.0,0.0,0.0,0.0,0.0,0.0,0.0,0.0,0.0,0.0,0.0,0.0,2.996,2.996,2.996,3.1249,3.1706,0.0,0.0,0.0,0.0,0.0,0.0,0.0,0.0,0.0,0.0,0.0,0.0,0.0,0.0,0.0,0.0,0.0,0.0,0.0,0.0,0.0,0.0,0.0,0.0,0.0,0.0,0.0,0.0,0.0,0.0,0.0,0.0,0.0,0.0,0.0,0.0,0.0,0.0,0.0,0.0,0.0,0.0,0.0,0.0,0.0,0.0,0.0,0.0,0.0,0.0,0.0,0.0,0.0,0.0,0.0,0.0,0.0,0.0,0.0,0.0,0.0,0.0,0.0,0.0,0.0,0.0,0.0,0.0,0.0,0.0,0.0,0.0,0.0,0.0,0.0,0.0,0.0,0.0,0.0,0.0,0.0,0.0,0.0,0.0,0.0,0.0,0.0,0.0,0.0,0.0,0.0,0.0,0.0,0.0,0.0,0.0,0.0,0.0,0.0,0.0,0.0,0.0,0.0,0.0,0.0,0.0,0.0,0.0,0.0,0.0,2.996,0.0,2.9969,3.0303,3.0734,3.1082,0.0,0.0,0.0,0.0,0.0,0.0,0.0,0.0,0.0,0.0,0.0,0.0,0.0,0.0,0.0,0.0,0.0,0.0,0.0,0.0,0.0,0.0,0.0,0.0,0.0,0.0,0.0,0.0,0.0,0.0,0.0,0.0,0.0,0.0,0.0,0.0,0.0,0.0,0.0,0.0,0.0,0.0,0.0,0.0,0.0,0.0,0.0,0.0,0.0,0.0,0.0,0.0,0.0,0.0,0.0,0.0,0.0,0.0,0.0,0.0,0.0,0.0,0.0,0.0,0.0,0.0,0.0,0.0,0.0,0.0,0.0,0.0,0.0,0.0,0.0,0.0,0.0,0.0,0.0,0.0,0.0,0.0,0.0,0.0,0.0,0.0,0.0,0.0,0.0,0.0,0.0,0.0,0.0,0.0,0.0,0.0,0.0,0.0,0.0,0.0,0.0,0.0,0.0,0.0,0.0,0.0,0.0,0.0,0.0,0.0,0.0,2.996,2.996,3.0499,0.0,0.0,0.0,0.0,0.0,0.0,0.0,0.0,0.0,0.0,0.0,0.0,0.0,0.0,0.0,0.0,0.0,0.0,0.0,0.0,0.0,0.0,0.0,0.0,0.0,0.0,0.0,0.0,0.0,0.0,0.0,0.0,0.0,0.0,0.0,0.0,0.0,0.0,0.0,0.0,0.0,0.0,0.0,0.0,0.0,0.0,0.0,0.0,0.0,0.0,0.0,0.0,0.0,0.0,0.0,0.0,0.0,0.0,0.0,0.0,0.0,0.0,0.0,0.0,0.0,0.0,0.0,0.0,0.0,0.0,0.0,0.0,0.0,0.0,0.0,0.0,0.0,0.0,0.0,0.0,0.0,0.0,0.0,0.0,0.0,0.0,0.0,0.0,0.0,0.0,0.0,0.0,0.0,0.0,0.0,0.0,0.0,0.0,0.0,0.0,0.0,0.0,0.0,0.0,0.0,0.0,0.0,0.0,0.0,0.0,0.0,2.996,2.996,2.996,0.0,3.2266,0.0,0.0,0.0,0.0,0.0,0.0,0.0,0.0,0.0,0.0,0.0,0.0,0.0,0.0,0.0,0.0,0.0,0.0,0.0,0.0,0.0,0.0,0.0,0.0,0.0,0.0,0.0,0.0,0.0,0.0,0.0,0.0,0.0,0.0,0.0,0.0,0.0,0.0,0.0,0.0,0.0,0.0,0.0,0.0,0.0,0.0,0.0,0.0,0.0,0.0,0.0,0.0,0.0,0.0,0.0,0.0,0.0,0.0,0.0,0.0,0.0,0.0,0.0,0.0,0.0,0.0,0.0,0.0,0.0,0.0,0.0,0.0,0.0,0.0,0.0,0.0,0.0,0.0,0.0,0.0,0.0,0.0,0.0,0.0,0.0,0.0,0.0,0.0,0.0,0.0,0.0,0.0,0.0,0.0,0.0,0.0,0.0,0.0,0.0,0.0,0.0,0.0,0.0,0.0,0.0,0.0,0.0,0.0,0.0,0.0,0.0,0.0,2.996,3.0136,3.0598,0.0,0.0,0.0,0.0,0.0,0.0,0.0,0.0,0.0,0.0,0.0,0.0,0.0,0.0,0.0,0.0,0.0,0.0,0.0,0.0,0.0,0.0,0.0,0.0,0.0,0.0,0.0,0.0,0.0,0.0,0.0,0.0,0.0,0.0,0.0,0.0,0.0,0.0,0.0,0.0,0.0,0.0,0.0,0.0,0.0,0.0,0.0,0.0,0.0,0.0,0.0,0.0,0.0,0.0,0.0,0.0,0.0,0.0,0.0,0.0,0.0,0.0,0.0,0.0,0.0,0.0,0.0,0.0,0.0,0.0,0.0,0.0,0.0,0.0,0.0,0.0,0.0,0.0,0.0,0.0,0.0,0.0,0.0,0.0,0.0,0.0,0.0,0.0,0.0,0.0,0.0,0.0,0.0,0.0,0.0,0.0,0.0,0.0,0.0,0.0,0.0,0.0,0.0,0.0,0.0,0.0,0.0,0.0,0.0,0.0,2.996,2.996,2.996,2.996,2.9997,0.0,0.0,0.0,0.0,0.0,0.0,0.0,0.0,0.0,0.0,0.0,0.0,0.0,0.0,0.0,0.0,0.0,0.0,0.0,0.0,0.0,0.0,0.0,0.0,0.0,0.0,0.0,0.0,0.0,0.0,0.0,0.0,0.0,0.0,0.0,0.0,0.0,0.0,0.0,0.0,0.0,0.0,0.0,0.0,0.0,0.0,0.0,0.0,0.0,0.0,0.0,0.0,0.0,0.0,0.0,0.0,0.0,0.0,0.0,0.0,0.0,0.0,0.0,0.0,0.0,0.0,0.0,0.0,0.0,0.0,0.0,0.0,0.0,0.0,0.0,0.0,0.0,0.0,0.0,0.0,0.0,0.0,0.0,0.0,0.0,0.0,0.0,0.0,0.0,0.0,0.0,0.0,0.0,0.0,0.0,0.0,0.0,0.0,0.0,0.0,0.0,0.0,0.0,0.0,0.0,0.0,0.0,0.0,0.0,0.0,0.0,0.0,0.0,0.0,2.9969,0.0,0.0,0.0,0.0,0.0,0.0,0.0,0.0,0.0,0.0,0.0,0.0,0.0,0.0,0.0,0.0,0.0,0.0,0.0,0.0,0.0,0.0,0.0,0.0,0.0,0.0,0.0,0.0,0.0,0.0,0.0,0.0,0.0,0.0,0.0,0.0,0.0,0.0,0.0,0.0,0.0,0.0,0.0,0.0,0.0,0.0,0.0,0.0,0.0,0.0,0.0,0.0,0.0,0.0,0.0,0.0,0.0,0.0,0.0,0.0,0.0,0.0,0.0,0.0,0.0,0.0,0.0,0.0,0.0,0.0,0.0,0.0,0.0,0.0,0.0,0.0,0.0,0.0,0.0,0.0,0.0,0.0,0.0,0.0,0.0,0.0,0.0,0.0,0.0,0.0,0.0,0.0,0.0,0.0,0.0,0.0,0.0,0.0,0.0,0.0,0.0,0.0,0.0,0.0,0.0,0.0,0.0,0.0,0.0,0.0,0.0,0.0,0.0,0.0,0.0,0.0,0.0,0.0,0.0,0.0,0.0,0.0,0.0,0.0,0.0,0.0,0.0,0.0,0.0,0.0,0.0,0.0,0.0,0.0,0.0,0.0,0.0,0.0,0.0,0.0,0.0,0.0,0.0,0.0,0.0,0.0,0.0,0.0,0.0,0.0,0.0,0.0,0.0,0.0,0.0,0.0,0.0,0.0,0.0,0.0,0.0,0.0,0.0,0.0,0.0,0.0,0.0,0.0,0.0,0.0,0.0,0.0,0.0,0.0,0.0,0.0,0.0,0.0,0.0,0.0,0.0,0.0,0.0,0.0,0.0,0.0,0.0,0.0,0.0,0.0,0.0,0.0,0.0,0.0,0.0,0.0,0.0,0.0,0.0,0.0,0.0,0.0,0.0,0.0,0.0,0.0,0.0,0.0,0.0,0.0,0.0,0.0,0.0,0.0,0.0,0.0,0.0,0.0,0.0,0.0,0.0,0.0,0.0,0.0,0.0,0.0,0.0,0.0,0.0,0.0,0.0,0.0,0.0,0.0,0.0,0.0,0.0,0.0,0.0,0.0,0.0,0.0,0.0,0.0,0.0,0.0,0.0,0.0,0.0,0.0,0.0,0.0,0.0,0.0,0.0,0.0,0.0,0.0,0.0,0.0,0.0,0.0,0.0,0.0,0.0,0.0,0.0,0.0,0.0,0.0,0.0,0.0,0.0,0.0,0.0,0.0,0.0,0.0,0.0,0.0,0.0,0.0,0.0,0.0,0.0,0.0,0.0,0.0,0.0,0.0,0.0,0.0,0.0,0.0,0.0,0.0,0.0,0.0,0.0,0.0,0.0,0.0,0.0,0.0,0.0,0.0,0.0,0.0,0.0,0.0,0.0,0.0,0.0,0.0,0.0,0.0,0.0,0.0,0.0,0.0,0.0,0.0,0.0,0.0,0.0,0.0,0.0,0.0,0.0,0.0,0.0,0.0,0.0,0.0,0.0,0.0,0.0,0.0,0.0,0.0,0.0,0.0,0.0,0.0,0.0,0.0,0.0,0.0,0.0,0.0,0.0,0.0,0.0,0.0,0.0,0.0,0.0,0.0,0.0,0.0,0.0,0.0,0.0,0.0,0.0,0.0,0.0,0.0,0.0,0.0,0.0,0.0,0.0,0.0,0.0,0.0,0.0,0.0,0.0,0.0,0.0,0.0,0.0,0.0,0.0,0.0,0.0,0.0,0.0,0.0,0.0,0.0,0.0,0.0,0.0,0.0,0.0,0.0,0.0,0.0,0.0,0.0,0.0,0.0,0.0,0.0,0.0,0.0,0.0,0.0,0.0,0.0,0.0,0.0,0.0,0.0,0.0,0.0,0.0,0.0,0.0,0.0,0.0,0.0,0.0,0.0,0.0,0.0,0.0,0.0,0.0,0.0,0.0,0.0,0.0,0.0,0.0,0.0,0.0,0.0,0.0,0.0,0.0,0.0,0.0,0.0,0.0,0.0,0.0,0.0,0.0,0.0,0.0,0.0,0.0,0.0,0.0,0.0,0.0,0.0,0.0,0.0,0.0,0.0,0.0,0.0,0.0,0.0,0.0,0.0,0.0,0.0,0.0,0.0,0.0,0.0,0.0,0.0,0.0,0.0,0.0,0.0,0.0,0.0,0.0,0.0,0.0,0.0,0.0,0.0,0.0,0.0,0.0,0.0,0.0,0.0,0.0,0.0,0.0,0.0,0.0,0.0,0.0,0.0,0.0,0.0,0.0,0.0,0.0,0.0,0.0,0.0,0.0,0.0,0.0,0.0,0.0,0.0,0.0,0.0,0.0,0.0,0.0,0.0,0.0,0.0,0.0,0.0,0.0,0.0,0.0,0.0,0.0,0.0,0.0,0.0,0.0,0.0,0.0,0.0,0.0,0.0,0.0,0.0,0.0,0.0,0.0,0.0,0.0,0.0,0.0,0.0,0.0,0.0,0.0,0.0,0.0,0.0,0.0,0.0,0.0,0.0,0.0,0.0,0.0,0.0,0.0,0.0,0.0,0.0,0.0,0.0,0.0,0.0,0.0,0.0,0.0,0.0,0.0,0.0,0.0,0.0,0.0,0.0,0.0,0.0,0.0,0.0,0.0,0.0,0.0,0.0,0.0,0.0,0.0,0.0,0.0,0.0,0.0,0.0,0.0,0.0,0.0,0.0,0.0,0.0,0.0,0.0,0.0,0.0,0.0,0.0,0.0,0.0,0.0,0.0,0.0,0.0,0.0,0.0,0.0,0.0,0.0,0.0,0.0,0.0,0.0,0.0,0.0,0.0,0.0,0.0,0.0,0.0,0.0,0.0,0.0,0.0,0.0,0.0,0.0,0.0,0.0,0.0,0.0,0.0,0.0,0.0,0.0,0.0,0.0,0.0,0.0,0.0,0.0,0.0,0.0,0.0,0.0,0.0,0.0,0.0,0.0,0.0,0.0,0.0,0.0,0.0,0.0,0.0,0.0,0.0,0.0,0.0,0.0,0.0,0.0,0.0,0.0,0.0,0.0,0.0,0.0,0.0,0.0,0.0,0.0,0.0,0.0,0.0,0.0,0.0,0.0,0.0,0.0,0.0,0.0,0.0,0.0,0.0,0.0,0.0,0.0,0.0,0.0,0.0,0.0,0.0,0.0,0.0,0.0,0.0,0.0,0.0,0.0,0.0,0.0,0.0,0.0,0.0,0.0,0.0,0.0,0.0,0.0,0.0,0.0,0.0,0.0,0.0,0.0,0.0,0.0,0.0,0.0,0.0,0.0,0.0,0.0,0.0,0.0,0.0,0.0,0.0,0.0,0.0,0.0,0.0,0.0,0.0,0.0,0.0,0.0,0.0,0.0,0.0,0.0,0.0,0.0,0.0,0.0,0.0,0.0,0.0,0.0,0.0,0.0,0.0,0.0,0.0,0.0,0.0,0.0,0.0,0.0,0.0,0.0,0.0,0.0,0.0,0.0,0.0,0.0,0.0,0.0,0.0,0.0,0.0,0.0,0.0,0.0,0.0,0.0,0.0,0.0,0.0,0.0,0.0,0.0,0.0,0.0,0.0,0.0,0.0,0.0,0.0,0.0,0.0,0.0,0.0,0.0,0.0,0.0,0.0,0.0,0.0,0.0,0.0,0.0,0.0,0.0,0.0,0.0,0.0,0.0,0.0,0.0,0.0,0.0,0.0,0.0,0.0,0.0,0.0,0.0,0.0,0.0,0.0,0.0,0.0,0.0,0.0,0.0,0.0,0.0,0.0,0.0,0.0,0.0,0.0,0.0,0.0,0.0,0.0,0.0,0.0,0.0,0.0,0.0,0.0,0.0,0.0,0.0,0.0,0.0,0.0,0.0,0.0,0.0,0.0,0.0,0.0,0.0,0.0,0.0,0.0,0.0,0.0,0.0,0.0,0.0,0.0,0.0,0.0,0.0,0.0,0.0,0.0,0.0,0.0,0.0,0.0,0.0,0.0,0.0,0.0,0.0,0.0,0.0,0.0,0.0,0.0,0.0,0.0,0.0,0.0,0.0,0.0,0.0,0.0,0.0,0.0,0.0,0.0,0.0,0.0,0.0,0.0,0.0,0.0,0.0,0.0,0.0,0.0,0.0,0.0,0.0,0.0,0.0,0.0,0.0,0.0,0.0,0.0,0.0,0.0,0.0,0.0,0.0,0.0,0.0,0.0,0.0,0.0,0.0,0.0,0.0,0.0,0.0,0.0,0.0,0.0,0.0,0.0,0.0,0.0,0.0,0.0,0.0,0.0,0.0,0.0,0.0,0.0,0.0,0.0,0.0,0.0,0.0,0.0,0.0,0.0,0.0,0.0,0.0,0.0,0.0,0.0,0.0,0.0,0.0,0.0,0.0,0.0,0.0,0.0,0.0,0.0]}]]]